<?xml version="1.0" encoding="UTF-8" standalone="no" ?>
<gpx xmlns="http://www.topografix.com/GPX/1/1" xmlns:xsi="http://www.w3.org/2001/XMLSchema-instance" xsi:schemaLocation="http://www.topografix.com/GPX/1/1 http://www.topografix.com/GPX/1/1/gpx.xsd" version="1.1" creator="VisuGPX - https://www.visugpx.com">
  <metadata>
    <name>voie verte de sarlat à cazoules avec visites chateaux</name>
  </metadata>
  <wpt lat="44.82017" lon="1.23433">
    <ele>91.7</ele>
    <name><![CDATA[chateau de condon]]></name>
    <type><![CDATA[patrimoine]]></type>
  </wpt>
  <wpt lat="44.82466" lon="1.2658">
    <ele>139.5</ele>
    <name><![CDATA[les jardins d'eaux]]></name>
    <type><![CDATA[patrimoine_vegetal]]></type>
  </wpt>
  <wpt lat="44.84263" lon="1.3496">
    <ele>179.8</ele>
    <name><![CDATA[chateau de fenelon]]></name>
    <type><![CDATA[patrimoine]]></type>
  </wpt>
  <wpt lat="44.83721" lon="1.2489">
    <ele>105.8</ele>
    <name><![CDATA[chateau de montfort]]></name>
    <type><![CDATA[patrimoine]]></type>
  </wpt>
  <trk>
    <name><![CDATA[voie verte de sarlat à cazoules avec visites chateaux_1]]></name>
    <trkseg>
      <trkpt lat="44.85695" lon="1.23696">
        <ele>146</ele>
      </trkpt>
      <trkpt lat="44.85695" lon="1.23696">
        <ele>146</ele>
      </trkpt>
      <trkpt lat="44.85699" lon="1.23709">
        <ele>145</ele>
      </trkpt>
      <trkpt lat="44.85705" lon="1.23708">
        <ele>144.9</ele>
      </trkpt>
      <trkpt lat="44.85748" lon="1.23714">
        <ele>143.2</ele>
      </trkpt>
      <trkpt lat="44.85763" lon="1.23719">
        <ele>143</ele>
      </trkpt>
      <trkpt lat="44.85767" lon="1.23723">
        <ele>142.7</ele>
      </trkpt>
      <trkpt lat="44.85781" lon="1.23751">
        <ele>140.6</ele>
      </trkpt>
      <trkpt lat="44.85811" lon="1.23834">
        <ele>136.4</ele>
      </trkpt>
      <trkpt lat="44.85807" lon="1.23894">
        <ele>133.9</ele>
      </trkpt>
      <trkpt lat="44.85803" lon="1.24037">
        <ele>130</ele>
      </trkpt>
      <trkpt lat="44.85799" lon="1.24061">
        <ele>129.2</ele>
      </trkpt>
      <trkpt lat="44.85774" lon="1.24136">
        <ele>129.1</ele>
      </trkpt>
      <trkpt lat="44.85763" lon="1.24161">
        <ele>129.1</ele>
      </trkpt>
      <trkpt lat="44.85758" lon="1.2417">
        <ele>129.1</ele>
      </trkpt>
      <trkpt lat="44.85749" lon="1.24178">
        <ele>129.3</ele>
      </trkpt>
      <trkpt lat="44.85725" lon="1.2419">
        <ele>133.4</ele>
      </trkpt>
      <trkpt lat="44.85716" lon="1.242">
        <ele>135.2</ele>
      </trkpt>
      <trkpt lat="44.85711" lon="1.24231">
        <ele>136.3</ele>
      </trkpt>
      <trkpt lat="44.85714" lon="1.24263">
        <ele>137</ele>
      </trkpt>
      <trkpt lat="44.85718" lon="1.24273">
        <ele>137</ele>
      </trkpt>
      <trkpt lat="44.85738" lon="1.24272">
        <ele>133.7</ele>
      </trkpt>
      <trkpt lat="44.8577" lon="1.24352">
        <ele>135</ele>
      </trkpt>
      <trkpt lat="44.85777" lon="1.24374">
        <ele>135.1</ele>
      </trkpt>
      <trkpt lat="44.8578" lon="1.24392">
        <ele>135.5</ele>
      </trkpt>
      <trkpt lat="44.85789" lon="1.24476">
        <ele>133.1</ele>
      </trkpt>
      <trkpt lat="44.85783" lon="1.24487">
        <ele>133.5</ele>
      </trkpt>
      <trkpt lat="44.85795" lon="1.24676">
        <ele>125</ele>
      </trkpt>
      <trkpt lat="44.85794" lon="1.24693">
        <ele>125.7</ele>
      </trkpt>
      <trkpt lat="44.8579" lon="1.24712">
        <ele>126.4</ele>
      </trkpt>
      <trkpt lat="44.8577" lon="1.24773">
        <ele>127.6</ele>
      </trkpt>
      <trkpt lat="44.85765" lon="1.24867">
        <ele>126.4</ele>
      </trkpt>
      <trkpt lat="44.85758" lon="1.2489">
        <ele>126.1</ele>
      </trkpt>
      <trkpt lat="44.85741" lon="1.24924">
        <ele>125.9</ele>
      </trkpt>
      <trkpt lat="44.85738" lon="1.24937">
        <ele>125.6</ele>
      </trkpt>
      <trkpt lat="44.85739" lon="1.24946">
        <ele>125.3</ele>
      </trkpt>
      <trkpt lat="44.85745" lon="1.24958">
        <ele>124.7</ele>
      </trkpt>
      <trkpt lat="44.8576" lon="1.2498">
        <ele>123.7</ele>
      </trkpt>
      <trkpt lat="44.85781" lon="1.25003">
        <ele>123.3</ele>
      </trkpt>
      <trkpt lat="44.85849" lon="1.25066">
        <ele>117.7</ele>
      </trkpt>
      <trkpt lat="44.85861" lon="1.25082">
        <ele>116.1</ele>
      </trkpt>
      <trkpt lat="44.85867" lon="1.25095">
        <ele>115.3</ele>
      </trkpt>
      <trkpt lat="44.85878" lon="1.25159">
        <ele>113.3</ele>
      </trkpt>
      <trkpt lat="44.8589" lon="1.25181">
        <ele>161.51115</ele>
        <time>2013-03-24T08:26:45Z</time>
      </trkpt>
      <trkpt lat="44.85874" lon="1.25198">
        <ele>161.12274</ele>
        <time>2013-03-24T08:26:42Z</time>
      </trkpt>
      <trkpt lat="44.85856" lon="1.25219">
        <ele>160.95705</ele>
        <time>2013-03-24T08:26:38Z</time>
      </trkpt>
      <trkpt lat="44.85841" lon="1.25234">
        <ele>161.15375</ele>
        <time>2013-03-24T08:26:35Z</time>
      </trkpt>
      <trkpt lat="44.85828" lon="1.25253">
        <ele>161.56815</ele>
        <time>2013-03-24T08:26:32Z</time>
      </trkpt>
      <trkpt lat="44.85812" lon="1.25273">
        <ele>161.35413</ele>
        <time>2013-03-24T08:26:29Z</time>
      </trkpt>
      <trkpt lat="44.85799" lon="1.25294">
        <ele>161.21347</ele>
        <time>2013-03-24T08:26:26Z</time>
      </trkpt>
      <trkpt lat="44.85786" lon="1.25319">
        <ele>160.68379</ele>
        <time>2013-03-24T08:26:23Z</time>
      </trkpt>
      <trkpt lat="44.85788" lon="1.25353">
        <ele>160.2611</ele>
        <time>2013-03-24T08:26:19Z</time>
      </trkpt>
      <trkpt lat="44.85797" lon="1.25378">
        <ele>159.88927</ele>
        <time>2013-03-24T08:26:16Z</time>
      </trkpt>
      <trkpt lat="44.85801" lon="1.25406">
        <ele>159.2227</ele>
        <time>2013-03-24T08:26:13Z</time>
      </trkpt>
      <trkpt lat="44.85807" lon="1.25438">
        <ele>158.80264</ele>
        <time>2013-03-24T08:26:09Z</time>
      </trkpt>
      <trkpt lat="44.85803" lon="1.25463">
        <ele>158.71365</ele>
        <time>2013-03-24T08:26:06Z</time>
      </trkpt>
      <trkpt lat="44.85794" lon="1.25487">
        <ele>158.40274</ele>
        <time>2013-03-24T08:26:03Z</time>
      </trkpt>
      <trkpt lat="44.85783" lon="1.25512">
        <ele>158.3065</ele>
        <time>2013-03-24T08:26:00Z</time>
      </trkpt>
      <trkpt lat="44.85773" lon="1.25538">
        <ele>158.37468</ele>
        <time>2013-03-24T08:25:57Z</time>
      </trkpt>
      <trkpt lat="44.85768" lon="1.25572">
        <ele>158.62122</ele>
        <time>2013-03-24T08:25:53Z</time>
      </trkpt>
      <trkpt lat="44.85765" lon="1.25601">
        <ele>158.43549</ele>
        <time>2013-03-24T08:25:50Z</time>
      </trkpt>
      <trkpt lat="44.85761" lon="1.25627">
        <ele>157.95448</ele>
        <time>2013-03-24T08:25:47Z</time>
      </trkpt>
      <trkpt lat="44.85757" lon="1.25653">
        <ele>157.91061</ele>
        <time>2013-03-24T08:25:44Z</time>
      </trkpt>
      <trkpt lat="44.85754" lon="1.25682">
        <ele>158.48811</ele>
        <time>2013-03-24T08:25:41Z</time>
      </trkpt>
      <trkpt lat="44.85746" lon="1.25709">
        <ele>158.71626</ele>
        <time>2013-03-24T08:25:38Z</time>
      </trkpt>
      <trkpt lat="44.8574" lon="1.25733">
        <ele>157.73485</ele>
        <time>2013-03-24T08:25:35Z</time>
      </trkpt>
      <trkpt lat="44.85729" lon="1.25758">
        <ele>157.21965</ele>
        <time>2013-03-24T08:25:32Z</time>
      </trkpt>
      <trkpt lat="44.8571" lon="1.25778">
        <ele>156.93</ele>
        <time>2013-03-24T08:25:28Z</time>
      </trkpt>
      <trkpt lat="44.85692" lon="1.25795">
        <ele>156.61923</ele>
        <time>2013-03-24T08:25:25Z</time>
      </trkpt>
      <trkpt lat="44.85676" lon="1.25809">
        <ele>156.25671</ele>
        <time>2013-03-24T08:25:22Z</time>
      </trkpt>
      <trkpt lat="44.85657" lon="1.25822">
        <ele>155.88997</ele>
        <time>2013-03-24T08:25:19Z</time>
      </trkpt>
      <trkpt lat="44.85642" lon="1.25839">
        <ele>155.9318</ele>
        <time>2013-03-24T08:25:16Z</time>
      </trkpt>
      <trkpt lat="44.85621" lon="1.25858">
        <ele>156.09018</ele>
        <time>2013-03-24T08:25:12Z</time>
      </trkpt>
      <trkpt lat="44.85602" lon="1.25872">
        <ele>156.33598</ele>
        <time>2013-03-24T08:25:09Z</time>
      </trkpt>
      <trkpt lat="44.85585" lon="1.25888">
        <ele>156.40382</ele>
        <time>2013-03-24T08:25:06Z</time>
      </trkpt>
      <trkpt lat="44.85566" lon="1.25902">
        <ele>156.5313</ele>
        <time>2013-03-24T08:25:03Z</time>
      </trkpt>
      <trkpt lat="44.85545" lon="1.2592">
        <ele>156.94333</ele>
        <time>2013-03-24T08:24:59Z</time>
      </trkpt>
      <trkpt lat="44.85529" lon="1.25937">
        <ele>157.61012</ele>
        <time>2013-03-24T08:24:56Z</time>
      </trkpt>
      <trkpt lat="44.85516" lon="1.25958">
        <ele>158.9981</ele>
        <time>2013-03-24T08:24:53Z</time>
      </trkpt>
      <trkpt lat="44.85503" lon="1.25977">
        <ele>160.80658</ele>
        <time>2013-03-24T08:24:50Z</time>
      </trkpt>
      <trkpt lat="44.85492" lon="1.26">
        <ele>162.86002</ele>
        <time>2013-03-24T08:24:47Z</time>
      </trkpt>
      <trkpt lat="44.8548" lon="1.26033">
        <ele>163.7786</ele>
        <time>2013-03-24T08:24:43Z</time>
      </trkpt>
      <trkpt lat="44.85469" lon="1.26059">
        <ele>163.94185</ele>
        <time>2013-03-24T08:24:40Z</time>
      </trkpt>
      <trkpt lat="44.85461" lon="1.26091">
        <ele>163.88808</ele>
        <time>2013-03-24T08:24:37Z</time>
      </trkpt>
      <trkpt lat="44.85452" lon="1.26127">
        <ele>162.97545</ele>
        <time>2013-03-24T08:24:34Z</time>
      </trkpt>
      <trkpt lat="44.85443" lon="1.26157">
        <ele>161.57513</ele>
        <time>2013-03-24T08:24:31Z</time>
      </trkpt>
      <trkpt lat="44.8544" lon="1.26186">
        <ele>159.53871</ele>
        <time>2013-03-24T08:24:27Z</time>
      </trkpt>
      <trkpt lat="44.85438" lon="1.26212">
        <ele>157.63837</ele>
        <time>2013-03-24T08:24:23Z</time>
      </trkpt>
      <trkpt lat="44.85429" lon="1.26238">
        <ele>157.5324</ele>
        <time>2013-03-24T08:24:19Z</time>
      </trkpt>
      <trkpt lat="44.85415" lon="1.26263">
        <ele>157.43604</ele>
        <time>2013-03-24T08:24:16Z</time>
      </trkpt>
      <trkpt lat="44.85404" lon="1.26287">
        <ele>158.03726</ele>
        <time>2013-03-24T08:24:13Z</time>
      </trkpt>
      <trkpt lat="44.85394" lon="1.26307">
        <ele>158.35515</ele>
        <time>2013-03-24T08:24:11Z</time>
      </trkpt>
      <trkpt lat="44.8538" lon="1.26331">
        <ele>157.36034</ele>
        <time>2013-03-24T08:24:08Z</time>
      </trkpt>
      <trkpt lat="44.85367" lon="1.2636">
        <ele>155.8208</ele>
        <time>2013-03-24T08:24:05Z</time>
      </trkpt>
      <trkpt lat="44.8536" lon="1.26384">
        <ele>153.76044</ele>
        <time>2013-03-24T08:24:02Z</time>
      </trkpt>
      <trkpt lat="44.85353" lon="1.26411">
        <ele>151.48398</ele>
        <time>2013-03-24T08:23:59Z</time>
      </trkpt>
      <trkpt lat="44.85349" lon="1.26437">
        <ele>149.525</ele>
        <time>2013-03-24T08:23:56Z</time>
      </trkpt>
      <trkpt lat="44.85347" lon="1.26463">
        <ele>148.3037</ele>
        <time>2013-03-24T08:23:53Z</time>
      </trkpt>
      <trkpt lat="44.85344" lon="1.26488">
        <ele>147.0532</ele>
        <time>2013-03-24T08:23:50Z</time>
      </trkpt>
      <trkpt lat="44.85339" lon="1.26518">
        <ele>145.4076</ele>
        <time>2013-03-24T08:23:47Z</time>
      </trkpt>
      <trkpt lat="44.85337" lon="1.26545">
        <ele>145.07724</ele>
        <time>2013-03-24T08:23:44Z</time>
      </trkpt>
      <trkpt lat="44.85338" lon="1.26573">
        <ele>144.8905</ele>
        <time>2013-03-24T08:23:41Z</time>
      </trkpt>
      <trkpt lat="44.85337" lon="1.26603">
        <ele>144.59229</ele>
        <time>2013-03-24T08:23:38Z</time>
      </trkpt>
      <trkpt lat="44.85339" lon="1.26631">
        <ele>143.45209</ele>
        <time>2013-03-24T08:23:35Z</time>
      </trkpt>
      <trkpt lat="44.85346" lon="1.26657">
        <ele>142.14569</ele>
        <time>2013-03-24T08:23:32Z</time>
      </trkpt>
      <trkpt lat="44.85357" lon="1.26682">
        <ele>141.72589</ele>
        <time>2013-03-24T08:23:28Z</time>
      </trkpt>
      <trkpt lat="44.8536" lon="1.26712">
        <ele>142.09842</ele>
        <time>2013-03-24T08:23:25Z</time>
      </trkpt>
      <trkpt lat="44.85366" lon="1.26745">
        <ele>142.47404</ele>
        <time>2013-03-24T08:23:22Z</time>
      </trkpt>
      <trkpt lat="44.85368" lon="1.26776">
        <ele>143.04959</ele>
        <time>2013-03-24T08:23:19Z</time>
      </trkpt>
      <trkpt lat="44.85365" lon="1.26809">
        <ele>144.35089</ele>
        <time>2013-03-24T08:23:16Z</time>
      </trkpt>
      <trkpt lat="44.8536" lon="1.26842">
        <ele>144.64285</ele>
        <time>2013-03-24T08:23:13Z</time>
      </trkpt>
      <trkpt lat="44.85361" lon="1.26868">
        <ele>144.42749</ele>
        <time>2013-03-24T08:23:10Z</time>
      </trkpt>
      <trkpt lat="44.85357" lon="1.26894">
        <ele>144.1096</ele>
        <time>2013-03-24T08:23:07Z</time>
      </trkpt>
      <trkpt lat="44.85354" lon="1.26923">
        <ele>144.39685</ele>
        <time>2013-03-24T08:23:04Z</time>
      </trkpt>
      <trkpt lat="44.8535" lon="1.26951">
        <ele>144.40366</ele>
        <time>2013-03-24T08:23:01Z</time>
      </trkpt>
      <trkpt lat="44.85345" lon="1.26981">
        <ele>143.78275</ele>
        <time>2013-03-24T08:22:58Z</time>
      </trkpt>
      <trkpt lat="44.85342" lon="1.27013">
        <ele>143.05911</ele>
        <time>2013-03-24T08:22:55Z</time>
      </trkpt>
      <trkpt lat="44.85337" lon="1.27045">
        <ele>141.48558</ele>
        <time>2013-03-24T08:22:51Z</time>
      </trkpt>
      <trkpt lat="44.85326" lon="1.27073">
        <ele>140.05472</ele>
        <time>2013-03-24T08:22:48Z</time>
      </trkpt>
      <trkpt lat="44.85319" lon="1.27098">
        <ele>138.58156</ele>
        <time>2013-03-24T08:22:45Z</time>
      </trkpt>
      <trkpt lat="44.8531" lon="1.27121">
        <ele>137.6822</ele>
        <time>2013-03-24T08:22:42Z</time>
      </trkpt>
      <trkpt lat="44.85297" lon="1.2714">
        <ele>137.30966</ele>
        <time>2013-03-24T08:22:39Z</time>
      </trkpt>
      <trkpt lat="44.85281" lon="1.27159">
        <ele>137.28215</ele>
        <time>2013-03-24T08:22:36Z</time>
      </trkpt>
      <trkpt lat="44.85264" lon="1.27176">
        <ele>137.72437</ele>
        <time>2013-03-24T08:22:33Z</time>
      </trkpt>
      <trkpt lat="44.85247" lon="1.27194">
        <ele>138.33923</ele>
        <time>2013-03-24T08:22:30Z</time>
      </trkpt>
      <trkpt lat="44.85229" lon="1.27205">
        <ele>138.85597</ele>
        <time>2013-03-24T08:22:27Z</time>
      </trkpt>
      <trkpt lat="44.85208" lon="1.27218">
        <ele>139.29565</ele>
        <time>2013-03-24T08:22:24Z</time>
      </trkpt>
      <trkpt lat="44.85189" lon="1.27225">
        <ele>140.04895</ele>
        <time>2013-03-24T08:22:21Z</time>
      </trkpt>
      <trkpt lat="44.85169" lon="1.27238">
        <ele>139.85307</ele>
        <time>2013-03-24T08:22:18Z</time>
      </trkpt>
      <trkpt lat="44.85149" lon="1.27248">
        <ele>139.61469</ele>
        <time>2013-03-24T08:22:15Z</time>
      </trkpt>
      <trkpt lat="44.85126" lon="1.27259">
        <ele>139.53111</ele>
        <time>2013-03-24T08:22:12Z</time>
      </trkpt>
      <trkpt lat="44.85105" lon="1.27271">
        <ele>139.29968</ele>
        <time>2013-03-24T08:22:09Z</time>
      </trkpt>
      <trkpt lat="44.8508" lon="1.2728">
        <ele>138.76964</ele>
        <time>2013-03-24T08:22:06Z</time>
      </trkpt>
      <trkpt lat="44.85062" lon="1.27287">
        <ele>138.63544</ele>
        <time>2013-03-24T08:22:03Z</time>
      </trkpt>
      <trkpt lat="44.8504" lon="1.27295">
        <ele>138.9342</ele>
        <time>2013-03-24T08:21:59Z</time>
      </trkpt>
      <trkpt lat="44.85018" lon="1.27305">
        <ele>138.87366</ele>
        <time>2013-03-24T08:21:56Z</time>
      </trkpt>
      <trkpt lat="44.84995" lon="1.27311">
        <ele>138.89682</ele>
        <time>2013-03-24T08:21:53Z</time>
      </trkpt>
      <trkpt lat="44.84975" lon="1.27319">
        <ele>138.63692</ele>
        <time>2013-03-24T08:21:50Z</time>
      </trkpt>
      <trkpt lat="44.84956" lon="1.27329">
        <ele>138.36159</ele>
        <time>2013-03-24T08:21:47Z</time>
      </trkpt>
      <trkpt lat="44.84937" lon="1.27336">
        <ele>137.70155</ele>
        <time>2013-03-24T08:21:44Z</time>
      </trkpt>
      <trkpt lat="44.84916" lon="1.27336">
        <ele>136.62221</ele>
        <time>2013-03-24T08:21:41Z</time>
      </trkpt>
      <trkpt lat="44.849" lon="1.27324">
        <ele>135.86746</ele>
        <time>2013-03-24T08:21:38Z</time>
      </trkpt>
      <trkpt lat="44.84886" lon="1.27301">
        <ele>136.00064</ele>
        <time>2013-03-24T08:21:35Z</time>
      </trkpt>
      <trkpt lat="44.84867" lon="1.27281">
        <ele>136.39781</ele>
        <time>2013-03-24T08:21:32Z</time>
      </trkpt>
      <trkpt lat="44.84848" lon="1.27266">
        <ele>137.00594</ele>
        <time>2013-03-24T08:21:29Z</time>
      </trkpt>
      <trkpt lat="44.84826" lon="1.27258">
        <ele>137.09554</ele>
        <time>2013-03-24T08:21:26Z</time>
      </trkpt>
      <trkpt lat="44.84805" lon="1.27254">
        <ele>136.58572</ele>
        <time>2013-03-24T08:21:23Z</time>
      </trkpt>
      <trkpt lat="44.8478" lon="1.27254">
        <ele>135.81415</ele>
        <time>2013-03-24T08:21:19Z</time>
      </trkpt>
      <trkpt lat="44.8476" lon="1.27251">
        <ele>135.24464</ele>
        <time>2013-03-24T08:21:16Z</time>
      </trkpt>
      <trkpt lat="44.8474" lon="1.27248">
        <ele>135.08733</ele>
        <time>2013-03-24T08:21:13Z</time>
      </trkpt>
      <trkpt lat="44.84718" lon="1.27244">
        <ele>135.34032</ele>
        <time>2013-03-24T08:21:10Z</time>
      </trkpt>
      <trkpt lat="44.84693" lon="1.2724">
        <ele>135.64372</ele>
        <time>2013-03-24T08:21:07Z</time>
      </trkpt>
      <trkpt lat="44.84673" lon="1.2724">
        <ele>136.50363</ele>
        <time>2013-03-24T08:21:04Z</time>
      </trkpt>
      <trkpt lat="44.84652" lon="1.27244">
        <ele>137.16045</ele>
        <time>2013-03-24T08:21:01Z</time>
      </trkpt>
      <trkpt lat="44.84628" lon="1.2725">
        <ele>137.15439</ele>
        <time>2013-03-24T08:20:58Z</time>
      </trkpt>
      <trkpt lat="44.84608" lon="1.27259">
        <ele>136.67706</ele>
        <time>2013-03-24T08:20:55Z</time>
      </trkpt>
      <trkpt lat="44.84588" lon="1.27272">
        <ele>136.43823</ele>
        <time>2013-03-24T08:20:52Z</time>
      </trkpt>
      <trkpt lat="44.8457" lon="1.27289">
        <ele>136.1647</ele>
        <time>2013-03-24T08:20:49Z</time>
      </trkpt>
      <trkpt lat="44.84553" lon="1.2731">
        <ele>136.08298</ele>
        <time>2013-03-24T08:20:46Z</time>
      </trkpt>
      <trkpt lat="44.84538" lon="1.27331">
        <ele>135.45967</ele>
        <time>2013-03-24T08:20:43Z</time>
      </trkpt>
      <trkpt lat="44.84521" lon="1.27352">
        <ele>134.68217</ele>
        <time>2013-03-24T08:20:40Z</time>
      </trkpt>
      <trkpt lat="44.84505" lon="1.27373">
        <ele>134.55405</ele>
        <time>2013-03-24T08:20:37Z</time>
      </trkpt>
      <trkpt lat="44.84488" lon="1.27396">
        <ele>134.40218</ele>
        <time>2013-03-24T08:20:34Z</time>
      </trkpt>
      <trkpt lat="44.8447" lon="1.27421">
        <ele>133.97923</ele>
        <time>2013-03-24T08:20:31Z</time>
      </trkpt>
      <trkpt lat="44.84452" lon="1.27444">
        <ele>134.84337</ele>
        <time>2013-03-24T08:20:28Z</time>
      </trkpt>
      <trkpt lat="44.84433" lon="1.27467">
        <ele>136.79907</ele>
        <time>2013-03-24T08:20:25Z</time>
      </trkpt>
      <trkpt lat="44.84414" lon="1.27486">
        <ele>139.20523</ele>
        <time>2013-03-24T08:20:22Z</time>
      </trkpt>
      <trkpt lat="44.8439" lon="1.27493">
        <ele>140.62349</ele>
        <time>2013-03-24T08:20:19Z</time>
      </trkpt>
      <trkpt lat="44.84365" lon="1.27497">
        <ele>141.03348</ele>
        <time>2013-03-24T08:20:16Z</time>
      </trkpt>
      <trkpt lat="44.84346" lon="1.27497">
        <ele>141.30396</ele>
        <time>2013-03-24T08:20:14Z</time>
      </trkpt>
      <trkpt lat="44.84321" lon="1.27493">
        <ele>141.239</ele>
        <time>2013-03-24T08:20:11Z</time>
      </trkpt>
      <trkpt lat="44.84302" lon="1.27489">
        <ele>140.9471</ele>
        <time>2013-03-24T08:20:09Z</time>
      </trkpt>
      <trkpt lat="44.84275" lon="1.27483">
        <ele>140.84868</ele>
        <time>2013-03-24T08:20:06Z</time>
      </trkpt>
      <trkpt lat="44.84254" lon="1.27478">
        <ele>141.03099</ele>
        <time>2013-03-24T08:20:04Z</time>
      </trkpt>
      <trkpt lat="44.84231" lon="1.27479">
        <ele>141.49196</ele>
        <time>2013-03-24T08:20:01Z</time>
      </trkpt>
      <trkpt lat="44.84204" lon="1.27486">
        <ele>142.17725</ele>
        <time>2013-03-24T08:19:58Z</time>
      </trkpt>
      <trkpt lat="44.84186" lon="1.27493">
        <ele>142.67065</ele>
        <time>2013-03-24T08:19:56Z</time>
      </trkpt>
      <trkpt lat="44.84164" lon="1.27502">
        <ele>143.28598</ele>
        <time>2013-03-24T08:19:53Z</time>
      </trkpt>
      <trkpt lat="44.84142" lon="1.27514">
        <ele>143.81122</ele>
        <time>2013-03-24T08:19:50Z</time>
      </trkpt>
      <trkpt lat="44.84121" lon="1.27527">
        <ele>143.91177</ele>
        <time>2013-03-24T08:19:47Z</time>
      </trkpt>
      <trkpt lat="44.841" lon="1.2754">
        <ele>144.09828</ele>
        <time>2013-03-24T08:19:44Z</time>
      </trkpt>
      <trkpt lat="44.84079" lon="1.27545">
        <ele>145.36258</ele>
        <time>2013-03-24T08:19:41Z</time>
      </trkpt>
      <trkpt lat="44.84056" lon="1.27544">
        <ele>146.02611</ele>
        <time>2013-03-24T08:19:38Z</time>
      </trkpt>
      <trkpt lat="44.84036" lon="1.27544">
        <ele>146.473</ele>
        <time>2013-03-24T08:19:35Z</time>
      </trkpt>
      <trkpt lat="44.84012" lon="1.27544">
        <ele>147.43973</ele>
        <time>2013-03-24T08:19:32Z</time>
      </trkpt>
      <trkpt lat="44.8399" lon="1.27545">
        <ele>149.15344</ele>
        <time>2013-03-24T08:19:29Z</time>
      </trkpt>
      <trkpt lat="44.83964" lon="1.27553">
        <ele>150.5489</ele>
        <time>2013-03-24T08:19:26Z</time>
      </trkpt>
      <trkpt lat="44.83947" lon="1.2757">
        <ele>151.10481</ele>
        <time>2013-03-24T08:19:23Z</time>
      </trkpt>
      <trkpt lat="44.83938" lon="1.27598">
        <ele>151.54845</ele>
        <time>2013-03-24T08:19:20Z</time>
      </trkpt>
      <trkpt lat="44.83932" lon="1.27629">
        <ele>151.0704</ele>
        <time>2013-03-24T08:19:17Z</time>
      </trkpt>
      <trkpt lat="44.83926" lon="1.27655">
        <ele>150.62984</ele>
        <time>2013-03-24T08:19:14Z</time>
      </trkpt>
      <trkpt lat="44.83917" lon="1.27683">
        <ele>149.8374</ele>
        <time>2013-03-24T08:19:11Z</time>
      </trkpt>
      <trkpt lat="44.83912" lon="1.27711">
        <ele>150.47404</ele>
        <time>2013-03-24T08:19:02Z</time>
      </trkpt>
      <trkpt lat="44.83916" lon="1.27682">
        <ele>152.26611</ele>
        <time>2013-03-24T08:18:58Z</time>
      </trkpt>
      <trkpt lat="44.83903" lon="1.27657">
        <ele>153.06783</ele>
        <time>2013-03-24T08:18:55Z</time>
      </trkpt>
      <trkpt lat="44.83882" lon="1.27646">
        <ele>153.63857</ele>
        <time>2013-03-24T08:18:52Z</time>
      </trkpt>
      <trkpt lat="44.83866" lon="1.27633">
        <ele>154.35744</ele>
        <time>2013-03-24T08:18:50Z</time>
      </trkpt>
      <trkpt lat="44.83843" lon="1.27612">
        <ele>156.10281</ele>
        <time>2013-03-24T08:18:47Z</time>
      </trkpt>
      <trkpt lat="44.83828" lon="1.27596">
        <ele>157.07167</ele>
        <time>2013-03-24T08:18:45Z</time>
      </trkpt>
      <trkpt lat="44.83808" lon="1.27585">
        <ele>157.34964</ele>
        <time>2013-03-24T08:18:43Z</time>
      </trkpt>
      <trkpt lat="44.83789" lon="1.27571">
        <ele>157.49934</ele>
        <time>2013-03-24T08:18:41Z</time>
      </trkpt>
      <trkpt lat="44.8377" lon="1.27562">
        <ele>157.59885</ele>
        <time>2013-03-24T08:18:39Z</time>
      </trkpt>
      <trkpt lat="44.83752" lon="1.27554">
        <ele>157.32016</ele>
        <time>2013-03-24T08:18:37Z</time>
      </trkpt>
      <trkpt lat="44.83733" lon="1.27549">
        <ele>157.41364</ele>
        <time>2013-03-24T08:18:35Z</time>
      </trkpt>
      <trkpt lat="44.83715" lon="1.27544">
        <ele>157.55757</ele>
        <time>2013-03-24T08:18:33Z</time>
      </trkpt>
      <trkpt lat="44.83697" lon="1.27533">
        <ele>157.53568</ele>
        <time>2013-03-24T08:18:31Z</time>
      </trkpt>
      <trkpt lat="44.83671" lon="1.27519">
        <ele>157.78825</ele>
        <time>2013-03-24T08:18:28Z</time>
      </trkpt>
      <trkpt lat="44.83651" lon="1.2751">
        <ele>157.97913</ele>
        <time>2013-03-24T08:18:26Z</time>
      </trkpt>
      <trkpt lat="44.83627" lon="1.27502">
        <ele>158.65053</ele>
        <time>2013-03-24T08:18:23Z</time>
      </trkpt>
      <trkpt lat="44.83604" lon="1.27499">
        <ele>159.10493</ele>
        <time>2013-03-24T08:18:20Z</time>
      </trkpt>
      <trkpt lat="44.83583" lon="1.27498">
        <ele>159.32281</ele>
        <time>2013-03-24T08:18:17Z</time>
      </trkpt>
      <trkpt lat="44.83559" lon="1.27493">
        <ele>158.82446</ele>
        <time>2013-03-24T08:18:14Z</time>
      </trkpt>
      <trkpt lat="44.83538" lon="1.27498">
        <ele>158.53947</ele>
        <time>2013-03-24T08:18:11Z</time>
      </trkpt>
      <trkpt lat="44.8352" lon="1.275">
        <ele>158.5146</ele>
        <time>2013-03-24T08:18:09Z</time>
      </trkpt>
      <trkpt lat="44.83497" lon="1.27503">
        <ele>158.89389</ele>
        <time>2013-03-24T08:18:06Z</time>
      </trkpt>
      <trkpt lat="44.83474" lon="1.27502">
        <ele>159.22255</ele>
        <time>2013-03-24T08:18:03Z</time>
      </trkpt>
      <trkpt lat="44.83452" lon="1.27502">
        <ele>158.94604</ele>
        <time>2013-03-24T08:18:00Z</time>
      </trkpt>
      <trkpt lat="44.8343" lon="1.27504">
        <ele>158.88322</ele>
        <time>2013-03-24T08:17:57Z</time>
      </trkpt>
      <trkpt lat="44.83408" lon="1.275">
        <ele>158.89357</ele>
        <time>2013-03-24T08:17:54Z</time>
      </trkpt>
      <trkpt lat="44.83386" lon="1.275">
        <ele>158.98845</ele>
        <time>2013-03-24T08:17:51Z</time>
      </trkpt>
      <trkpt lat="44.83363" lon="1.275">
        <ele>159.62076</ele>
        <time>2013-03-24T08:17:48Z</time>
      </trkpt>
      <trkpt lat="44.83345" lon="1.27502">
        <ele>160.28253</ele>
        <time>2013-03-24T08:17:45Z</time>
      </trkpt>
      <trkpt lat="44.83325" lon="1.27508">
        <ele>160.98082</ele>
        <time>2013-03-24T08:17:42Z</time>
      </trkpt>
      <trkpt lat="44.83302" lon="1.27516">
        <ele>161.50853</ele>
        <time>2013-03-24T08:17:38Z</time>
      </trkpt>
      <trkpt lat="44.83282" lon="1.27526">
        <ele>161.62761</ele>
        <time>2013-03-24T08:17:35Z</time>
      </trkpt>
      <trkpt lat="44.8326" lon="1.27533">
        <ele>161.43213</ele>
        <time>2013-03-24T08:17:32Z</time>
      </trkpt>
      <trkpt lat="44.83242" lon="1.27541">
        <ele>160.96503</ele>
        <time>2013-03-24T08:17:29Z</time>
      </trkpt>
      <trkpt lat="44.83224" lon="1.27549">
        <ele>160.36156</ele>
        <time>2013-03-24T08:17:26Z</time>
      </trkpt>
      <trkpt lat="44.83203" lon="1.27563">
        <ele>159.6069</ele>
        <time>2013-03-24T08:17:22Z</time>
      </trkpt>
      <trkpt lat="44.83187" lon="1.27575">
        <ele>158.80896</ele>
        <time>2013-03-24T08:17:19Z</time>
      </trkpt>
      <trkpt lat="44.83172" lon="1.27589">
        <ele>158.8027</ele>
        <time>2013-03-24T08:17:16Z</time>
      </trkpt>
      <trkpt lat="44.83156" lon="1.27601">
        <ele>159.00272</ele>
        <time>2013-03-24T08:17:13Z</time>
      </trkpt>
      <trkpt lat="44.8314" lon="1.27616">
        <ele>159.4768</ele>
        <time>2013-03-24T08:17:10Z</time>
      </trkpt>
      <trkpt lat="44.83124" lon="1.27632">
        <ele>159.98578</ele>
        <time>2013-03-24T08:17:07Z</time>
      </trkpt>
      <trkpt lat="44.83105" lon="1.27652">
        <ele>160.2464</ele>
        <time>2013-03-24T08:17:03Z</time>
      </trkpt>
      <trkpt lat="44.8309" lon="1.27666">
        <ele>159.95815</ele>
        <time>2013-03-24T08:17:00Z</time>
      </trkpt>
      <trkpt lat="44.8307" lon="1.27684">
        <ele>159.3603</ele>
        <time>2013-03-24T08:16:56Z</time>
      </trkpt>
      <trkpt lat="44.83055" lon="1.27699">
        <ele>159.35408</ele>
        <time>2013-03-24T08:16:53Z</time>
      </trkpt>
      <trkpt lat="44.83039" lon="1.27713">
        <ele>159.38744</ele>
        <time>2013-03-24T08:16:50Z</time>
      </trkpt>
      <trkpt lat="44.83024" lon="1.27728">
        <ele>159.91096</ele>
        <time>2013-03-24T08:16:47Z</time>
      </trkpt>
      <trkpt lat="44.83006" lon="1.27747">
        <ele>160.09639</ele>
        <time>2013-03-24T08:16:43Z</time>
      </trkpt>
      <trkpt lat="44.82987" lon="1.27764">
        <ele>159.96017</ele>
        <time>2013-03-24T08:16:39Z</time>
      </trkpt>
      <trkpt lat="44.82969" lon="1.27784">
        <ele>159.69142</ele>
        <time>2013-03-24T08:16:35Z</time>
      </trkpt>
      <trkpt lat="44.82951" lon="1.27801">
        <ele>158.73833</ele>
        <time>2013-03-24T08:16:31Z</time>
      </trkpt>
      <trkpt lat="44.82935" lon="1.27828">
        <ele>158.00017</ele>
        <time>2013-03-24T08:16:26Z</time>
      </trkpt>
      <trkpt lat="44.82924" lon="1.2785">
        <ele>157.15114</ele>
        <time>2013-03-24T08:16:22Z</time>
      </trkpt>
      <trkpt lat="44.82911" lon="1.27871">
        <ele>156.64803</ele>
        <time>2013-03-24T08:16:18Z</time>
      </trkpt>
      <trkpt lat="44.82898" lon="1.27892">
        <ele>157.26534</ele>
        <time>2013-03-24T08:16:14Z</time>
      </trkpt>
      <trkpt lat="44.82886" lon="1.27915">
        <ele>157.17575</ele>
        <time>2013-03-24T08:16:09Z</time>
      </trkpt>
      <trkpt lat="44.82873" lon="1.27938">
        <ele>155.88632</ele>
        <time>2013-03-24T08:16:04Z</time>
      </trkpt>
      <trkpt lat="44.82862" lon="1.27959">
        <ele>154.47032</ele>
        <time>2013-03-24T08:15:59Z</time>
      </trkpt>
      <trkpt lat="44.82849" lon="1.27984">
        <ele>153.55067</ele>
        <time>2013-03-24T08:15:54Z</time>
      </trkpt>
      <trkpt lat="44.82836" lon="1.28004">
        <ele>151.90822</ele>
        <time>2013-03-24T08:15:49Z</time>
      </trkpt>
      <trkpt lat="44.82825" lon="1.28027">
        <ele>151.82558</ele>
        <time>2013-03-24T08:15:44Z</time>
      </trkpt>
      <trkpt lat="44.82815" lon="1.28049">
        <ele>151.49442</ele>
        <time>2013-03-24T08:15:40Z</time>
      </trkpt>
      <trkpt lat="44.82808" lon="1.28074">
        <ele>151.56001</ele>
        <time>2013-03-24T08:15:35Z</time>
      </trkpt>
      <trkpt lat="44.82802" lon="1.28099">
        <ele>151.56978</ele>
        <time>2013-03-24T08:15:30Z</time>
      </trkpt>
      <trkpt lat="44.82797" lon="1.28125">
        <ele>150.81998</ele>
        <time>2013-03-24T08:15:25Z</time>
      </trkpt>
      <trkpt lat="44.82796" lon="1.28157">
        <ele>148.40648</ele>
        <time>2013-03-24T08:15:19Z</time>
      </trkpt>
      <trkpt lat="44.82797" lon="1.28183">
        <ele>146.6711</ele>
        <time>2013-03-24T08:15:15Z</time>
      </trkpt>
      <trkpt lat="44.82797" lon="1.28215">
        <ele>145.62509</ele>
        <time>2013-03-24T08:15:10Z</time>
      </trkpt>
      <trkpt lat="44.82797" lon="1.28243">
        <ele>144.6197</ele>
        <time>2013-03-24T08:15:05Z</time>
      </trkpt>
      <trkpt lat="44.82797" lon="1.28269">
        <ele>143.26454</ele>
        <time>2013-03-24T08:15:00Z</time>
      </trkpt>
      <trkpt lat="44.82799" lon="1.28299">
        <ele>141.48117</ele>
        <time>2013-03-24T08:14:54Z</time>
      </trkpt>
      <trkpt lat="44.828" lon="1.28327">
        <ele>140.32849</ele>
        <time>2013-03-24T08:14:49Z</time>
      </trkpt>
      <trkpt lat="44.828" lon="1.28358">
        <ele>139.18176</ele>
        <time>2013-03-24T08:14:44Z</time>
      </trkpt>
      <trkpt lat="44.82802" lon="1.28385">
        <ele>138.07828</ele>
        <time>2013-03-24T08:14:39Z</time>
      </trkpt>
      <trkpt lat="44.82802" lon="1.28414">
        <ele>137.55292</ele>
        <time>2013-03-24T08:14:34Z</time>
      </trkpt>
      <trkpt lat="44.82805" lon="1.28441">
        <ele>136.50058</ele>
        <time>2013-03-24T08:14:28Z</time>
      </trkpt>
      <trkpt lat="44.82805" lon="1.28472">
        <ele>135.20901</ele>
        <time>2013-03-24T08:14:23Z</time>
      </trkpt>
      <trkpt lat="44.82806" lon="1.28502">
        <ele>134.68529</ele>
        <time>2013-03-24T08:14:18Z</time>
      </trkpt>
      <trkpt lat="44.82804" lon="1.28531">
        <ele>133.83553</ele>
        <time>2013-03-24T08:14:13Z</time>
      </trkpt>
      <trkpt lat="44.82798" lon="1.28556">
        <ele>133.30241</ele>
        <time>2013-03-24T08:14:09Z</time>
      </trkpt>
      <trkpt lat="44.8279" lon="1.28582">
        <ele>133.10393</ele>
        <time>2013-03-24T08:14:05Z</time>
      </trkpt>
      <trkpt lat="44.82779" lon="1.28606">
        <ele>133.03462</ele>
        <time>2013-03-24T08:14:01Z</time>
      </trkpt>
      <trkpt lat="44.82766" lon="1.28628">
        <ele>132.81311</ele>
        <time>2013-03-24T08:13:57Z</time>
      </trkpt>
      <trkpt lat="44.82751" lon="1.28644">
        <ele>132.88464</ele>
        <time>2013-03-24T08:13:53Z</time>
      </trkpt>
      <trkpt lat="44.82734" lon="1.28658">
        <ele>133.29962</ele>
        <time>2013-03-24T08:13:49Z</time>
      </trkpt>
      <trkpt lat="44.82715" lon="1.28668">
        <ele>133.1445</ele>
        <time>2013-03-24T08:13:45Z</time>
      </trkpt>
      <trkpt lat="44.82697" lon="1.28676">
        <ele>132.83075</ele>
        <time>2013-03-24T08:13:41Z</time>
      </trkpt>
      <trkpt lat="44.82677" lon="1.28685">
        <ele>132.7009</ele>
        <time>2013-03-24T08:13:37Z</time>
      </trkpt>
      <trkpt lat="44.82659" lon="1.28688">
        <ele>132.209</ele>
        <time>2013-03-24T08:13:33Z</time>
      </trkpt>
      <trkpt lat="44.8264" lon="1.28702">
        <ele>133.43329</ele>
        <time>2013-03-24T08:12:00Z</time>
      </trkpt>
      <trkpt lat="44.82622" lon="1.28706">
        <ele>133.8843</ele>
        <time>2013-03-24T08:11:55Z</time>
      </trkpt>
      <trkpt lat="44.82602" lon="1.28714">
        <ele>134.34793</ele>
        <time>2013-03-24T08:11:52Z</time>
      </trkpt>
      <trkpt lat="44.82581" lon="1.28721">
        <ele>134.66548</ele>
        <time>2013-03-24T08:11:49Z</time>
      </trkpt>
      <trkpt lat="44.8256" lon="1.28733">
        <ele>135.35263</ele>
        <time>2013-03-24T08:11:45Z</time>
      </trkpt>
      <trkpt lat="44.82538" lon="1.28742">
        <ele>135.40831</ele>
        <time>2013-03-24T08:11:41Z</time>
      </trkpt>
      <trkpt lat="44.82519" lon="1.28749">
        <ele>135.56451</ele>
        <time>2013-03-24T08:11:37Z</time>
      </trkpt>
      <trkpt lat="44.82499" lon="1.28755">
        <ele>135.60638</ele>
        <time>2013-03-24T08:11:33Z</time>
      </trkpt>
      <trkpt lat="44.82479" lon="1.28762">
        <ele>135.70288</ele>
        <time>2013-03-24T08:11:29Z</time>
      </trkpt>
      <trkpt lat="44.8246" lon="1.28769">
        <ele>135.7054</ele>
        <time>2013-03-24T08:11:25Z</time>
      </trkpt>
      <trkpt lat="44.82441" lon="1.28777">
        <ele>136.1294</ele>
        <time>2013-03-24T08:11:21Z</time>
      </trkpt>
      <trkpt lat="44.8242" lon="1.28785">
        <ele>137.12625</ele>
        <time>2013-03-24T08:11:17Z</time>
      </trkpt>
      <trkpt lat="44.82401" lon="1.28794">
        <ele>136.5953</ele>
        <time>2013-03-24T08:11:13Z</time>
      </trkpt>
      <trkpt lat="44.82381" lon="1.28808">
        <ele>135.95926</ele>
        <time>2013-03-24T08:11:09Z</time>
      </trkpt>
      <trkpt lat="44.82363" lon="1.28816">
        <ele>136.44409</ele>
        <time>2013-03-24T08:11:05Z</time>
      </trkpt>
      <trkpt lat="44.82344" lon="1.28828">
        <ele>136.71712</ele>
        <time>2013-03-24T08:11:01Z</time>
      </trkpt>
      <trkpt lat="44.82327" lon="1.28844">
        <ele>135.69614</ele>
        <time>2013-03-24T08:10:58Z</time>
      </trkpt>
      <trkpt lat="44.82311" lon="1.28865">
        <ele>134.70384</ele>
        <time>2013-03-24T08:10:54Z</time>
      </trkpt>
      <trkpt lat="44.82294" lon="1.2888">
        <ele>134.52943</ele>
        <time>2013-03-24T08:10:50Z</time>
      </trkpt>
      <trkpt lat="44.82276" lon="1.28898">
        <ele>135.16711</ele>
        <time>2013-03-24T08:10:46Z</time>
      </trkpt>
      <trkpt lat="44.8226" lon="1.28915">
        <ele>135.30595</ele>
        <time>2013-03-24T08:10:42Z</time>
      </trkpt>
      <trkpt lat="44.82243" lon="1.28934">
        <ele>134.42624</ele>
        <time>2013-03-24T08:10:38Z</time>
      </trkpt>
      <trkpt lat="44.82226" lon="1.28949">
        <ele>133.95702</ele>
        <time>2013-03-24T08:10:34Z</time>
      </trkpt>
      <trkpt lat="44.82209" lon="1.28965">
        <ele>134.79749</ele>
        <time>2013-03-24T08:10:30Z</time>
      </trkpt>
      <trkpt lat="44.82193" lon="1.2898">
        <ele>135.27184</ele>
        <time>2013-03-24T08:10:27Z</time>
      </trkpt>
      <trkpt lat="44.82177" lon="1.28993">
        <ele>135.98509</ele>
        <time>2013-03-24T08:10:24Z</time>
      </trkpt>
      <trkpt lat="44.82158" lon="1.29014">
        <ele>137.31953</ele>
        <time>2013-03-24T08:10:20Z</time>
      </trkpt>
      <trkpt lat="44.82144" lon="1.29031">
        <ele>138.46483</ele>
        <time>2013-03-24T08:10:17Z</time>
      </trkpt>
      <trkpt lat="44.82125" lon="1.2905">
        <ele>140.43698</ele>
        <time>2013-03-24T08:10:13Z</time>
      </trkpt>
      <trkpt lat="44.82104" lon="1.29064">
        <ele>142.03581</ele>
        <time>2013-03-24T08:10:10Z</time>
      </trkpt>
      <trkpt lat="44.82085" lon="1.29076">
        <ele>143.55894</ele>
        <time>2013-03-24T08:10:07Z</time>
      </trkpt>
      <trkpt lat="44.8207" lon="1.29095">
        <ele>145.63974</ele>
        <time>2013-03-24T08:10:04Z</time>
      </trkpt>
      <trkpt lat="44.82088" lon="1.29103">
        <ele>147.97868</ele>
        <time>2013-03-24T08:10:00Z</time>
      </trkpt>
      <trkpt lat="44.82108" lon="1.29094">
        <ele>148.3828</ele>
        <time>2013-03-24T08:09:57Z</time>
      </trkpt>
      <trkpt lat="44.82129" lon="1.29087">
        <ele>148.72498</ele>
        <time>2013-03-24T08:09:55Z</time>
      </trkpt>
      <trkpt lat="44.82148" lon="1.29071">
        <ele>148.8555</ele>
        <time>2013-03-24T08:09:53Z</time>
      </trkpt>
      <trkpt lat="44.82165" lon="1.29056">
        <ele>149.04312</ele>
        <time>2013-03-24T08:09:51Z</time>
      </trkpt>
      <trkpt lat="44.82183" lon="1.29045">
        <ele>149.53221</ele>
        <time>2013-03-24T08:09:49Z</time>
      </trkpt>
      <trkpt lat="44.82202" lon="1.29036">
        <ele>149.96837</ele>
        <time>2013-03-24T08:09:47Z</time>
      </trkpt>
      <trkpt lat="44.8222" lon="1.29029">
        <ele>150.44377</ele>
        <time>2013-03-24T08:09:45Z</time>
      </trkpt>
      <trkpt lat="44.82239" lon="1.2902">
        <ele>151.52226</ele>
        <time>2013-03-24T08:09:43Z</time>
      </trkpt>
      <trkpt lat="44.82261" lon="1.29012">
        <ele>152.58401</ele>
        <time>2013-03-24T08:09:41Z</time>
      </trkpt>
      <trkpt lat="44.82285" lon="1.29011">
        <ele>153.71027</ele>
        <time>2013-03-24T08:09:38Z</time>
      </trkpt>
      <trkpt lat="44.8231" lon="1.29012">
        <ele>154.84656</ele>
        <time>2013-03-24T08:09:35Z</time>
      </trkpt>
      <trkpt lat="44.8234" lon="1.29012">
        <ele>157.02516</ele>
        <time>2013-03-24T08:09:32Z</time>
      </trkpt>
      <trkpt lat="44.82361" lon="1.29021">
        <ele>158.98557</ele>
        <time>2013-03-24T08:09:29Z</time>
      </trkpt>
      <trkpt lat="44.82378" lon="1.29042">
        <ele>160.32877</ele>
        <time>2013-03-24T08:09:26Z</time>
      </trkpt>
      <trkpt lat="44.82392" lon="1.29069">
        <ele>161.683</ele>
        <time>2013-03-24T08:09:23Z</time>
      </trkpt>
      <trkpt lat="44.82401" lon="1.29091">
        <ele>161.61421</ele>
        <time>2013-03-24T08:09:21Z</time>
      </trkpt>
      <trkpt lat="44.82413" lon="1.29116">
        <ele>161.47073</ele>
        <time>2013-03-24T08:09:18Z</time>
      </trkpt>
      <trkpt lat="44.82423" lon="1.29147">
        <ele>161.4121</ele>
        <time>2013-03-24T08:09:15Z</time>
      </trkpt>
      <trkpt lat="44.8243" lon="1.29171">
        <ele>161.18817</ele>
        <time>2013-03-24T08:09:13Z</time>
      </trkpt>
      <trkpt lat="44.82444" lon="1.29202">
        <ele>160.76828</ele>
        <time>2013-03-24T08:09:10Z</time>
      </trkpt>
      <trkpt lat="44.82455" lon="1.29231">
        <ele>160.48035</ele>
        <time>2013-03-24T08:09:07Z</time>
      </trkpt>
      <trkpt lat="44.82464" lon="1.2926">
        <ele>160.00528</ele>
        <time>2013-03-24T08:09:04Z</time>
      </trkpt>
      <trkpt lat="44.82466" lon="1.29287">
        <ele>159.45694</ele>
        <time>2013-03-24T08:09:01Z</time>
      </trkpt>
      <trkpt lat="44.82472" lon="1.29317">
        <ele>159.59053</ele>
        <time>2013-03-24T08:08:58Z</time>
      </trkpt>
      <trkpt lat="44.82483" lon="1.29343">
        <ele>160.10349</ele>
        <time>2013-03-24T08:08:55Z</time>
      </trkpt>
      <trkpt lat="44.82497" lon="1.29365">
        <ele>161.27492</ele>
        <time>2013-03-24T08:08:52Z</time>
      </trkpt>
      <trkpt lat="44.82513" lon="1.29381">
        <ele>161.82204</ele>
        <time>2013-03-24T08:08:49Z</time>
      </trkpt>
      <trkpt lat="44.82526" lon="1.29402">
        <ele>162.58186</ele>
        <time>2013-03-24T08:08:46Z</time>
      </trkpt>
      <trkpt lat="44.82542" lon="1.29425">
        <ele>163.38466</ele>
        <time>2013-03-24T08:08:42Z</time>
      </trkpt>
      <trkpt lat="44.82555" lon="1.29445">
        <ele>162.44142</ele>
        <time>2013-03-24T08:08:39Z</time>
      </trkpt>
      <trkpt lat="44.82566" lon="1.29471">
        <ele>161.95003</ele>
        <time>2013-03-24T08:08:36Z</time>
      </trkpt>
      <trkpt lat="44.82573" lon="1.29503">
        <ele>161.91243</ele>
        <time>2013-03-24T08:08:32Z</time>
      </trkpt>
      <trkpt lat="44.82586" lon="1.29523">
        <ele>161.8331</ele>
        <time>2013-03-24T08:08:28Z</time>
      </trkpt>
      <trkpt lat="44.82602" lon="1.29537">
        <ele>161.86363</ele>
        <time>2013-03-24T08:08:25Z</time>
      </trkpt>
      <trkpt lat="44.8262" lon="1.29527">
        <ele>161.96867</ele>
        <time>2013-03-24T08:08:23Z</time>
      </trkpt>
      <trkpt lat="44.82632" lon="1.29548">
        <ele>162.92203</ele>
        <time>2013-03-24T08:08:20Z</time>
      </trkpt>
      <trkpt lat="44.82636" lon="1.29576">
        <ele>163.21889</ele>
        <time>2013-03-24T08:08:17Z</time>
      </trkpt>
      <trkpt lat="44.82633" lon="1.29603">
        <ele>162.87442</ele>
        <time>2013-03-24T08:08:14Z</time>
      </trkpt>
      <trkpt lat="44.82626" lon="1.29627">
        <ele>162.49861</ele>
        <time>2013-03-24T08:08:11Z</time>
      </trkpt>
      <trkpt lat="44.82613" lon="1.29649">
        <ele>161.62634</ele>
        <time>2013-03-24T08:08:08Z</time>
      </trkpt>
      <trkpt lat="44.82601" lon="1.29679">
        <ele>160.38448</ele>
        <time>2013-03-24T08:08:04Z</time>
      </trkpt>
      <trkpt lat="44.82593" lon="1.29709">
        <ele>159.25955</ele>
        <time>2013-03-24T08:08:00Z</time>
      </trkpt>
      <trkpt lat="44.82593" lon="1.29738">
        <ele>159.31895</ele>
        <time>2013-03-24T08:07:57Z</time>
      </trkpt>
      <trkpt lat="44.82598" lon="1.29769">
        <ele>160.25603</ele>
        <time>2013-03-24T08:07:54Z</time>
      </trkpt>
      <trkpt lat="44.826" lon="1.29803">
        <ele>161.87724</ele>
        <time>2013-03-24T08:07:51Z</time>
      </trkpt>
      <trkpt lat="44.82597" lon="1.29829">
        <ele>162.7151</ele>
        <time>2013-03-24T08:07:49Z</time>
      </trkpt>
      <trkpt lat="44.82592" lon="1.29854">
        <ele>163.04907</ele>
        <time>2013-03-24T08:07:47Z</time>
      </trkpt>
      <trkpt lat="44.82584" lon="1.29892">
        <ele>163.39041</ele>
        <time>2013-03-24T08:07:44Z</time>
      </trkpt>
      <trkpt lat="44.82578" lon="1.29927">
        <ele>163.39577</ele>
        <time>2013-03-24T08:07:41Z</time>
      </trkpt>
      <trkpt lat="44.82571" lon="1.29961">
        <ele>163.54553</ele>
        <time>2013-03-24T08:07:38Z</time>
      </trkpt>
      <trkpt lat="44.82561" lon="1.29991">
        <ele>163.83757</ele>
        <time>2013-03-24T08:07:35Z</time>
      </trkpt>
      <trkpt lat="44.82547" lon="1.3002">
        <ele>164.67424</ele>
        <time>2013-03-24T08:07:32Z</time>
      </trkpt>
      <trkpt lat="44.82534" lon="1.30048">
        <ele>165.77226</ele>
        <time>2013-03-24T08:07:29Z</time>
      </trkpt>
      <trkpt lat="44.82522" lon="1.30082">
        <ele>166.53796</ele>
        <time>2013-03-24T08:07:26Z</time>
      </trkpt>
      <trkpt lat="44.82515" lon="1.30116">
        <ele>166.81223</ele>
        <time>2013-03-24T08:07:23Z</time>
      </trkpt>
      <trkpt lat="44.82513" lon="1.30142">
        <ele>167.24394</ele>
        <time>2013-03-24T08:07:21Z</time>
      </trkpt>
      <trkpt lat="44.82513" lon="1.30167">
        <ele>167.55591</ele>
        <time>2013-03-24T08:07:19Z</time>
      </trkpt>
      <trkpt lat="44.82515" lon="1.30202">
        <ele>168.50659</ele>
        <time>2013-03-24T08:07:16Z</time>
      </trkpt>
      <trkpt lat="44.82522" lon="1.30233">
        <ele>169.86006</ele>
        <time>2013-03-24T08:07:13Z</time>
      </trkpt>
      <trkpt lat="44.82534" lon="1.30262">
        <ele>171.19052</ele>
        <time>2013-03-24T08:07:10Z</time>
      </trkpt>
      <trkpt lat="44.82546" lon="1.30283">
        <ele>172.11647</ele>
        <time>2013-03-24T08:07:08Z</time>
      </trkpt>
      <trkpt lat="44.82556" lon="1.30306">
        <ele>173.00705</ele>
        <time>2013-03-24T08:07:06Z</time>
      </trkpt>
      <trkpt lat="44.82573" lon="1.30336">
        <ele>174.19821</ele>
        <time>2013-03-24T08:07:03Z</time>
      </trkpt>
      <trkpt lat="44.82589" lon="1.30348">
        <ele>174.86348</ele>
        <time>2013-03-24T08:07:01Z</time>
      </trkpt>
      <trkpt lat="44.82609" lon="1.30372">
        <ele>175.5838</ele>
        <time>2013-03-24T08:06:58Z</time>
      </trkpt>
      <trkpt lat="44.82627" lon="1.30399">
        <ele>175.9505</ele>
        <time>2013-03-24T08:06:55Z</time>
      </trkpt>
      <trkpt lat="44.82651" lon="1.30417">
        <ele>175.43452</ele>
        <time>2013-03-24T08:06:52Z</time>
      </trkpt>
      <trkpt lat="44.82673" lon="1.30431">
        <ele>175.0411</ele>
        <time>2013-03-24T08:06:49Z</time>
      </trkpt>
      <trkpt lat="44.82698" lon="1.30441">
        <ele>175.00114</ele>
        <time>2013-03-24T08:06:46Z</time>
      </trkpt>
      <trkpt lat="44.82721" lon="1.30439">
        <ele>174.999</ele>
        <time>2013-03-24T08:06:43Z</time>
      </trkpt>
      <trkpt lat="44.82734" lon="1.30458">
        <ele>175.26799</ele>
        <time>2013-03-24T08:06:40Z</time>
      </trkpt>
      <trkpt lat="44.82751" lon="1.3048">
        <ele>174.84451</ele>
        <time>2013-03-24T08:06:36Z</time>
      </trkpt>
      <trkpt lat="44.82762" lon="1.30502">
        <ele>174.3049</ele>
        <time>2013-03-24T08:06:32Z</time>
      </trkpt>
      <trkpt lat="44.82779" lon="1.30523">
        <ele>172.72765</ele>
        <time>2013-03-24T08:06:27Z</time>
      </trkpt>
      <trkpt lat="44.82796" lon="1.3054">
        <ele>170.41235</ele>
        <time>2013-03-24T08:06:22Z</time>
      </trkpt>
      <trkpt lat="44.82812" lon="1.30555">
        <ele>169.42245</ele>
        <time>2013-03-24T08:06:17Z</time>
      </trkpt>
      <trkpt lat="44.82827" lon="1.30576">
        <ele>168.99689</ele>
        <time>2013-03-24T08:06:13Z</time>
      </trkpt>
      <trkpt lat="44.82846" lon="1.30595">
        <ele>168.45273</ele>
        <time>2013-03-24T08:06:08Z</time>
      </trkpt>
      <trkpt lat="44.82862" lon="1.30615">
        <ele>167.99628</ele>
        <time>2013-03-24T08:06:04Z</time>
      </trkpt>
      <trkpt lat="44.82879" lon="1.30634">
        <ele>167.2512</ele>
        <time>2013-03-24T08:06:00Z</time>
      </trkpt>
      <trkpt lat="44.82893" lon="1.30655">
        <ele>166.38898</ele>
        <time>2013-03-24T08:05:56Z</time>
      </trkpt>
      <trkpt lat="44.8291" lon="1.30667">
        <ele>166.17018</ele>
        <time>2013-03-24T08:05:53Z</time>
      </trkpt>
      <trkpt lat="44.82929" lon="1.30666">
        <ele>165.25525</ele>
        <time>2013-03-24T08:05:50Z</time>
      </trkpt>
      <trkpt lat="44.82946" lon="1.3068">
        <ele>165.77539</ele>
        <time>2013-03-24T08:05:47Z</time>
      </trkpt>
      <trkpt lat="44.82961" lon="1.30697">
        <ele>166.8824</ele>
        <time>2013-03-24T08:05:44Z</time>
      </trkpt>
      <trkpt lat="44.82979" lon="1.30709">
        <ele>167.7731</ele>
        <time>2013-03-24T08:05:41Z</time>
      </trkpt>
      <trkpt lat="44.82994" lon="1.30724">
        <ele>168.32143</ele>
        <time>2013-03-24T08:05:38Z</time>
      </trkpt>
      <trkpt lat="44.83013" lon="1.30736">
        <ele>169.17673</ele>
        <time>2013-03-24T08:05:35Z</time>
      </trkpt>
      <trkpt lat="44.8303" lon="1.30746">
        <ele>169.53743</ele>
        <time>2013-03-24T08:05:32Z</time>
      </trkpt>
      <trkpt lat="44.83045" lon="1.30767">
        <ele>169.97261</ele>
        <time>2013-03-24T08:05:28Z</time>
      </trkpt>
      <trkpt lat="44.83061" lon="1.30792">
        <ele>169.75172</ele>
        <time>2013-03-24T08:05:24Z</time>
      </trkpt>
      <trkpt lat="44.83076" lon="1.30807">
        <ele>169.35222</ele>
        <time>2013-03-24T08:05:21Z</time>
      </trkpt>
      <trkpt lat="44.83095" lon="1.30824">
        <ele>169.03912</ele>
        <time>2013-03-24T08:05:17Z</time>
      </trkpt>
      <trkpt lat="44.83113" lon="1.3083">
        <ele>167.08162</ele>
        <time>2013-03-24T08:05:14Z</time>
      </trkpt>
      <trkpt lat="44.83123" lon="1.30852">
        <ele>165.55302</ele>
        <time>2013-03-24T08:05:09Z</time>
      </trkpt>
      <trkpt lat="44.83124" lon="1.30881">
        <ele>163.56131</ele>
        <time>2013-03-24T08:05:04Z</time>
      </trkpt>
      <trkpt lat="44.83124" lon="1.30911">
        <ele>161.5735</ele>
        <time>2013-03-24T08:04:57Z</time>
      </trkpt>
      <trkpt lat="44.83132" lon="1.30938">
        <ele>161.70518</ele>
        <time>2013-03-24T08:04:52Z</time>
      </trkpt>
      <trkpt lat="44.8314" lon="1.30963">
        <ele>161.64778</ele>
        <time>2013-03-24T08:04:47Z</time>
      </trkpt>
      <trkpt lat="44.83147" lon="1.30987">
        <ele>161.08902</ele>
        <time>2013-03-24T08:04:42Z</time>
      </trkpt>
      <trkpt lat="44.83155" lon="1.31011">
        <ele>161.32333</ele>
        <time>2013-03-24T08:04:38Z</time>
      </trkpt>
      <trkpt lat="44.83167" lon="1.31031">
        <ele>161.98483</ele>
        <time>2013-03-24T08:04:34Z</time>
      </trkpt>
      <trkpt lat="44.83184" lon="1.3104">
        <ele>162.578</ele>
        <time>2013-03-24T08:04:30Z</time>
      </trkpt>
      <trkpt lat="44.83203" lon="1.31043">
        <ele>163.16988</ele>
        <time>2013-03-24T08:04:25Z</time>
      </trkpt>
      <trkpt lat="44.83223" lon="1.31041">
        <ele>162.97147</ele>
        <time>2013-03-24T08:04:21Z</time>
      </trkpt>
      <trkpt lat="44.83243" lon="1.31038">
        <ele>161.62338</ele>
        <time>2013-03-24T08:04:16Z</time>
      </trkpt>
      <trkpt lat="44.83263" lon="1.31039">
        <ele>157.29527</ele>
        <time>2013-03-24T08:04:09Z</time>
      </trkpt>
      <trkpt lat="44.83282" lon="1.31031">
        <ele>155.82669</ele>
        <time>2013-03-24T08:04:03Z</time>
      </trkpt>
      <trkpt lat="44.83301" lon="1.31026">
        <ele>154.86557</ele>
        <time>2013-03-24T08:03:58Z</time>
      </trkpt>
      <trkpt lat="44.8332" lon="1.31023">
        <ele>154.24913</ele>
        <time>2013-03-24T08:03:53Z</time>
      </trkpt>
      <trkpt lat="44.83338" lon="1.31019">
        <ele>153.48439</ele>
        <time>2013-03-24T08:03:48Z</time>
      </trkpt>
      <trkpt lat="44.83358" lon="1.31018">
        <ele>152.01463</ele>
        <time>2013-03-24T08:03:42Z</time>
      </trkpt>
      <trkpt lat="44.83376" lon="1.31015">
        <ele>151.70918</ele>
        <time>2013-03-24T08:03:38Z</time>
      </trkpt>
      <trkpt lat="44.83394" lon="1.31024">
        <ele>149.96959</ele>
        <time>2013-03-24T08:03:33Z</time>
      </trkpt>
      <trkpt lat="44.83411" lon="1.31034">
        <ele>148.0328</ele>
        <time>2013-03-24T08:03:27Z</time>
      </trkpt>
      <trkpt lat="44.83431" lon="1.31041">
        <ele>145.889</ele>
        <time>2013-03-24T08:03:21Z</time>
      </trkpt>
      <trkpt lat="44.83451" lon="1.31047">
        <ele>143.73022</ele>
        <time>2013-03-24T08:03:16Z</time>
      </trkpt>
      <trkpt lat="44.83471" lon="1.3105">
        <ele>142.32268</ele>
        <time>2013-03-24T08:03:12Z</time>
      </trkpt>
      <trkpt lat="44.8349" lon="1.31059">
        <ele>142.2087</ele>
        <time>2013-03-24T08:03:08Z</time>
      </trkpt>
      <trkpt lat="44.8351" lon="1.3106">
        <ele>141.9102</ele>
        <time>2013-03-24T08:03:04Z</time>
      </trkpt>
      <trkpt lat="44.83527" lon="1.31053">
        <ele>140.9316</ele>
        <time>2013-03-24T08:03:01Z</time>
      </trkpt>
      <trkpt lat="44.83548" lon="1.31045">
        <ele>140.8823</ele>
        <time>2013-03-24T08:02:58Z</time>
      </trkpt>
      <trkpt lat="44.8357" lon="1.31046">
        <ele>140.74323</ele>
        <time>2013-03-24T08:02:55Z</time>
      </trkpt>
      <trkpt lat="44.83588" lon="1.31048">
        <ele>140.56172</ele>
        <time>2013-03-24T08:02:52Z</time>
      </trkpt>
      <trkpt lat="44.83608" lon="1.3105">
        <ele>140.58336</ele>
        <time>2013-03-24T08:02:49Z</time>
      </trkpt>
      <trkpt lat="44.83627" lon="1.31051">
        <ele>140.67906</ele>
        <time>2013-03-24T08:02:46Z</time>
      </trkpt>
      <trkpt lat="44.83648" lon="1.31055">
        <ele>139.94298</ele>
        <time>2013-03-24T08:02:43Z</time>
      </trkpt>
      <trkpt lat="44.83669" lon="1.31055">
        <ele>138.30185</ele>
        <time>2013-03-24T08:02:40Z</time>
      </trkpt>
      <trkpt lat="44.8369" lon="1.31054">
        <ele>136.76366</ele>
        <time>2013-03-24T08:02:37Z</time>
      </trkpt>
      <trkpt lat="44.83711" lon="1.31052">
        <ele>135.18794</ele>
        <time>2013-03-24T08:02:34Z</time>
      </trkpt>
      <trkpt lat="44.83736" lon="1.31052">
        <ele>133.82236</ele>
        <time>2013-03-24T08:02:30Z</time>
      </trkpt>
      <trkpt lat="44.83755" lon="1.31058">
        <ele>133.02252</ele>
        <time>2013-03-24T08:02:26Z</time>
      </trkpt>
      <trkpt lat="44.83773" lon="1.3107">
        <ele>132.72006</ele>
        <time>2013-03-24T08:02:23Z</time>
      </trkpt>
      <trkpt lat="44.83789" lon="1.31086">
        <ele>132.72165</ele>
        <time>2013-03-24T08:02:20Z</time>
      </trkpt>
      <trkpt lat="44.83807" lon="1.31102">
        <ele>132.75871</ele>
        <time>2013-03-24T08:02:17Z</time>
      </trkpt>
      <trkpt lat="44.83827" lon="1.31121">
        <ele>133.15768</ele>
        <time>2013-03-24T08:02:14Z</time>
      </trkpt>
      <trkpt lat="44.83844" lon="1.31139">
        <ele>133.23674</ele>
        <time>2013-03-24T08:02:11Z</time>
      </trkpt>
      <trkpt lat="44.83858" lon="1.31158">
        <ele>133.65004</ele>
        <time>2013-03-24T08:02:08Z</time>
      </trkpt>
      <trkpt lat="44.83877" lon="1.31177">
        <ele>134.06676</ele>
        <time>2013-03-24T08:02:05Z</time>
      </trkpt>
      <trkpt lat="44.83886" lon="1.31204">
        <ele>134.26935</ele>
        <time>2013-03-24T08:02:02Z</time>
      </trkpt>
      <trkpt lat="44.83904" lon="1.31229">
        <ele>134.64217</ele>
        <time>2013-03-24T08:01:59Z</time>
      </trkpt>
      <trkpt lat="44.83919" lon="1.31253">
        <ele>134.6481</ele>
        <time>2013-03-24T08:01:56Z</time>
      </trkpt>
      <trkpt lat="44.83929" lon="1.3128">
        <ele>134.48808</ele>
        <time>2013-03-24T08:01:53Z</time>
      </trkpt>
      <trkpt lat="44.83941" lon="1.31306">
        <ele>134.19397</ele>
        <time>2013-03-24T08:01:50Z</time>
      </trkpt>
      <trkpt lat="44.83956" lon="1.31331">
        <ele>134.17459</ele>
        <time>2013-03-24T08:01:47Z</time>
      </trkpt>
      <trkpt lat="44.83963" lon="1.3136">
        <ele>133.88051</ele>
        <time>2013-03-24T08:01:44Z</time>
      </trkpt>
      <trkpt lat="44.83973" lon="1.31388">
        <ele>133.5649</ele>
        <time>2013-03-24T08:01:41Z</time>
      </trkpt>
      <trkpt lat="44.83983" lon="1.31414">
        <ele>133.57607</ele>
        <time>2013-03-24T08:01:38Z</time>
      </trkpt>
      <trkpt lat="44.83993" lon="1.31442">
        <ele>133.76178</ele>
        <time>2013-03-24T08:01:35Z</time>
      </trkpt>
      <trkpt lat="44.84003" lon="1.31474">
        <ele>133.96497</ele>
        <time>2013-03-24T08:01:32Z</time>
      </trkpt>
      <trkpt lat="44.84009" lon="1.31508">
        <ele>134.3503</ele>
        <time>2013-03-24T08:01:29Z</time>
      </trkpt>
      <trkpt lat="44.84021" lon="1.31533">
        <ele>135.1933</ele>
        <time>2013-03-24T08:01:26Z</time>
      </trkpt>
      <trkpt lat="44.84036" lon="1.31554">
        <ele>135.99892</ele>
        <time>2013-03-24T08:01:23Z</time>
      </trkpt>
      <trkpt lat="44.84054" lon="1.31573">
        <ele>135.82335</ele>
        <time>2013-03-24T08:01:20Z</time>
      </trkpt>
      <trkpt lat="44.84073" lon="1.31591">
        <ele>134.8961</ele>
        <time>2013-03-24T08:01:17Z</time>
      </trkpt>
      <trkpt lat="44.84095" lon="1.31601">
        <ele>134.46114</ele>
        <time>2013-03-24T08:01:14Z</time>
      </trkpt>
      <trkpt lat="44.84113" lon="1.31613">
        <ele>133.41158</ele>
        <time>2013-03-24T08:01:11Z</time>
      </trkpt>
      <trkpt lat="44.84132" lon="1.31617">
        <ele>132.38301</ele>
        <time>2013-03-24T08:01:08Z</time>
      </trkpt>
      <trkpt lat="44.8415" lon="1.31623">
        <ele>131.77824</ele>
        <time>2013-03-24T08:01:05Z</time>
      </trkpt>
      <trkpt lat="44.84167" lon="1.3164">
        <ele>131.63362</ele>
        <time>2013-03-24T08:01:02Z</time>
      </trkpt>
      <trkpt lat="44.84186" lon="1.31654">
        <ele>131.94266</ele>
        <time>2013-03-24T08:00:59Z</time>
      </trkpt>
      <trkpt lat="44.84196" lon="1.31684">
        <ele>132.76408</ele>
        <time>2013-03-24T08:00:56Z</time>
      </trkpt>
      <trkpt lat="44.84209" lon="1.31714">
        <ele>133.36671</ele>
        <time>2013-03-24T08:00:53Z</time>
      </trkpt>
      <trkpt lat="44.84222" lon="1.31741">
        <ele>133.77296</ele>
        <time>2013-03-24T08:00:50Z</time>
      </trkpt>
      <trkpt lat="44.84234" lon="1.31766">
        <ele>134.58778</ele>
        <time>2013-03-24T08:00:47Z</time>
      </trkpt>
      <trkpt lat="44.84244" lon="1.31796">
        <ele>135.31549</ele>
        <time>2013-03-24T08:00:44Z</time>
      </trkpt>
      <trkpt lat="44.84249" lon="1.3183">
        <ele>135.35522</ele>
        <time>2013-03-24T08:00:41Z</time>
      </trkpt>
      <trkpt lat="44.84255" lon="1.31861">
        <ele>135.05682</ele>
        <time>2013-03-24T08:00:38Z</time>
      </trkpt>
      <trkpt lat="44.84261" lon="1.31895">
        <ele>134.97171</ele>
        <time>2013-03-24T08:00:35Z</time>
      </trkpt>
      <trkpt lat="44.84264" lon="1.31928">
        <ele>134.39221</ele>
        <time>2013-03-24T08:00:32Z</time>
      </trkpt>
      <trkpt lat="44.84265" lon="1.31958">
        <ele>134.32227</ele>
        <time>2013-03-24T08:00:29Z</time>
      </trkpt>
      <trkpt lat="44.84269" lon="1.31988">
        <ele>134.38612</ele>
        <time>2013-03-24T08:00:26Z</time>
      </trkpt>
      <trkpt lat="44.84274" lon="1.32017">
        <ele>134.58562</ele>
        <time>2013-03-24T08:00:23Z</time>
      </trkpt>
      <trkpt lat="44.84275" lon="1.32048">
        <ele>134.43256</ele>
        <time>2013-03-24T08:00:20Z</time>
      </trkpt>
      <trkpt lat="44.84281" lon="1.32078">
        <ele>134.58089</ele>
        <time>2013-03-24T08:00:17Z</time>
      </trkpt>
      <trkpt lat="44.84286" lon="1.3211">
        <ele>134.82506</ele>
        <time>2013-03-24T08:00:14Z</time>
      </trkpt>
      <trkpt lat="44.84287" lon="1.32139">
        <ele>134.90755</ele>
        <time>2013-03-24T08:00:11Z</time>
      </trkpt>
      <trkpt lat="44.84291" lon="1.32169">
        <ele>135.46974</ele>
        <time>2013-03-24T08:00:08Z</time>
      </trkpt>
      <trkpt lat="44.84296" lon="1.32203">
        <ele>135.62085</ele>
        <time>2013-03-24T08:00:05Z</time>
      </trkpt>
      <trkpt lat="44.84307" lon="1.32231">
        <ele>135.26794</ele>
        <time>2013-03-24T08:00:02Z</time>
      </trkpt>
      <trkpt lat="44.8431" lon="1.3226">
        <ele>134.74625</ele>
        <time>2013-03-24T07:59:59Z</time>
      </trkpt>
      <trkpt lat="44.84312" lon="1.3229">
        <ele>134.05777</ele>
        <time>2013-03-24T07:59:56Z</time>
      </trkpt>
      <trkpt lat="44.84316" lon="1.32321">
        <ele>133.74803</ele>
        <time>2013-03-24T07:59:53Z</time>
      </trkpt>
      <trkpt lat="44.84318" lon="1.32351">
        <ele>133.52126</ele>
        <time>2013-03-24T07:59:50Z</time>
      </trkpt>
      <trkpt lat="44.84322" lon="1.32382">
        <ele>132.6726</ele>
        <time>2013-03-24T07:59:47Z</time>
      </trkpt>
      <trkpt lat="44.84321" lon="1.32416">
        <ele>132.4462</ele>
        <time>2013-03-24T07:59:44Z</time>
      </trkpt>
      <trkpt lat="44.84327" lon="1.32448">
        <ele>132.77246</ele>
        <time>2013-03-24T07:59:41Z</time>
      </trkpt>
      <trkpt lat="44.84331" lon="1.32478">
        <ele>132.39026</ele>
        <time>2013-03-24T07:59:38Z</time>
      </trkpt>
      <trkpt lat="44.84339" lon="1.32504">
        <ele>131.92506</ele>
        <time>2013-03-24T07:59:35Z</time>
      </trkpt>
      <trkpt lat="44.84345" lon="1.3253">
        <ele>131.60387</ele>
        <time>2013-03-24T07:59:32Z</time>
      </trkpt>
      <trkpt lat="44.84349" lon="1.32559">
        <ele>131.24619</ele>
        <time>2013-03-24T07:59:29Z</time>
      </trkpt>
      <trkpt lat="44.84351" lon="1.32588">
        <ele>131.0243</ele>
        <time>2013-03-24T07:59:26Z</time>
      </trkpt>
      <trkpt lat="44.84353" lon="1.32617">
        <ele>130.67613</ele>
        <time>2013-03-24T07:59:23Z</time>
      </trkpt>
      <trkpt lat="44.84359" lon="1.32647">
        <ele>130.59529</ele>
        <time>2013-03-24T07:59:20Z</time>
      </trkpt>
      <trkpt lat="44.84365" lon="1.32677">
        <ele>130.54808</ele>
        <time>2013-03-24T07:59:17Z</time>
      </trkpt>
      <trkpt lat="44.84372" lon="1.32703">
        <ele>131.19176</ele>
        <time>2013-03-24T07:59:14Z</time>
      </trkpt>
      <trkpt lat="44.84376" lon="1.32736">
        <ele>131.79897</ele>
        <time>2013-03-24T07:59:11Z</time>
      </trkpt>
      <trkpt lat="44.84377" lon="1.32765">
        <ele>132.11237</ele>
        <time>2013-03-24T07:59:08Z</time>
      </trkpt>
      <trkpt lat="44.84376" lon="1.32796">
        <ele>131.70338</ele>
        <time>2013-03-24T07:59:05Z</time>
      </trkpt>
      <trkpt lat="44.84373" lon="1.32826">
        <ele>131.29692</ele>
        <time>2013-03-24T07:59:02Z</time>
      </trkpt>
      <trkpt lat="44.84367" lon="1.32854">
        <ele>130.61862</ele>
        <time>2013-03-24T07:58:59Z</time>
      </trkpt>
      <trkpt lat="44.8436" lon="1.32883">
        <ele>130.296</ele>
        <time>2013-03-24T07:58:56Z</time>
      </trkpt>
      <trkpt lat="44.84358" lon="1.32911">
        <ele>130.63869</ele>
        <time>2013-03-24T07:58:53Z</time>
      </trkpt>
      <trkpt lat="44.84366" lon="1.3294">
        <ele>131.14726</ele>
        <time>2013-03-24T07:58:50Z</time>
      </trkpt>
      <trkpt lat="44.84376" lon="1.32966">
        <ele>131.54166</ele>
        <time>2013-03-24T07:58:47Z</time>
      </trkpt>
      <trkpt lat="44.8439" lon="1.32988">
        <ele>132.20616</ele>
        <time>2013-03-24T07:58:44Z</time>
      </trkpt>
      <trkpt lat="44.84403" lon="1.33016">
        <ele>133.30719</ele>
        <time>2013-03-24T07:58:41Z</time>
      </trkpt>
      <trkpt lat="44.84415" lon="1.33041">
        <ele>133.1689</ele>
        <time>2013-03-24T07:58:38Z</time>
      </trkpt>
      <trkpt lat="44.84431" lon="1.33064">
        <ele>133.71886</ele>
        <time>2013-03-24T07:58:35Z</time>
      </trkpt>
      <trkpt lat="44.84441" lon="1.33094">
        <ele>133.87433</ele>
        <time>2013-03-24T07:58:32Z</time>
      </trkpt>
      <trkpt lat="44.84454" lon="1.33123">
        <ele>133.94284</ele>
        <time>2013-03-24T07:58:29Z</time>
      </trkpt>
      <trkpt lat="44.84463" lon="1.3315">
        <ele>133.49045</ele>
        <time>2013-03-24T07:58:26Z</time>
      </trkpt>
      <trkpt lat="44.8447" lon="1.33181">
        <ele>133.3144</ele>
        <time>2013-03-24T07:58:23Z</time>
      </trkpt>
      <trkpt lat="44.84475" lon="1.33211">
        <ele>133.32675</ele>
        <time>2013-03-24T07:58:20Z</time>
      </trkpt>
      <trkpt lat="44.84481" lon="1.33239">
        <ele>133.41154</ele>
        <time>2013-03-24T07:58:17Z</time>
      </trkpt>
      <trkpt lat="44.84487" lon="1.33267">
        <ele>133.0533</ele>
        <time>2013-03-24T07:58:14Z</time>
      </trkpt>
      <trkpt lat="44.84496" lon="1.33297">
        <ele>132.693</ele>
        <time>2013-03-24T07:58:11Z</time>
      </trkpt>
      <trkpt lat="44.84504" lon="1.33322">
        <ele>132.70932</ele>
        <time>2013-03-24T07:58:08Z</time>
      </trkpt>
      <trkpt lat="44.8451" lon="1.33349">
        <ele>132.83319</ele>
        <time>2013-03-24T07:58:05Z</time>
      </trkpt>
      <trkpt lat="44.84516" lon="1.33377">
        <ele>132.57498</ele>
        <time>2013-03-24T07:58:02Z</time>
      </trkpt>
      <trkpt lat="44.84523" lon="1.33404">
        <ele>132.42218</ele>
        <time>2013-03-24T07:57:59Z</time>
      </trkpt>
      <trkpt lat="44.8453" lon="1.33432">
        <ele>131.9711</ele>
        <time>2013-03-24T07:57:56Z</time>
      </trkpt>
      <trkpt lat="44.84535" lon="1.33461">
        <ele>132.00186</ele>
        <time>2013-03-24T07:57:53Z</time>
      </trkpt>
      <trkpt lat="44.84539" lon="1.33491">
        <ele>132.11923</ele>
        <time>2013-03-24T07:57:50Z</time>
      </trkpt>
      <trkpt lat="44.84541" lon="1.33521">
        <ele>132.53079</ele>
        <time>2013-03-24T07:57:47Z</time>
      </trkpt>
      <trkpt lat="44.84536" lon="1.33553">
        <ele>132.44705</ele>
        <time>2013-03-24T07:57:44Z</time>
      </trkpt>
      <trkpt lat="44.84533" lon="1.33584">
        <ele>132.65598</ele>
        <time>2013-03-24T07:57:41Z</time>
      </trkpt>
      <trkpt lat="44.84531" lon="1.33612">
        <ele>133.19563</ele>
        <time>2013-03-24T07:57:38Z</time>
      </trkpt>
      <trkpt lat="44.84532" lon="1.33644">
        <ele>133.40446</ele>
        <time>2013-03-24T07:57:35Z</time>
      </trkpt>
      <trkpt lat="44.84536" lon="1.33673">
        <ele>133.30688</ele>
        <time>2013-03-24T07:57:32Z</time>
      </trkpt>
      <trkpt lat="44.84544" lon="1.33704">
        <ele>132.86816</ele>
        <time>2013-03-24T07:57:29Z</time>
      </trkpt>
      <trkpt lat="44.84552" lon="1.33733">
        <ele>132.1875</ele>
        <time>2013-03-24T07:57:26Z</time>
      </trkpt>
      <trkpt lat="44.84562" lon="1.33761">
        <ele>132.61482</ele>
        <time>2013-03-24T07:57:23Z</time>
      </trkpt>
      <trkpt lat="44.8457" lon="1.3379">
        <ele>133.03514</ele>
        <time>2013-03-24T07:57:20Z</time>
      </trkpt>
      <trkpt lat="44.84582" lon="1.33819">
        <ele>133.40923</ele>
        <time>2013-03-24T07:57:17Z</time>
      </trkpt>
      <trkpt lat="44.8459" lon="1.33846">
        <ele>133.74039</ele>
        <time>2013-03-24T07:57:14Z</time>
      </trkpt>
      <trkpt lat="44.84595" lon="1.33878">
        <ele>133.67351</ele>
        <time>2013-03-24T07:57:11Z</time>
      </trkpt>
      <trkpt lat="44.84598" lon="1.33908">
        <ele>133.69644</ele>
        <time>2013-03-24T07:57:08Z</time>
      </trkpt>
      <trkpt lat="44.84601" lon="1.33939">
        <ele>133.66565</ele>
        <time>2013-03-24T07:57:05Z</time>
      </trkpt>
      <trkpt lat="44.84602" lon="1.33968">
        <ele>133.19264</ele>
        <time>2013-03-24T07:57:02Z</time>
      </trkpt>
      <trkpt lat="44.84602" lon="1.33999">
        <ele>133.04182</ele>
        <time>2013-03-24T07:56:59Z</time>
      </trkpt>
      <trkpt lat="44.84606" lon="1.34028">
        <ele>132.94728</ele>
        <time>2013-03-24T07:56:56Z</time>
      </trkpt>
      <trkpt lat="44.84608" lon="1.34059">
        <ele>133.08615</ele>
        <time>2013-03-24T07:56:53Z</time>
      </trkpt>
      <trkpt lat="44.84611" lon="1.3409">
        <ele>133.12645</ele>
        <time>2013-03-24T07:56:50Z</time>
      </trkpt>
      <trkpt lat="44.84613" lon="1.34123">
        <ele>132.83676</ele>
        <time>2013-03-24T07:56:47Z</time>
      </trkpt>
      <trkpt lat="44.84613" lon="1.34155">
        <ele>132.43158</ele>
        <time>2013-03-24T07:56:44Z</time>
      </trkpt>
      <trkpt lat="44.84614" lon="1.34184">
        <ele>132.83041</ele>
        <time>2013-03-24T07:56:41Z</time>
      </trkpt>
      <trkpt lat="44.84618" lon="1.34214">
        <ele>133.26099</ele>
        <time>2013-03-24T07:56:38Z</time>
      </trkpt>
      <trkpt lat="44.84623" lon="1.34244">
        <ele>134.13715</ele>
        <time>2013-03-24T07:56:35Z</time>
      </trkpt>
      <trkpt lat="44.84628" lon="1.34276">
        <ele>134.80287</ele>
        <time>2013-03-24T07:56:32Z</time>
      </trkpt>
      <trkpt lat="44.84631" lon="1.34308">
        <ele>134.85124</ele>
        <time>2013-03-24T07:56:29Z</time>
      </trkpt>
      <trkpt lat="44.84631" lon="1.34341">
        <ele>134.07332</ele>
        <time>2013-03-24T07:56:26Z</time>
      </trkpt>
      <trkpt lat="44.84631" lon="1.34373">
        <ele>133.61452</ele>
        <time>2013-03-24T07:56:23Z</time>
      </trkpt>
      <trkpt lat="44.84631" lon="1.34406">
        <ele>133.66406</ele>
        <time>2013-03-24T07:56:20Z</time>
      </trkpt>
      <trkpt lat="44.84631" lon="1.34439">
        <ele>134.25554</ele>
        <time>2013-03-24T07:56:17Z</time>
      </trkpt>
      <trkpt lat="44.84632" lon="1.34472">
        <ele>134.44647</ele>
        <time>2013-03-24T07:56:14Z</time>
      </trkpt>
      <trkpt lat="44.84636" lon="1.34505">
        <ele>134.89534</ele>
        <time>2013-03-24T07:56:11Z</time>
      </trkpt>
      <trkpt lat="44.84639" lon="1.34535">
        <ele>134.78525</ele>
        <time>2013-03-24T07:56:08Z</time>
      </trkpt>
      <trkpt lat="44.84645" lon="1.34566">
        <ele>135.3169</ele>
        <time>2013-03-24T07:56:05Z</time>
      </trkpt>
      <trkpt lat="44.84651" lon="1.34597">
        <ele>135.79561</ele>
        <time>2013-03-24T07:56:02Z</time>
      </trkpt>
      <trkpt lat="44.84659" lon="1.34626">
        <ele>136.63774</ele>
        <time>2013-03-24T07:55:59Z</time>
      </trkpt>
      <trkpt lat="44.84666" lon="1.34655">
        <ele>136.69316</ele>
        <time>2013-03-24T07:55:56Z</time>
      </trkpt>
      <trkpt lat="44.84672" lon="1.34685">
        <ele>136.67638</ele>
        <time>2013-03-24T07:55:53Z</time>
      </trkpt>
      <trkpt lat="44.84678" lon="1.34716">
        <ele>136.46251</ele>
        <time>2013-03-24T07:55:50Z</time>
      </trkpt>
      <trkpt lat="44.84682" lon="1.34744">
        <ele>137.04446</ele>
        <time>2013-03-24T07:55:47Z</time>
      </trkpt>
      <trkpt lat="44.8468" lon="1.34775">
        <ele>137.45355</ele>
        <time>2013-03-24T07:55:44Z</time>
      </trkpt>
      <trkpt lat="44.84681" lon="1.34807">
        <ele>138.0751</ele>
        <time>2013-03-24T07:55:41Z</time>
      </trkpt>
      <trkpt lat="44.8468" lon="1.34838">
        <ele>138.54468</ele>
        <time>2013-03-24T07:55:38Z</time>
      </trkpt>
      <trkpt lat="44.84679" lon="1.34874">
        <ele>138.46889</ele>
        <time>2013-03-24T07:55:35Z</time>
      </trkpt>
      <trkpt lat="44.84677" lon="1.34909">
        <ele>138.20772</ele>
        <time>2013-03-24T07:55:32Z</time>
      </trkpt>
      <trkpt lat="44.84673" lon="1.34942">
        <ele>138.03311</ele>
        <time>2013-03-24T07:55:29Z</time>
      </trkpt>
      <trkpt lat="44.84672" lon="1.34977">
        <ele>137.37106</ele>
        <time>2013-03-24T07:55:26Z</time>
      </trkpt>
      <trkpt lat="44.84668" lon="1.35006">
        <ele>136.63884</ele>
        <time>2013-03-24T07:55:23Z</time>
      </trkpt>
      <trkpt lat="44.84672" lon="1.35037">
        <ele>136.37723</ele>
        <time>2013-03-24T07:55:20Z</time>
      </trkpt>
      <trkpt lat="44.84669" lon="1.35068">
        <ele>135.56085</ele>
        <time>2013-03-24T07:55:17Z</time>
      </trkpt>
      <trkpt lat="44.84669" lon="1.35099">
        <ele>134.99979</ele>
        <time>2013-03-24T07:55:14Z</time>
      </trkpt>
      <trkpt lat="44.84674" lon="1.35128">
        <ele>134.92172</ele>
        <time>2013-03-24T07:55:11Z</time>
      </trkpt>
      <trkpt lat="44.8468" lon="1.35155">
        <ele>134.66632</ele>
        <time>2013-03-24T07:55:08Z</time>
      </trkpt>
      <trkpt lat="44.84689" lon="1.35177">
        <ele>134.63867</ele>
        <time>2013-03-24T07:55:05Z</time>
      </trkpt>
      <trkpt lat="44.84704" lon="1.352">
        <ele>134.3321</ele>
        <time>2013-03-24T07:55:01Z</time>
      </trkpt>
      <trkpt lat="44.84718" lon="1.35221">
        <ele>133.94647</ele>
        <time>2013-03-24T07:54:58Z</time>
      </trkpt>
      <trkpt lat="44.8473" lon="1.3524">
        <ele>133.67311</ele>
        <time>2013-03-24T07:54:55Z</time>
      </trkpt>
      <trkpt lat="44.84745" lon="1.3526">
        <ele>133.19923</ele>
        <time>2013-03-24T07:54:52Z</time>
      </trkpt>
      <trkpt lat="44.84757" lon="1.35279">
        <ele>133.1019</ele>
        <time>2013-03-24T07:54:49Z</time>
      </trkpt>
      <trkpt lat="44.84767" lon="1.35305">
        <ele>133.13411</ele>
        <time>2013-03-24T07:54:46Z</time>
      </trkpt>
      <trkpt lat="44.84778" lon="1.35331">
        <ele>133.34012</ele>
        <time>2013-03-24T07:54:43Z</time>
      </trkpt>
      <trkpt lat="44.8479" lon="1.35353">
        <ele>133.3951</ele>
        <time>2013-03-24T07:54:40Z</time>
      </trkpt>
      <trkpt lat="44.84799" lon="1.35378">
        <ele>133.65504</ele>
        <time>2013-03-24T07:54:37Z</time>
      </trkpt>
      <trkpt lat="44.84808" lon="1.35405">
        <ele>133.33789</ele>
        <time>2013-03-24T07:54:34Z</time>
      </trkpt>
      <trkpt lat="44.84819" lon="1.35434">
        <ele>133.01202</ele>
        <time>2013-03-24T07:54:31Z</time>
      </trkpt>
      <trkpt lat="44.84826" lon="1.35462">
        <ele>133.09146</ele>
        <time>2013-03-24T07:54:28Z</time>
      </trkpt>
      <trkpt lat="44.84831" lon="1.35491">
        <ele>133.17606</ele>
        <time>2013-03-24T07:54:25Z</time>
      </trkpt>
      <trkpt lat="44.84839" lon="1.35519">
        <ele>133.8951</ele>
        <time>2013-03-24T07:54:22Z</time>
      </trkpt>
      <trkpt lat="44.84847" lon="1.35548">
        <ele>134.50317</ele>
        <time>2013-03-24T07:54:19Z</time>
      </trkpt>
      <trkpt lat="44.84854" lon="1.35576">
        <ele>134.74457</ele>
        <time>2013-03-24T07:54:16Z</time>
      </trkpt>
      <trkpt lat="44.84859" lon="1.35603">
        <ele>134.90565</ele>
        <time>2013-03-24T07:54:13Z</time>
      </trkpt>
      <trkpt lat="44.84868" lon="1.35632">
        <ele>135.04303</ele>
        <time>2013-03-24T07:54:10Z</time>
      </trkpt>
      <trkpt lat="44.84876" lon="1.35658">
        <ele>135.13533</ele>
        <time>2013-03-24T07:54:07Z</time>
      </trkpt>
      <trkpt lat="44.84884" lon="1.35685">
        <ele>135.47632</ele>
        <time>2013-03-24T07:54:04Z</time>
      </trkpt>
      <trkpt lat="44.84895" lon="1.3571">
        <ele>135.1624</ele>
        <time>2013-03-24T07:54:01Z</time>
      </trkpt>
      <trkpt lat="44.84902" lon="1.35737">
        <ele>135.30347</ele>
        <time>2013-03-24T07:53:58Z</time>
      </trkpt>
      <trkpt lat="44.84912" lon="1.35763">
        <ele>134.85266</ele>
        <time>2013-03-24T07:53:55Z</time>
      </trkpt>
      <trkpt lat="44.84922" lon="1.35787">
        <ele>133.97668</ele>
        <time>2013-03-24T07:53:52Z</time>
      </trkpt>
      <trkpt lat="44.84932" lon="1.35811">
        <ele>133.69656</ele>
        <time>2013-03-24T07:53:49Z</time>
      </trkpt>
      <trkpt lat="44.84945" lon="1.35833">
        <ele>133.36594</ele>
        <time>2013-03-24T07:53:46Z</time>
      </trkpt>
      <trkpt lat="44.84959" lon="1.3585">
        <ele>133.17482</ele>
        <time>2013-03-24T07:53:43Z</time>
      </trkpt>
      <trkpt lat="44.84977" lon="1.35867">
        <ele>133.78476</ele>
        <time>2013-03-24T07:53:40Z</time>
      </trkpt>
      <trkpt lat="44.84996" lon="1.35882">
        <ele>134.62314</ele>
        <time>2013-03-24T07:53:37Z</time>
      </trkpt>
      <trkpt lat="44.85013" lon="1.35897">
        <ele>135.07706</ele>
        <time>2013-03-24T07:53:34Z</time>
      </trkpt>
      <trkpt lat="44.85031" lon="1.35915">
        <ele>135.29005</ele>
        <time>2013-03-24T07:53:31Z</time>
      </trkpt>
      <trkpt lat="44.8505" lon="1.35929">
        <ele>134.73567</ele>
        <time>2013-03-24T07:53:28Z</time>
      </trkpt>
      <trkpt lat="44.85071" lon="1.35943">
        <ele>134.07716</ele>
        <time>2013-03-24T07:53:25Z</time>
      </trkpt>
      <trkpt lat="44.8509" lon="1.35956">
        <ele>134.04958</ele>
        <time>2013-03-24T07:53:22Z</time>
      </trkpt>
      <trkpt lat="44.85112" lon="1.35963">
        <ele>133.82492</ele>
        <time>2013-03-24T07:53:19Z</time>
      </trkpt>
      <trkpt lat="44.85131" lon="1.35975">
        <ele>133.91832</ele>
        <time>2013-03-24T07:53:16Z</time>
      </trkpt>
      <trkpt lat="44.85151" lon="1.35988">
        <ele>133.87305</ele>
        <time>2013-03-24T07:53:13Z</time>
      </trkpt>
      <trkpt lat="44.85171" lon="1.36">
        <ele>133.64352</ele>
        <time>2013-03-24T07:53:10Z</time>
      </trkpt>
      <trkpt lat="44.85192" lon="1.36009">
        <ele>133.35501</ele>
        <time>2013-03-24T07:53:07Z</time>
      </trkpt>
      <trkpt lat="44.85211" lon="1.36017">
        <ele>133.28966</ele>
        <time>2013-03-24T07:53:04Z</time>
      </trkpt>
      <trkpt lat="44.85227" lon="1.3603">
        <ele>132.85324</ele>
        <time>2013-03-24T07:53:01Z</time>
      </trkpt>
      <trkpt lat="44.85248" lon="1.36036">
        <ele>132.17807</ele>
        <time>2013-03-24T07:52:58Z</time>
      </trkpt>
      <trkpt lat="44.85271" lon="1.36039">
        <ele>132.58875</ele>
        <time>2013-03-24T07:52:55Z</time>
      </trkpt>
      <trkpt lat="44.85291" lon="1.36053">
        <ele>133.27702</ele>
        <time>2013-03-24T07:52:52Z</time>
      </trkpt>
      <trkpt lat="44.85312" lon="1.36065">
        <ele>134.10109</ele>
        <time>2013-03-24T07:52:49Z</time>
      </trkpt>
      <trkpt lat="44.85331" lon="1.3608">
        <ele>134.8211</ele>
        <time>2013-03-24T07:52:46Z</time>
      </trkpt>
      <trkpt lat="44.85351" lon="1.36088">
        <ele>135.40556</ele>
        <time>2013-03-24T07:52:43Z</time>
      </trkpt>
      <trkpt lat="44.8537" lon="1.36102">
        <ele>136.40208</ele>
        <time>2013-03-24T07:52:40Z</time>
      </trkpt>
      <trkpt lat="44.8539" lon="1.36111">
        <ele>136.39014</ele>
        <time>2013-03-24T07:52:37Z</time>
      </trkpt>
      <trkpt lat="44.85408" lon="1.3612">
        <ele>136.00256</ele>
        <time>2013-03-24T07:52:34Z</time>
      </trkpt>
      <trkpt lat="44.85428" lon="1.3612">
        <ele>135.28755</ele>
        <time>2013-03-24T07:52:31Z</time>
      </trkpt>
      <trkpt lat="44.85447" lon="1.36119">
        <ele>134.652</ele>
        <time>2013-03-24T07:52:28Z</time>
      </trkpt>
      <trkpt lat="44.85471" lon="1.36119">
        <ele>134.00998</ele>
        <time>2013-03-24T07:52:24Z</time>
      </trkpt>
      <trkpt lat="44.85494" lon="1.36117">
        <ele>134.02365</ele>
        <time>2013-03-24T07:52:21Z</time>
      </trkpt>
      <trkpt lat="44.85517" lon="1.36116">
        <ele>134.54126</ele>
        <time>2013-03-24T07:52:18Z</time>
      </trkpt>
      <trkpt lat="44.85536" lon="1.36124">
        <ele>134.89409</ele>
        <time>2013-03-24T07:52:15Z</time>
      </trkpt>
      <trkpt lat="44.85555" lon="1.36126">
        <ele>134.99341</ele>
        <time>2013-03-24T07:52:12Z</time>
      </trkpt>
      <trkpt lat="44.85579" lon="1.36129">
        <ele>134.13623</ele>
        <time>2013-03-24T07:52:09Z</time>
      </trkpt>
      <trkpt lat="44.85601" lon="1.36133">
        <ele>133.44513</ele>
        <time>2013-03-24T07:52:06Z</time>
      </trkpt>
      <trkpt lat="44.85624" lon="1.36131">
        <ele>132.90329</ele>
        <time>2013-03-24T07:52:03Z</time>
      </trkpt>
      <trkpt lat="44.85645" lon="1.36129">
        <ele>132.26964</ele>
        <time>2013-03-24T07:51:59Z</time>
      </trkpt>
      <trkpt lat="44.85666" lon="1.36126">
        <ele>132.24284</ele>
        <time>2013-03-24T07:51:56Z</time>
      </trkpt>
      <trkpt lat="44.85685" lon="1.36125">
        <ele>132.48305</ele>
        <time>2013-03-24T07:51:53Z</time>
      </trkpt>
      <trkpt lat="44.85704" lon="1.36121">
        <ele>132.66722</ele>
        <time>2013-03-24T07:51:50Z</time>
      </trkpt>
      <trkpt lat="44.85726" lon="1.36114">
        <ele>132.56302</ele>
        <time>2013-03-24T07:51:47Z</time>
      </trkpt>
      <trkpt lat="44.85745" lon="1.36115">
        <ele>132.61235</ele>
        <time>2013-03-24T07:51:44Z</time>
      </trkpt>
      <trkpt lat="44.85763" lon="1.36124">
        <ele>132.94409</ele>
        <time>2013-03-24T07:51:41Z</time>
      </trkpt>
      <trkpt lat="44.8578" lon="1.36132">
        <ele>133.81564</ele>
        <time>2013-03-24T07:51:38Z</time>
      </trkpt>
      <trkpt lat="44.85799" lon="1.36142">
        <ele>134.43338</ele>
        <time>2013-03-24T07:51:35Z</time>
      </trkpt>
      <trkpt lat="44.85819" lon="1.36154">
        <ele>134.51985</ele>
        <time>2013-03-24T07:51:32Z</time>
      </trkpt>
      <trkpt lat="44.8584" lon="1.3616">
        <ele>134.81372</ele>
        <time>2013-03-24T07:51:29Z</time>
      </trkpt>
      <trkpt lat="44.85862" lon="1.36164">
        <ele>135.49548</ele>
        <time>2013-03-24T07:51:26Z</time>
      </trkpt>
      <trkpt lat="44.85882" lon="1.36172">
        <ele>135.65732</ele>
        <time>2013-03-24T07:51:22Z</time>
      </trkpt>
      <trkpt lat="44.85899" lon="1.36179">
        <ele>136.42558</ele>
        <time>2013-03-24T07:51:18Z</time>
      </trkpt>
      <trkpt lat="44.85918" lon="1.36188">
        <ele>137.51988</ele>
        <time>2013-03-24T07:51:15Z</time>
      </trkpt>
      <trkpt lat="44.8594" lon="1.36196">
        <ele>138.41382</ele>
        <time>2013-03-24T07:51:11Z</time>
      </trkpt>
      <trkpt lat="44.85962" lon="1.36203">
        <ele>138.7634</ele>
        <time>2013-03-24T07:51:07Z</time>
      </trkpt>
      <trkpt lat="44.85982" lon="1.36207">
        <ele>139.39844</ele>
        <time>2013-03-24T07:51:04Z</time>
      </trkpt>
      <trkpt lat="44.85998" lon="1.36219">
        <ele>139.7185</ele>
        <time>2013-03-24T07:51:01Z</time>
      </trkpt>
      <trkpt lat="44.8602" lon="1.36232">
        <ele>139.6869</ele>
        <time>2013-03-24T07:50:57Z</time>
      </trkpt>
      <trkpt lat="44.86036" lon="1.36246">
        <ele>139.92079</ele>
        <time>2013-03-24T07:50:54Z</time>
      </trkpt>
      <trkpt lat="44.86057" lon="1.36255">
        <ele>139.8398</ele>
        <time>2013-03-24T07:50:50Z</time>
      </trkpt>
      <trkpt lat="44.86072" lon="1.36274">
        <ele>140.4138</ele>
        <time>2013-03-24T07:50:45Z</time>
      </trkpt>
      <trkpt lat="44.86087" lon="1.3629">
        <ele>140.85843</ele>
        <time>2013-03-24T07:50:41Z</time>
      </trkpt>
      <trkpt lat="44.86102" lon="1.36307">
        <ele>141.63432</ele>
        <time>2013-03-24T07:50:36Z</time>
      </trkpt>
      <trkpt lat="44.8612" lon="1.36325">
        <ele>141.75166</ele>
        <time>2013-03-24T07:50:32Z</time>
      </trkpt>
      <trkpt lat="44.86139" lon="1.36339">
        <ele>141.38544</ele>
        <time>2013-03-24T07:50:29Z</time>
      </trkpt>
      <trkpt lat="44.86161" lon="1.36348">
        <ele>140.9268</ele>
        <time>2013-03-24T07:50:25Z</time>
      </trkpt>
      <trkpt lat="44.86185" lon="1.36356">
        <ele>139.92177</ele>
        <time>2013-03-24T07:50:21Z</time>
      </trkpt>
      <trkpt lat="44.86212" lon="1.36369">
        <ele>138.39003</ele>
        <time>2013-03-24T07:50:13Z</time>
      </trkpt>
      <trkpt lat="44.86228" lon="1.36383">
        <ele>137.94502</ele>
        <time>2013-03-24T07:50:09Z</time>
      </trkpt>
      <trkpt lat="44.86241" lon="1.36403">
        <ele>137.8176</ele>
        <time>2013-03-24T07:50:05Z</time>
      </trkpt>
      <trkpt lat="44.86252" lon="1.36428">
        <ele>137.53093</ele>
        <time>2013-03-24T07:50:01Z</time>
      </trkpt>
      <trkpt lat="44.86266" lon="1.36452">
        <ele>137.26811</ele>
        <time>2013-03-24T07:49:57Z</time>
      </trkpt>
      <trkpt lat="44.86283" lon="1.36471">
        <ele>138.12515</ele>
        <time>2013-03-24T07:49:53Z</time>
      </trkpt>
      <trkpt lat="44.86299" lon="1.36492">
        <ele>138.8252</ele>
        <time>2013-03-24T07:49:49Z</time>
      </trkpt>
      <trkpt lat="44.86317" lon="1.36509">
        <ele>138.89813</ele>
        <time>2013-03-24T07:49:45Z</time>
      </trkpt>
      <trkpt lat="44.86335" lon="1.36527">
        <ele>139.48422</ele>
        <time>2013-03-24T07:49:41Z</time>
      </trkpt>
      <trkpt lat="44.86351" lon="1.3654">
        <ele>140.08112</ele>
        <time>2013-03-24T07:49:38Z</time>
      </trkpt>
      <trkpt lat="44.86369" lon="1.36552">
        <ele>141.01808</ele>
        <time>2013-03-24T07:49:34Z</time>
      </trkpt>
      <trkpt lat="44.86387" lon="1.36561">
        <ele>141.28555</ele>
        <time>2013-03-24T07:49:30Z</time>
      </trkpt>
      <trkpt lat="44.86403" lon="1.36576">
        <ele>141.3062</ele>
        <time>2013-03-24T07:49:26Z</time>
      </trkpt>
      <trkpt lat="44.86421" lon="1.36582">
        <ele>141.36281</ele>
        <time>2013-03-24T07:49:22Z</time>
      </trkpt>
      <trkpt lat="44.86436" lon="1.36604">
        <ele>141.35529</ele>
        <time>2013-03-24T07:49:18Z</time>
      </trkpt>
      <trkpt lat="44.8645" lon="1.36628">
        <ele>141.30295</ele>
        <time>2013-03-24T07:49:13Z</time>
      </trkpt>
      <trkpt lat="44.86458" lon="1.36654">
        <ele>141.80933</ele>
        <time>2013-03-24T07:49:09Z</time>
      </trkpt>
      <trkpt lat="44.86468" lon="1.36685">
        <ele>142.42204</ele>
        <time>2013-03-24T07:49:05Z</time>
      </trkpt>
      <trkpt lat="44.86478" lon="1.3671">
        <ele>142.43375</ele>
        <time>2013-03-24T07:49:02Z</time>
      </trkpt>
      <trkpt lat="44.8649" lon="1.36735">
        <ele>142.59851</ele>
        <time>2013-03-24T07:48:59Z</time>
      </trkpt>
      <trkpt lat="44.86496" lon="1.36766">
        <ele>142.19281</ele>
        <time>2013-03-24T07:48:55Z</time>
      </trkpt>
      <trkpt lat="44.86506" lon="1.36787">
        <ele>142.39407</ele>
        <time>2013-03-24T07:48:52Z</time>
      </trkpt>
      <trkpt lat="44.86516" lon="1.36818">
        <ele>143.01558</ele>
        <time>2013-03-24T07:48:49Z</time>
      </trkpt>
      <trkpt lat="44.86527" lon="1.36845">
        <ele>143.74435</ele>
        <time>2013-03-24T07:48:46Z</time>
      </trkpt>
      <trkpt lat="44.86535" lon="1.36873">
        <ele>144.30884</ele>
        <time>2013-03-24T07:48:43Z</time>
      </trkpt>
      <trkpt lat="44.86544" lon="1.36902">
        <ele>144.86908</ele>
        <time>2013-03-24T07:48:40Z</time>
      </trkpt>
      <trkpt lat="44.86553" lon="1.36933">
        <ele>144.33412</ele>
        <time>2013-03-24T07:48:37Z</time>
      </trkpt>
      <trkpt lat="44.8656" lon="1.36957">
        <ele>144.04955</ele>
        <time>2013-03-24T07:48:35Z</time>
      </trkpt>
      <trkpt lat="44.86568" lon="1.36988">
        <ele>144.13966</ele>
        <time>2013-03-24T07:48:32Z</time>
      </trkpt>
      <trkpt lat="44.86575" lon="1.37018">
        <ele>144.69403</ele>
        <time>2013-03-24T07:48:29Z</time>
      </trkpt>
      <trkpt lat="44.86583" lon="1.3705">
        <ele>145.07103</ele>
        <time>2013-03-24T07:48:26Z</time>
      </trkpt>
      <trkpt lat="44.86591" lon="1.37077">
        <ele>145.66838</ele>
        <time>2013-03-24T07:48:23Z</time>
      </trkpt>
      <trkpt lat="44.86603" lon="1.37102">
        <ele>145.91394</ele>
        <time>2013-03-24T07:48:20Z</time>
      </trkpt>
      <trkpt lat="44.86613" lon="1.37127">
        <ele>146.07008</ele>
        <time>2013-03-24T07:48:17Z</time>
      </trkpt>
      <trkpt lat="44.86617" lon="1.37155">
        <ele>146.05501</ele>
        <time>2013-03-24T07:48:14Z</time>
      </trkpt>
      <trkpt lat="44.86619" lon="1.37183">
        <ele>145.90816</ele>
        <time>2013-03-24T07:48:11Z</time>
      </trkpt>
      <trkpt lat="44.8662" lon="1.37214">
        <ele>146.03786</ele>
        <time>2013-03-24T07:48:08Z</time>
      </trkpt>
      <trkpt lat="44.86623" lon="1.3724">
        <ele>146.48235</ele>
        <time>2013-03-24T07:48:05Z</time>
      </trkpt>
      <trkpt lat="44.86628" lon="1.3727">
        <ele>147.46185</ele>
        <time>2013-03-24T07:48:02Z</time>
      </trkpt>
      <trkpt lat="44.86636" lon="1.37297">
        <ele>148.13551</ele>
        <time>2013-03-24T07:47:59Z</time>
      </trkpt>
      <trkpt lat="44.86641" lon="1.37327">
        <ele>148.04713</ele>
        <time>2013-03-24T07:47:56Z</time>
      </trkpt>
      <trkpt lat="44.86644" lon="1.3736">
        <ele>147.30063</ele>
        <time>2013-03-24T07:47:53Z</time>
      </trkpt>
      <trkpt lat="44.86647" lon="1.37392">
        <ele>147.01556</ele>
        <time>2013-03-24T07:47:49Z</time>
      </trkpt>
      <trkpt lat="44.86647" lon="1.37425">
        <ele>146.96652</ele>
        <time>2013-03-24T07:47:46Z</time>
      </trkpt>
      <trkpt lat="44.86651" lon="1.3745">
        <ele>147.13174</ele>
        <time>2013-03-24T07:47:43Z</time>
      </trkpt>
      <trkpt lat="44.86661" lon="1.37472">
        <ele>146.95302</ele>
        <time>2013-03-24T07:47:40Z</time>
      </trkpt>
      <trkpt lat="44.86674" lon="1.37499">
        <ele>147.23051</ele>
        <time>2013-03-24T07:47:36Z</time>
      </trkpt>
      <trkpt lat="44.86681" lon="1.37526">
        <ele>147.06122</ele>
        <time>2013-03-24T07:47:33Z</time>
      </trkpt>
      <trkpt lat="44.86695" lon="1.37551">
        <ele>146.75398</ele>
        <time>2013-03-24T07:47:29Z</time>
      </trkpt>
      <trkpt lat="44.86705" lon="1.37581">
        <ele>146.64471</ele>
        <time>2013-03-24T07:47:25Z</time>
      </trkpt>
      <trkpt lat="44.86714" lon="1.37604">
        <ele>146.89856</ele>
        <time>2013-03-24T07:47:22Z</time>
      </trkpt>
      <trkpt lat="44.86726" lon="1.37633">
        <ele>147.82509</ele>
        <time>2013-03-24T07:47:18Z</time>
      </trkpt>
      <trkpt lat="44.86739" lon="1.37657">
        <ele>148.72128</ele>
        <time>2013-03-24T07:47:14Z</time>
      </trkpt>
      <trkpt lat="44.86755" lon="1.37674">
        <ele>150.3475</ele>
        <time>2013-03-24T07:47:10Z</time>
      </trkpt>
      <trkpt lat="44.8676" lon="1.37705">
        <ele>151.29211</ele>
        <time>2013-03-24T07:47:06Z</time>
      </trkpt>
      <trkpt lat="44.86757" lon="1.37734">
        <ele>152.24908</ele>
        <time>2013-03-24T07:47:01Z</time>
      </trkpt>
      <trkpt lat="44.86742" lon="1.37756">
        <ele>151.60577</ele>
        <time>2013-03-24T07:46:57Z</time>
      </trkpt>
      <trkpt lat="44.86722" lon="1.37769">
        <ele>149.73047</ele>
        <time>2013-03-24T07:46:52Z</time>
      </trkpt>
      <trkpt lat="44.86705" lon="1.37786">
        <ele>150.1564</ele>
        <time>2013-03-24T07:46:47Z</time>
      </trkpt>
      <trkpt lat="44.86708" lon="1.3782">
        <ele>150.59386</ele>
        <time>2013-03-24T07:46:41Z</time>
      </trkpt>
      <trkpt lat="44.86728" lon="1.37822">
        <ele>149.26427</ele>
        <time>2013-03-24T07:46:36Z</time>
      </trkpt>
      <trkpt lat="44.86748" lon="1.37808">
        <ele>147.67943</ele>
        <time>2013-03-24T07:46:31Z</time>
      </trkpt>
      <trkpt lat="44.86767" lon="1.37798">
        <ele>145.47507</ele>
        <time>2013-03-24T07:46:26Z</time>
      </trkpt>
      <trkpt lat="44.86784" lon="1.37787">
        <ele>144.65453</ele>
        <time>2013-03-24T07:46:22Z</time>
      </trkpt>
      <trkpt lat="44.86802" lon="1.37778">
        <ele>144.3922</ele>
        <time>2013-03-24T07:46:19Z</time>
      </trkpt>
      <trkpt lat="44.86819" lon="1.37788">
        <ele>145.5667</ele>
        <time>2013-03-24T07:46:16Z</time>
      </trkpt>
      <trkpt lat="44.86834" lon="1.37802">
        <ele>146.87662</ele>
        <time>2013-03-24T07:46:13Z</time>
      </trkpt>
      <trkpt lat="44.8685" lon="1.37819">
        <ele>147.20384</ele>
        <time>2013-03-24T07:46:10Z</time>
      </trkpt>
      <trkpt lat="44.86868" lon="1.37838">
        <ele>146.46465</ele>
        <time>2013-03-24T07:46:07Z</time>
      </trkpt>
      <trkpt lat="44.86887" lon="1.37852">
        <ele>146.07176</ele>
        <time>2013-03-24T07:46:04Z</time>
      </trkpt>
      <trkpt lat="44.86907" lon="1.37867">
        <ele>146.12567</ele>
        <time>2013-03-24T07:46:01Z</time>
      </trkpt>
      <trkpt lat="44.8693" lon="1.37883">
        <ele>147.19418</ele>
        <time>2013-03-24T07:45:58Z</time>
      </trkpt>
      <trkpt lat="44.86948" lon="1.3791">
        <ele>147.47139</ele>
        <time>2013-03-24T07:45:55Z</time>
      </trkpt>
      <trkpt lat="44.86963" lon="1.37936">
        <ele>146.12106</ele>
        <time>2013-03-24T07:45:52Z</time>
      </trkpt>
      <trkpt lat="44.86978" lon="1.3796">
        <ele>144.90549</ele>
        <time>2013-03-24T07:45:49Z</time>
      </trkpt>
      <trkpt lat="44.86994" lon="1.37981">
        <ele>144.16484</ele>
        <time>2013-03-24T07:45:46Z</time>
      </trkpt>
      <trkpt lat="44.8701" lon="1.38005">
        <ele>143.71666</ele>
        <time>2013-03-24T07:45:43Z</time>
      </trkpt>
      <trkpt lat="44.87025" lon="1.38025">
        <ele>143.59506</ele>
        <time>2013-03-24T07:45:40Z</time>
      </trkpt>
      <trkpt lat="44.87041" lon="1.38041">
        <ele>143.31345</ele>
        <time>2013-03-24T07:45:38Z</time>
      </trkpt>
      <trkpt lat="44.87065" lon="1.38052">
        <ele>142.03557</ele>
        <time>2013-03-24T07:45:35Z</time>
      </trkpt>
      <trkpt lat="44.87084" lon="1.38069">
        <ele>140.61859</ele>
        <time>2013-03-24T07:45:31Z</time>
      </trkpt>
      <trkpt lat="44.87099" lon="1.38082">
        <ele>140.50334</ele>
        <time>2013-03-24T07:45:28Z</time>
      </trkpt>
      <trkpt lat="44.87119" lon="1.38104">
        <ele>140.64865</ele>
        <time>2013-03-24T07:45:25Z</time>
      </trkpt>
      <trkpt lat="44.87138" lon="1.38126">
        <ele>140.04124</ele>
        <time>2013-03-24T07:45:22Z</time>
      </trkpt>
      <trkpt lat="44.87152" lon="1.38152">
        <ele>139.5385</ele>
        <time>2013-03-24T07:45:19Z</time>
      </trkpt>
      <trkpt lat="44.87165" lon="1.38175">
        <ele>139.50237</ele>
        <time>2013-03-24T07:45:16Z</time>
      </trkpt>
      <trkpt lat="44.87178" lon="1.38196">
        <ele>139.35004</ele>
        <time>2013-03-24T07:45:13Z</time>
      </trkpt>
      <trkpt lat="44.87191" lon="1.38223">
        <ele>139.86678</ele>
        <time>2013-03-24T07:45:10Z</time>
      </trkpt>
      <trkpt lat="44.87205" lon="1.38245">
        <ele>140.5916</ele>
        <time>2013-03-24T07:45:07Z</time>
      </trkpt>
      <trkpt lat="44.87218" lon="1.38265">
        <ele>140.75786</ele>
        <time>2013-03-24T07:45:04Z</time>
      </trkpt>
      <trkpt lat="44.87236" lon="1.38291">
        <ele>140.55197</ele>
        <time>2013-03-24T07:45:01Z</time>
      </trkpt>
      <trkpt lat="44.87253" lon="1.38314">
        <ele>140.40839</ele>
        <time>2013-03-24T07:44:58Z</time>
      </trkpt>
      <trkpt lat="44.87269" lon="1.38336">
        <ele>140.18655</ele>
        <time>2013-03-24T07:44:55Z</time>
      </trkpt>
      <trkpt lat="44.87284" lon="1.3836">
        <ele>140.19406</ele>
        <time>2013-03-24T07:44:52Z</time>
      </trkpt>
      <trkpt lat="44.87298" lon="1.38382">
        <ele>140.29704</ele>
        <time>2013-03-24T07:44:49Z</time>
      </trkpt>
      <trkpt lat="44.87314" lon="1.38401">
        <ele>139.81151</ele>
        <time>2013-03-24T07:44:46Z</time>
      </trkpt>
      <trkpt lat="44.87332" lon="1.38423">
        <ele>139.368</ele>
        <time>2013-03-24T07:44:43Z</time>
      </trkpt>
      <trkpt lat="44.87347" lon="1.38444">
        <ele>138.60934</ele>
        <time>2013-03-24T07:44:40Z</time>
      </trkpt>
      <trkpt lat="44.87364" lon="1.38467">
        <ele>137.64066</ele>
        <time>2013-03-24T07:44:37Z</time>
      </trkpt>
      <trkpt lat="44.8738" lon="1.38492">
        <ele>137.29266</ele>
        <time>2013-03-24T07:44:34Z</time>
      </trkpt>
      <trkpt lat="44.87393" lon="1.38514">
        <ele>136.78262</ele>
        <time>2013-03-24T07:44:31Z</time>
      </trkpt>
      <trkpt lat="44.87408" lon="1.38534">
        <ele>136.78104</ele>
        <time>2013-03-24T07:44:28Z</time>
      </trkpt>
      <trkpt lat="44.87425" lon="1.38556">
        <ele>137.74022</ele>
        <time>2013-03-24T07:44:25Z</time>
      </trkpt>
      <trkpt lat="44.87438" lon="1.38583">
        <ele>139.01015</ele>
        <time>2013-03-24T07:44:22Z</time>
      </trkpt>
      <trkpt lat="44.87453" lon="1.38608">
        <ele>139.14256</ele>
        <time>2013-03-24T07:44:19Z</time>
      </trkpt>
      <trkpt lat="44.87463" lon="1.38638">
        <ele>138.73424</ele>
        <time>2013-03-24T07:44:16Z</time>
      </trkpt>
      <trkpt lat="44.87475" lon="1.38664">
        <ele>138.80708</ele>
        <time>2013-03-24T07:44:13Z</time>
      </trkpt>
      <trkpt lat="44.87485" lon="1.38688">
        <ele>138.80566</ele>
        <time>2013-03-24T07:44:10Z</time>
      </trkpt>
      <trkpt lat="44.87502" lon="1.38709">
        <ele>138.98381</ele>
        <time>2013-03-24T07:44:07Z</time>
      </trkpt>
      <trkpt lat="44.87516" lon="1.38733">
        <ele>138.57643</ele>
        <time>2013-03-24T07:44:04Z</time>
      </trkpt>
      <trkpt lat="44.87532" lon="1.38757">
        <ele>137.87378</ele>
        <time>2013-03-24T07:44:01Z</time>
      </trkpt>
      <trkpt lat="44.87537" lon="1.38789">
        <ele>138.22673</ele>
        <time>2013-03-24T07:43:58Z</time>
      </trkpt>
      <trkpt lat="44.87545" lon="1.38818">
        <ele>138.02632</ele>
        <time>2013-03-24T07:43:55Z</time>
      </trkpt>
      <trkpt lat="44.8755" lon="1.38844">
        <ele>137.86981</ele>
        <time>2013-03-24T07:43:52Z</time>
      </trkpt>
      <trkpt lat="44.87558" lon="1.38875">
        <ele>137.96548</ele>
        <time>2013-03-24T07:43:49Z</time>
      </trkpt>
      <trkpt lat="44.87565" lon="1.38904">
        <ele>137.69966</ele>
        <time>2013-03-24T07:43:46Z</time>
      </trkpt>
      <trkpt lat="44.8757" lon="1.38935">
        <ele>138.1881</ele>
        <time>2013-03-24T07:43:43Z</time>
      </trkpt>
      <trkpt lat="44.87575" lon="1.38965">
        <ele>138.87177</ele>
        <time>2013-03-24T07:43:40Z</time>
      </trkpt>
      <trkpt lat="44.8758" lon="1.38997">
        <ele>139.52196</ele>
        <time>2013-03-24T07:43:37Z</time>
      </trkpt>
      <trkpt lat="44.87581" lon="1.39027">
        <ele>140.16687</ele>
        <time>2013-03-24T07:43:34Z</time>
      </trkpt>
      <trkpt lat="44.87584" lon="1.39062">
        <ele>140.5474</ele>
        <time>2013-03-24T07:43:31Z</time>
      </trkpt>
      <trkpt lat="44.87583" lon="1.39087">
        <ele>139.86205</ele>
        <time>2013-03-24T07:43:29Z</time>
      </trkpt>
      <trkpt lat="44.87584" lon="1.39117">
        <ele>138.80263</ele>
        <time>2013-03-24T07:43:26Z</time>
      </trkpt>
      <trkpt lat="44.87586" lon="1.39152">
        <ele>138.18399</ele>
        <time>2013-03-24T07:43:23Z</time>
      </trkpt>
      <trkpt lat="44.87585" lon="1.39182">
        <ele>137.6065</ele>
        <time>2013-03-24T07:43:20Z</time>
      </trkpt>
      <trkpt lat="44.87589" lon="1.39215">
        <ele>137.33023</ele>
        <time>2013-03-24T07:43:17Z</time>
      </trkpt>
      <trkpt lat="44.87595" lon="1.39242">
        <ele>137.3087</ele>
        <time>2013-03-24T07:43:14Z</time>
      </trkpt>
      <trkpt lat="44.87596" lon="1.39273">
        <ele>137.5873</ele>
        <time>2013-03-24T07:43:11Z</time>
      </trkpt>
      <trkpt lat="44.87598" lon="1.39305">
        <ele>138.35138</ele>
        <time>2013-03-24T07:43:08Z</time>
      </trkpt>
      <trkpt lat="44.87599" lon="1.39334">
        <ele>139.44771</ele>
        <time>2013-03-24T07:43:05Z</time>
      </trkpt>
      <trkpt lat="44.87599" lon="1.39367">
        <ele>142.06493</ele>
        <time>2013-03-24T07:43:02Z</time>
      </trkpt>
      <trkpt lat="44.87605" lon="1.39397">
        <ele>145.08723</ele>
        <time>2013-03-24T07:42:59Z</time>
      </trkpt>
      <trkpt lat="44.87608" lon="1.39427">
        <ele>148.41048</ele>
        <time>2013-03-24T07:42:56Z</time>
      </trkpt>
      <trkpt lat="44.87612" lon="1.3946">
        <ele>151.89522</ele>
        <time>2013-03-24T07:42:53Z</time>
      </trkpt>
      <trkpt lat="44.87614" lon="1.39492">
        <ele>155.18124</ele>
        <time>2013-03-24T07:42:50Z</time>
      </trkpt>
      <trkpt lat="44.87612" lon="1.39522">
        <ele>158.27777</ele>
        <time>2013-03-24T07:42:48Z</time>
      </trkpt>
      <trkpt lat="44.87609" lon="1.39559">
        <ele>159.23825</ele>
        <time>2013-03-24T07:42:46Z</time>
      </trkpt>
      <trkpt lat="44.87615" lon="1.3959">
        <ele>158.52031</ele>
        <time>2013-03-24T07:42:43Z</time>
      </trkpt>
      <trkpt lat="44.87619" lon="1.39622">
        <ele>157.49258</ele>
        <time>2013-03-24T07:42:40Z</time>
      </trkpt>
      <trkpt lat="44.87621" lon="1.39647">
        <ele>155.49725</ele>
        <time>2013-03-24T07:42:37Z</time>
      </trkpt>
      <trkpt lat="44.87624" lon="1.39677">
        <ele>154.3157</ele>
        <time>2013-03-24T07:42:34Z</time>
      </trkpt>
      <trkpt lat="44.87625" lon="1.39706">
        <ele>153.62982</ele>
        <time>2013-03-24T07:42:31Z</time>
      </trkpt>
      <trkpt lat="44.87622" lon="1.39739">
        <ele>152.3892</ele>
        <time>2013-03-24T07:42:28Z</time>
      </trkpt>
      <trkpt lat="44.87618" lon="1.39771">
        <ele>151.46701</ele>
        <time>2013-03-24T07:42:25Z</time>
      </trkpt>
      <trkpt lat="44.87615" lon="1.39799">
        <ele>150.06625</ele>
        <time>2013-03-24T07:42:22Z</time>
      </trkpt>
      <trkpt lat="44.87611" lon="1.39826">
        <ele>148.35706</ele>
        <time>2013-03-24T07:42:19Z</time>
      </trkpt>
      <trkpt lat="44.87608" lon="1.39854">
        <ele>147.6019</ele>
        <time>2013-03-24T07:42:16Z</time>
      </trkpt>
      <trkpt lat="44.87601" lon="1.39885">
        <ele>147.26746</ele>
        <time>2013-03-24T07:42:13Z</time>
      </trkpt>
      <trkpt lat="44.87594" lon="1.39914">
        <ele>146.91914</ele>
        <time>2013-03-24T07:42:10Z</time>
      </trkpt>
      <trkpt lat="44.87586" lon="1.39949">
        <ele>146.54907</ele>
        <time>2013-03-24T07:42:07Z</time>
      </trkpt>
      <trkpt lat="44.87581" lon="1.39983">
        <ele>146.20522</ele>
        <time>2013-03-24T07:42:04Z</time>
      </trkpt>
      <trkpt lat="44.87574" lon="1.40012">
        <ele>145.86423</ele>
        <time>2013-03-24T07:42:01Z</time>
      </trkpt>
      <trkpt lat="44.87565" lon="1.40047">
        <ele>146.24113</ele>
        <time>2013-03-24T07:41:58Z</time>
      </trkpt>
      <trkpt lat="44.87561" lon="1.40083">
        <ele>146.67526</ele>
        <time>2013-03-24T07:41:55Z</time>
      </trkpt>
      <trkpt lat="44.87551" lon="1.40116">
        <ele>147.48212</ele>
        <time>2013-03-24T07:41:52Z</time>
      </trkpt>
      <trkpt lat="44.87544" lon="1.40148">
        <ele>147.91316</ele>
        <time>2013-03-24T07:41:49Z</time>
      </trkpt>
      <trkpt lat="44.87539" lon="1.40172">
        <ele>148.95673</ele>
        <time>2013-03-24T07:41:47Z</time>
      </trkpt>
      <trkpt lat="44.87532" lon="1.40201">
        <ele>149.56409</ele>
        <time>2013-03-24T07:41:44Z</time>
      </trkpt>
      <trkpt lat="44.87523" lon="1.40233">
        <ele>150.52228</ele>
        <time>2013-03-24T07:41:41Z</time>
      </trkpt>
      <trkpt lat="44.87518" lon="1.40259">
        <ele>150.56021</ele>
        <time>2013-03-24T07:41:38Z</time>
      </trkpt>
      <trkpt lat="44.87512" lon="1.4029">
        <ele>150.28719</ele>
        <time>2013-03-24T07:41:35Z</time>
      </trkpt>
      <trkpt lat="44.87504" lon="1.40322">
        <ele>149.97333</ele>
        <time>2013-03-24T07:41:32Z</time>
      </trkpt>
      <trkpt lat="44.875" lon="1.40355">
        <ele>150.29973</ele>
        <time>2013-03-24T07:41:29Z</time>
      </trkpt>
      <trkpt lat="44.87496" lon="1.40389">
        <ele>150.79935</ele>
        <time>2013-03-24T07:41:26Z</time>
      </trkpt>
      <trkpt lat="44.87493" lon="1.40421">
        <ele>150.53178</ele>
        <time>2013-03-24T07:41:23Z</time>
      </trkpt>
      <trkpt lat="44.87489" lon="1.4045">
        <ele>150.32349</ele>
        <time>2013-03-24T07:41:20Z</time>
      </trkpt>
      <trkpt lat="44.87486" lon="1.4048">
        <ele>150.31493</ele>
        <time>2013-03-24T07:41:17Z</time>
      </trkpt>
      <trkpt lat="44.87482" lon="1.4051">
        <ele>150.40576</ele>
        <time>2013-03-24T07:41:14Z</time>
      </trkpt>
      <trkpt lat="44.87479" lon="1.40539">
        <ele>149.89143</ele>
        <time>2013-03-24T07:41:11Z</time>
      </trkpt>
      <trkpt lat="44.87471" lon="1.40573">
        <ele>149.53152</ele>
        <time>2013-03-24T07:41:08Z</time>
      </trkpt>
      <trkpt lat="44.87464" lon="1.40608">
        <ele>148.88214</ele>
        <time>2013-03-24T07:41:05Z</time>
      </trkpt>
      <trkpt lat="44.87461" lon="1.40641">
        <ele>148.2836</ele>
        <time>2013-03-24T07:41:02Z</time>
      </trkpt>
      <trkpt lat="44.87453" lon="1.4067">
        <ele>148.29076</ele>
        <time>2013-03-24T07:40:59Z</time>
      </trkpt>
      <trkpt lat="44.87442" lon="1.40698">
        <ele>148.12993</ele>
        <time>2013-03-24T07:40:56Z</time>
      </trkpt>
      <trkpt lat="44.87431" lon="1.40727">
        <ele>148.26726</ele>
        <time>2013-03-24T07:40:53Z</time>
      </trkpt>
      <trkpt lat="44.87423" lon="1.40761">
        <ele>149.1446</ele>
        <time>2013-03-24T07:40:50Z</time>
      </trkpt>
      <trkpt lat="44.87411" lon="1.40791">
        <ele>149.76129</ele>
        <time>2013-03-24T07:40:47Z</time>
      </trkpt>
      <trkpt lat="44.87405" lon="1.40817">
        <ele>149.5564</ele>
        <time>2013-03-24T07:40:44Z</time>
      </trkpt>
      <trkpt lat="44.87393" lon="1.40848">
        <ele>149.83737</ele>
        <time>2013-03-24T07:40:41Z</time>
      </trkpt>
      <trkpt lat="44.8738" lon="1.40876">
        <ele>149.45897</ele>
        <time>2013-03-24T07:40:38Z</time>
      </trkpt>
      <trkpt lat="44.87368" lon="1.40902">
        <ele>148.17682</ele>
        <time>2013-03-24T07:40:35Z</time>
      </trkpt>
      <trkpt lat="44.87355" lon="1.40921">
        <ele>147.6699</ele>
        <time>2013-03-24T07:40:33Z</time>
      </trkpt>
      <trkpt lat="44.87342" lon="1.40941">
        <ele>147.64717</ele>
        <time>2013-03-24T07:40:30Z</time>
      </trkpt>
      <trkpt lat="44.87327" lon="1.40969">
        <ele>147.61182</ele>
        <time>2013-03-24T07:40:27Z</time>
      </trkpt>
      <trkpt lat="44.87308" lon="1.40994">
        <ele>146.49469</ele>
        <time>2013-03-24T07:40:24Z</time>
      </trkpt>
      <trkpt lat="44.87287" lon="1.41012">
        <ele>144.08322</ele>
        <time>2013-03-24T07:40:20Z</time>
      </trkpt>
      <trkpt lat="44.87266" lon="1.41029">
        <ele>143.85315</ele>
        <time>2013-03-24T07:40:16Z</time>
      </trkpt>
      <trkpt lat="44.87253" lon="1.41046">
        <ele>143.76115</ele>
        <time>2013-03-24T07:40:14Z</time>
      </trkpt>
      <trkpt lat="44.87233" lon="1.41064">
        <ele>143.19682</ele>
        <time>2013-03-24T07:40:11Z</time>
      </trkpt>
      <trkpt lat="44.87218" lon="1.41084">
        <ele>142.74802</ele>
        <time>2013-03-24T07:40:08Z</time>
      </trkpt>
      <trkpt lat="44.87205" lon="1.41108">
        <ele>142.61752</ele>
        <time>2013-03-24T07:40:05Z</time>
      </trkpt>
      <trkpt lat="44.87194" lon="1.41136">
        <ele>142.6082</ele>
        <time>2013-03-24T07:40:02Z</time>
      </trkpt>
      <trkpt lat="44.87182" lon="1.41163">
        <ele>142.80832</ele>
        <time>2013-03-24T07:39:59Z</time>
      </trkpt>
      <trkpt lat="44.87169" lon="1.41188">
        <ele>143.59009</ele>
        <time>2013-03-24T07:39:56Z</time>
      </trkpt>
      <trkpt lat="44.87159" lon="1.41219">
        <ele>144.56169</ele>
        <time>2013-03-24T07:39:53Z</time>
      </trkpt>
      <trkpt lat="44.87151" lon="1.41249">
        <ele>144.61661</ele>
        <time>2013-03-24T07:39:50Z</time>
      </trkpt>
      <trkpt lat="44.87146" lon="1.4128">
        <ele>144.54306</ele>
        <time>2013-03-24T07:39:47Z</time>
      </trkpt>
      <trkpt lat="44.87136" lon="1.41312">
        <ele>144.78354</ele>
        <time>2013-03-24T07:39:44Z</time>
      </trkpt>
      <trkpt lat="44.87127" lon="1.41343">
        <ele>145.11285</ele>
        <time>2013-03-24T07:39:41Z</time>
      </trkpt>
      <trkpt lat="44.87121" lon="1.41369">
        <ele>145.88951</ele>
        <time>2013-03-24T07:39:39Z</time>
      </trkpt>
      <trkpt lat="44.87111" lon="1.41401">
        <ele>147.49365</ele>
        <time>2013-03-24T07:39:36Z</time>
      </trkpt>
      <trkpt lat="44.87101" lon="1.4143">
        <ele>148.35902</ele>
        <time>2013-03-24T07:39:33Z</time>
      </trkpt>
      <trkpt lat="44.87096" lon="1.4146">
        <ele>149.08066</ele>
        <time>2013-03-24T07:39:30Z</time>
      </trkpt>
      <trkpt lat="44.87088" lon="1.41491">
        <ele>149.89119</ele>
        <time>2013-03-24T07:39:27Z</time>
      </trkpt>
      <trkpt lat="44.87078" lon="1.41524">
        <ele>150.89392</ele>
        <time>2013-03-24T07:39:24Z</time>
      </trkpt>
      <trkpt lat="44.87072" lon="1.41549">
        <ele>151.5003</ele>
        <time>2013-03-24T07:39:22Z</time>
      </trkpt>
      <trkpt lat="44.87057" lon="1.41578">
        <ele>152.51923</ele>
        <time>2013-03-24T07:39:19Z</time>
      </trkpt>
      <trkpt lat="44.87044" lon="1.4161">
        <ele>153.54558</ele>
        <time>2013-03-24T07:39:16Z</time>
      </trkpt>
      <trkpt lat="44.8703" lon="1.41638">
        <ele>154.19693</ele>
        <time>2013-03-24T07:39:13Z</time>
      </trkpt>
      <trkpt lat="44.87016" lon="1.41665">
        <ele>155.68532</ele>
        <time>2013-03-24T07:39:10Z</time>
      </trkpt>
      <trkpt lat="44.87005" lon="1.41685">
        <ele>157.485</ele>
        <time>2013-03-24T07:39:08Z</time>
      </trkpt>
      <trkpt lat="44.86989" lon="1.41703">
        <ele>159.58446</ele>
        <time>2013-03-24T07:39:06Z</time>
      </trkpt>
      <trkpt lat="44.86978" lon="1.41724">
        <ele>160.2057</ele>
        <time>2013-03-24T07:39:04Z</time>
      </trkpt>
      <trkpt lat="44.86965" lon="1.41743">
        <ele>160.8768</ele>
        <time>2013-03-24T07:39:02Z</time>
      </trkpt>
      <trkpt lat="44.86946" lon="1.41763">
        <ele>161.55612</ele>
        <time>2013-03-24T07:38:59Z</time>
      </trkpt>
      <trkpt lat="44.86931" lon="1.41782">
        <ele>162.67747</ele>
        <time>2013-03-24T07:38:56Z</time>
      </trkpt>
      <trkpt lat="44.86914" lon="1.41805">
        <ele>163.20955</ele>
        <time>2013-03-24T07:38:53Z</time>
      </trkpt>
      <trkpt lat="44.86896" lon="1.41824">
        <ele>162.94856</ele>
        <time>2013-03-24T07:38:50Z</time>
      </trkpt>
      <trkpt lat="44.86882" lon="1.41841">
        <ele>162.36697</ele>
        <time>2013-03-24T07:38:47Z</time>
      </trkpt>
      <trkpt lat="44.86864" lon="1.41865">
        <ele>162.34024</ele>
        <time>2013-03-24T07:38:44Z</time>
      </trkpt>
      <trkpt lat="44.86849" lon="1.41889">
        <ele>161.95836</ele>
        <time>2013-03-24T07:38:41Z</time>
      </trkpt>
      <trkpt lat="44.86835" lon="1.41912">
        <ele>161.07536</ele>
        <time>2013-03-24T07:38:38Z</time>
      </trkpt>
      <trkpt lat="44.86821" lon="1.41941">
        <ele>159.62679</ele>
        <time>2013-03-24T07:38:35Z</time>
      </trkpt>
      <trkpt lat="44.8681" lon="1.41963">
        <ele>158.72539</ele>
        <time>2013-03-24T07:38:33Z</time>
      </trkpt>
      <trkpt lat="44.86797" lon="1.41987">
        <ele>156.73795</ele>
        <time>2013-03-24T07:38:30Z</time>
      </trkpt>
      <trkpt lat="44.86784" lon="1.42008">
        <ele>154.31218</ele>
        <time>2013-03-24T07:38:27Z</time>
      </trkpt>
      <trkpt lat="44.86771" lon="1.42028">
        <ele>152.4548</ele>
        <time>2013-03-24T07:38:24Z</time>
      </trkpt>
      <trkpt lat="44.86755" lon="1.42045">
        <ele>151.00027</ele>
        <time>2013-03-24T07:38:21Z</time>
      </trkpt>
      <trkpt lat="44.86743" lon="1.42065">
        <ele>150.33028</ele>
        <time>2013-03-24T07:38:18Z</time>
      </trkpt>
      <trkpt lat="44.86732" lon="1.4209">
        <ele>150.23843</ele>
        <time>2013-03-24T07:38:15Z</time>
      </trkpt>
      <trkpt lat="44.86722" lon="1.42114">
        <ele>150.51332</ele>
        <time>2013-03-24T07:38:12Z</time>
      </trkpt>
      <trkpt lat="44.86709" lon="1.4214">
        <ele>150.70193</ele>
        <time>2013-03-24T07:38:09Z</time>
      </trkpt>
      <trkpt lat="44.86701" lon="1.42167">
        <ele>150.29716</ele>
        <time>2013-03-24T07:38:06Z</time>
      </trkpt>
      <trkpt lat="44.86691" lon="1.42196">
        <ele>149.67847</ele>
        <time>2013-03-24T07:38:03Z</time>
      </trkpt>
      <trkpt lat="44.86683" lon="1.42224">
        <ele>149.55267</ele>
        <time>2013-03-24T07:38:00Z</time>
      </trkpt>
      <trkpt lat="44.86673" lon="1.42252">
        <ele>149.48781</ele>
        <time>2013-03-24T07:37:57Z</time>
      </trkpt>
      <trkpt lat="44.86661" lon="1.42284">
        <ele>148.60074</ele>
        <time>2013-03-24T07:37:54Z</time>
      </trkpt>
      <trkpt lat="44.86655" lon="1.42309">
        <ele>147.48694</ele>
        <time>2013-03-24T07:37:51Z</time>
      </trkpt>
      <trkpt lat="44.86642" lon="1.42337">
        <ele>146.76164</ele>
        <time>2013-03-24T07:37:48Z</time>
      </trkpt>
      <trkpt lat="44.8663" lon="1.42363">
        <ele>145.5165</ele>
        <time>2013-03-24T07:37:45Z</time>
      </trkpt>
      <trkpt lat="44.8662" lon="1.42394">
        <ele>145.02798</ele>
        <time>2013-03-24T07:37:42Z</time>
      </trkpt>
      <trkpt lat="44.86608" lon="1.42424">
        <ele>144.84781</ele>
        <time>2013-03-24T07:37:39Z</time>
      </trkpt>
      <trkpt lat="44.86596" lon="1.42454">
        <ele>143.46518</ele>
        <time>2013-03-24T07:37:36Z</time>
      </trkpt>
      <trkpt lat="44.86584" lon="1.42484">
        <ele>141.98041</ele>
        <time>2013-03-24T07:37:33Z</time>
      </trkpt>
      <trkpt lat="44.86573" lon="1.42514">
        <ele>140.81654</ele>
        <time>2013-03-24T07:37:30Z</time>
      </trkpt>
      <trkpt lat="44.86561" lon="1.42544">
        <ele>140.19476</ele>
        <time>2013-03-24T07:37:27Z</time>
      </trkpt>
      <trkpt lat="44.86553" lon="1.42573">
        <ele>139.88017</ele>
        <time>2013-03-24T07:37:24Z</time>
      </trkpt>
      <trkpt lat="44.86542" lon="1.42602">
        <ele>139.41226</ele>
        <time>2013-03-24T07:37:21Z</time>
      </trkpt>
      <trkpt lat="44.86535" lon="1.42632">
        <ele>138.82906</ele>
        <time>2013-03-24T07:37:18Z</time>
      </trkpt>
      <trkpt lat="44.86527" lon="1.42664">
        <ele>138.81703</ele>
        <time>2013-03-24T07:37:15Z</time>
      </trkpt>
      <trkpt lat="44.86517" lon="1.42697">
        <ele>140.02924</ele>
        <time>2013-03-24T07:37:12Z</time>
      </trkpt>
      <trkpt lat="44.8651" lon="1.42728">
        <ele>140.8508</ele>
        <time>2013-03-24T07:37:09Z</time>
      </trkpt>
      <trkpt lat="44.86503" lon="1.4276">
        <ele>140.46857</ele>
        <time>2013-03-24T07:37:06Z</time>
      </trkpt>
      <trkpt lat="44.86495" lon="1.42793">
        <ele>140.58844</ele>
        <time>2013-03-24T07:37:03Z</time>
      </trkpt>
      <trkpt lat="44.86486" lon="1.42824">
        <ele>141.23557</ele>
        <time>2013-03-24T07:37:00Z</time>
      </trkpt>
      <trkpt lat="44.86476" lon="1.42853">
        <ele>140.78429</ele>
        <time>2013-03-24T07:36:57Z</time>
      </trkpt>
      <trkpt lat="44.8647" lon="1.42883">
        <ele>139.28128</ele>
        <time>2013-03-24T07:36:54Z</time>
      </trkpt>
      <trkpt lat="44.86462" lon="1.42917">
        <ele>138.7223</ele>
        <time>2013-03-24T07:36:51Z</time>
      </trkpt>
      <trkpt lat="44.86454" lon="1.42946">
        <ele>138.67879</ele>
        <time>2013-03-24T07:36:48Z</time>
      </trkpt>
      <trkpt lat="44.86444" lon="1.4298">
        <ele>138.7275</ele>
        <time>2013-03-24T07:36:45Z</time>
      </trkpt>
      <trkpt lat="44.86443" lon="1.43014">
        <ele>138.62444</ele>
        <time>2013-03-24T07:36:42Z</time>
      </trkpt>
      <trkpt lat="44.86442" lon="1.43045">
        <ele>138.58015</ele>
        <time>2013-03-24T07:36:39Z</time>
      </trkpt>
      <trkpt lat="44.86437" lon="1.43078">
        <ele>137.67519</ele>
        <time>2013-03-24T07:36:36Z</time>
      </trkpt>
      <trkpt lat="44.86437" lon="1.43109">
        <ele>136.12268</ele>
        <time>2013-03-24T07:36:33Z</time>
      </trkpt>
      <trkpt lat="44.86436" lon="1.43143">
        <ele>135.85374</ele>
        <time>2013-03-24T07:36:30Z</time>
      </trkpt>
      <trkpt lat="44.86434" lon="1.43173">
        <ele>135.55704</ele>
        <time>2013-03-24T07:36:27Z</time>
      </trkpt>
      <trkpt lat="44.86436" lon="1.43207">
        <ele>134.22408</ele>
        <time>2013-03-24T07:36:24Z</time>
      </trkpt>
      <trkpt lat="44.86437" lon="1.43241">
        <ele>133.98671</ele>
        <time>2013-03-24T07:36:21Z</time>
      </trkpt>
      <trkpt lat="44.86435" lon="1.4327">
        <ele>134.7537</ele>
        <time>2013-03-24T07:36:18Z</time>
      </trkpt>
      <trkpt lat="44.86435" lon="1.43302">
        <ele>134.07542</ele>
        <time>2013-03-24T07:36:15Z</time>
      </trkpt>
      <trkpt lat="44.86438" lon="1.43336">
        <ele>134.6121</ele>
        <time>2013-03-24T07:36:12Z</time>
      </trkpt>
      <trkpt lat="44.86432" lon="1.43368">
        <ele>134.86574</ele>
        <time>2013-03-24T07:36:09Z</time>
      </trkpt>
      <trkpt lat="44.8643" lon="1.43399">
        <ele>133.97063</ele>
        <time>2013-03-24T07:36:06Z</time>
      </trkpt>
      <trkpt lat="44.86431" lon="1.43431">
        <ele>133.70816</ele>
        <time>2013-03-24T07:36:03Z</time>
      </trkpt>
      <trkpt lat="44.86431" lon="1.43462">
        <ele>133.73416</ele>
        <time>2013-03-24T07:36:00Z</time>
      </trkpt>
      <trkpt lat="44.86434" lon="1.43494">
        <ele>134.00317</ele>
        <time>2013-03-24T07:35:57Z</time>
      </trkpt>
      <trkpt lat="44.86437" lon="1.43524">
        <ele>135.09273</ele>
        <time>2013-03-24T07:35:54Z</time>
      </trkpt>
      <trkpt lat="44.86436" lon="1.43554">
        <ele>135.10127</ele>
        <time>2013-03-24T07:35:51Z</time>
      </trkpt>
      <trkpt lat="44.8644" lon="1.43589">
        <ele>135.26228</ele>
        <time>2013-03-24T07:35:48Z</time>
      </trkpt>
      <trkpt lat="44.86442" lon="1.43615">
        <ele>135.11429</ele>
        <time>2013-03-24T07:35:45Z</time>
      </trkpt>
      <trkpt lat="44.86448" lon="1.43649">
        <ele>134.34128</ele>
        <time>2013-03-24T07:35:42Z</time>
      </trkpt>
      <trkpt lat="44.86451" lon="1.43679">
        <ele>134.60896</ele>
        <time>2013-03-24T07:35:39Z</time>
      </trkpt>
      <trkpt lat="44.86454" lon="1.43708">
        <ele>133.23976</ele>
        <time>2013-03-24T07:35:36Z</time>
      </trkpt>
      <trkpt lat="44.86461" lon="1.43738">
        <ele>133.09424</ele>
        <time>2013-03-24T07:35:33Z</time>
      </trkpt>
      <trkpt lat="44.86465" lon="1.43766">
        <ele>132.50854</ele>
        <time>2013-03-24T07:35:30Z</time>
      </trkpt>
      <trkpt lat="44.86472" lon="1.43795">
        <ele>133.16841</ele>
        <time>2013-03-24T07:35:27Z</time>
      </trkpt>
      <trkpt lat="44.86475" lon="1.43821">
        <ele>133.46587</ele>
        <time>2013-03-24T07:35:24Z</time>
      </trkpt>
      <trkpt lat="44.86484" lon="1.4385">
        <ele>133.47466</ele>
        <time>2013-03-24T07:35:21Z</time>
      </trkpt>
      <trkpt lat="44.8649" lon="1.43876">
        <ele>133.35104</ele>
        <time>2013-03-24T07:35:18Z</time>
      </trkpt>
      <trkpt lat="44.86502" lon="1.43909">
        <ele>132.82098</ele>
        <time>2013-03-24T07:35:15Z</time>
      </trkpt>
      <trkpt lat="44.86509" lon="1.43935">
        <ele>132.61641</ele>
        <time>2013-03-24T07:35:12Z</time>
      </trkpt>
      <trkpt lat="44.8652" lon="1.43965">
        <ele>132.26114</ele>
        <time>2013-03-24T07:35:09Z</time>
      </trkpt>
      <trkpt lat="44.86531" lon="1.43988">
        <ele>132.81528</ele>
        <time>2013-03-24T07:35:06Z</time>
      </trkpt>
      <trkpt lat="44.86545" lon="1.44016">
        <ele>132.68068</ele>
        <time>2013-03-24T07:35:03Z</time>
      </trkpt>
      <trkpt lat="44.86552" lon="1.44042">
        <ele>133.56529</ele>
        <time>2013-03-24T07:35:00Z</time>
      </trkpt>
      <trkpt lat="44.86565" lon="1.44063">
        <ele>133.62515</ele>
        <time>2013-03-24T07:34:57Z</time>
      </trkpt>
      <trkpt lat="44.86582" lon="1.44074">
        <ele>134.81146</ele>
        <time>2013-03-24T07:34:54Z</time>
      </trkpt>
      <trkpt lat="44.86601" lon="1.44077">
        <ele>135.32347</ele>
        <time>2013-03-24T07:34:51Z</time>
      </trkpt>
      <trkpt lat="44.86622" lon="1.4408">
        <ele>134.88896</ele>
        <time>2013-03-24T07:34:48Z</time>
      </trkpt>
      <trkpt lat="44.86645" lon="1.44079">
        <ele>134.47012</ele>
        <time>2013-03-24T07:34:45Z</time>
      </trkpt>
      <trkpt lat="44.86666" lon="1.4408">
        <ele>133.8329</ele>
        <time>2013-03-24T07:34:42Z</time>
      </trkpt>
      <trkpt lat="44.86688" lon="1.44089">
        <ele>133.73724</ele>
        <time>2013-03-24T07:34:39Z</time>
      </trkpt>
      <trkpt lat="44.86708" lon="1.44099">
        <ele>134.33273</ele>
        <time>2013-03-24T07:34:36Z</time>
      </trkpt>
      <trkpt lat="44.86733" lon="1.44104">
        <ele>135.61833</ele>
        <time>2013-03-24T07:34:33Z</time>
      </trkpt>
      <trkpt lat="44.86752" lon="1.44103">
        <ele>136.55457</ele>
        <time>2013-03-24T07:34:30Z</time>
      </trkpt>
      <trkpt lat="44.86774" lon="1.44106">
        <ele>136.7071</ele>
        <time>2013-03-24T07:34:27Z</time>
      </trkpt>
      <trkpt lat="44.86798" lon="1.44114">
        <ele>136.71317</ele>
        <time>2013-03-24T07:34:24Z</time>
      </trkpt>
      <trkpt lat="44.8682" lon="1.44122">
        <ele>136.37933</ele>
        <time>2013-03-24T07:34:21Z</time>
      </trkpt>
      <trkpt lat="44.86843" lon="1.44131">
        <ele>136.29176</ele>
        <time>2013-03-24T07:34:18Z</time>
      </trkpt>
      <trkpt lat="44.86864" lon="1.44147">
        <ele>136.74716</ele>
        <time>2013-03-24T07:34:15Z</time>
      </trkpt>
      <trkpt lat="44.86885" lon="1.4416">
        <ele>137.50066</ele>
        <time>2013-03-24T07:34:12Z</time>
      </trkpt>
      <trkpt lat="44.86907" lon="1.44173">
        <ele>137.66824</ele>
        <time>2013-03-24T07:34:09Z</time>
      </trkpt>
      <trkpt lat="44.8693" lon="1.4418">
        <ele>137.73953</ele>
        <time>2013-03-24T07:34:06Z</time>
      </trkpt>
      <trkpt lat="44.86953" lon="1.44186">
        <ele>137.33073</ele>
        <time>2013-03-24T07:34:03Z</time>
      </trkpt>
      <trkpt lat="44.8698" lon="1.44187">
        <ele>136.19876</ele>
        <time>2013-03-24T07:34:00Z</time>
      </trkpt>
      <trkpt lat="44.87002" lon="1.44193">
        <ele>135.21188</ele>
        <time>2013-03-24T07:33:57Z</time>
      </trkpt>
      <trkpt lat="44.87022" lon="1.44195">
        <ele>134.03188</ele>
        <time>2013-03-24T07:33:54Z</time>
      </trkpt>
      <trkpt lat="44.87046" lon="1.44196">
        <ele>133.36076</ele>
        <time>2013-03-24T07:33:51Z</time>
      </trkpt>
      <trkpt lat="44.87067" lon="1.44199">
        <ele>132.88846</ele>
        <time>2013-03-24T07:33:48Z</time>
      </trkpt>
      <trkpt lat="44.8709" lon="1.44202">
        <ele>133.02449</ele>
        <time>2013-03-24T07:33:45Z</time>
      </trkpt>
      <trkpt lat="44.87113" lon="1.44203">
        <ele>132.62843</ele>
        <time>2013-03-24T07:33:42Z</time>
      </trkpt>
      <trkpt lat="44.87137" lon="1.44201">
        <ele>131.64519</ele>
        <time>2013-03-24T07:33:39Z</time>
      </trkpt>
      <trkpt lat="44.87155" lon="1.44206">
        <ele>131.63304</ele>
        <time>2013-03-24T07:33:36Z</time>
      </trkpt>
      <trkpt lat="44.87175" lon="1.44211">
        <ele>131.38942</ele>
        <time>2013-03-24T07:33:33Z</time>
      </trkpt>
      <trkpt lat="44.87193" lon="1.44213">
        <ele>131.1812</ele>
        <time>2013-03-24T07:33:31Z</time>
      </trkpt>
      <trkpt lat="44.87217" lon="1.44218">
        <ele>130.65173</ele>
        <time>2013-03-24T07:33:28Z</time>
      </trkpt>
      <trkpt lat="44.87241" lon="1.44225">
        <ele>129.5004</ele>
        <time>2013-03-24T07:33:25Z</time>
      </trkpt>
      <trkpt lat="44.87261" lon="1.4423">
        <ele>128.3713</ele>
        <time>2013-03-24T07:33:22Z</time>
      </trkpt>
      <trkpt lat="44.8729" lon="1.44239">
        <ele>127.102356</ele>
        <time>2013-03-24T07:33:18Z</time>
      </trkpt>
      <trkpt lat="44.87311" lon="1.44255">
        <ele>126.73151</ele>
        <time>2013-03-24T07:33:15Z</time>
      </trkpt>
      <trkpt lat="44.87329" lon="1.44272">
        <ele>126.92653</ele>
        <time>2013-03-24T07:33:12Z</time>
      </trkpt>
      <trkpt lat="44.8735" lon="1.44288">
        <ele>127.270294</ele>
        <time>2013-03-24T07:33:09Z</time>
      </trkpt>
      <trkpt lat="44.8737" lon="1.44304">
        <ele>127.759224</ele>
        <time>2013-03-24T07:33:06Z</time>
      </trkpt>
      <trkpt lat="44.87391" lon="1.44321">
        <ele>128.26085</ele>
        <time>2013-03-24T07:33:03Z</time>
      </trkpt>
      <trkpt lat="44.87411" lon="1.44335">
        <ele>128.8294</ele>
        <time>2013-03-24T07:33:00Z</time>
      </trkpt>
      <trkpt lat="44.8743" lon="1.44355">
        <ele>128.65858</ele>
        <time>2013-03-24T07:32:57Z</time>
      </trkpt>
      <trkpt lat="44.8745" lon="1.44374">
        <ele>129.09442</ele>
        <time>2013-03-24T07:32:54Z</time>
      </trkpt>
      <trkpt lat="44.8747" lon="1.44395">
        <ele>129.99046</ele>
        <time>2013-03-24T07:32:51Z</time>
      </trkpt>
      <trkpt lat="44.87491" lon="1.4441">
        <ele>130.99593</ele>
        <time>2013-03-24T07:32:48Z</time>
      </trkpt>
      <trkpt lat="44.87507" lon="1.44433">
        <ele>132.06442</ele>
        <time>2013-03-24T07:32:45Z</time>
      </trkpt>
      <trkpt lat="44.87526" lon="1.44448">
        <ele>132.10085</ele>
        <time>2013-03-24T07:32:42Z</time>
      </trkpt>
      <trkpt lat="44.87548" lon="1.44466">
        <ele>132.14275</ele>
        <time>2013-03-24T07:32:39Z</time>
      </trkpt>
      <trkpt lat="44.87567" lon="1.44484">
        <ele>132.40504</ele>
        <time>2013-03-24T07:32:36Z</time>
      </trkpt>
      <trkpt lat="44.87588" lon="1.44505">
        <ele>132.74529</ele>
        <time>2013-03-24T07:32:33Z</time>
      </trkpt>
      <trkpt lat="44.87608" lon="1.4452">
        <ele>133.18143</ele>
        <time>2013-03-24T07:32:30Z</time>
      </trkpt>
      <trkpt lat="44.8763" lon="1.44531">
        <ele>133.64488</ele>
        <time>2013-03-24T07:32:27Z</time>
      </trkpt>
      <trkpt lat="44.87653" lon="1.44537">
        <ele>134.18416</ele>
        <time>2013-03-24T07:32:24Z</time>
      </trkpt>
      <trkpt lat="44.87677" lon="1.44546">
        <ele>134.66617</ele>
        <time>2013-03-24T07:32:21Z</time>
      </trkpt>
      <trkpt lat="44.87696" lon="1.4455">
        <ele>135.25095</ele>
        <time>2013-03-24T07:32:19Z</time>
      </trkpt>
      <trkpt lat="44.87719" lon="1.44562">
        <ele>135.79115</ele>
        <time>2013-03-24T07:32:16Z</time>
      </trkpt>
      <trkpt lat="44.87743" lon="1.44571">
        <ele>136.17902</ele>
        <time>2013-03-24T07:32:13Z</time>
      </trkpt>
      <trkpt lat="44.87765" lon="1.44578">
        <ele>136.94656</ele>
        <time>2013-03-24T07:32:10Z</time>
      </trkpt>
      <trkpt lat="44.87791" lon="1.44586">
        <ele>137.6548</ele>
        <time>2013-03-24T07:32:07Z</time>
      </trkpt>
      <trkpt lat="44.87815" lon="1.44601">
        <ele>138.20769</ele>
        <time>2013-03-24T07:32:04Z</time>
      </trkpt>
      <trkpt lat="44.87839" lon="1.44617">
        <ele>139.3886</ele>
        <time>2013-03-24T07:32:01Z</time>
      </trkpt>
      <trkpt lat="44.87858" lon="1.4463">
        <ele>140.21306</ele>
        <time>2013-03-24T07:31:59Z</time>
      </trkpt>
      <trkpt lat="44.87882" lon="1.44644">
        <ele>141.24945</ele>
        <time>2013-03-24T07:31:56Z</time>
      </trkpt>
      <trkpt lat="44.87898" lon="1.44658">
        <ele>141.7546</ele>
        <time>2013-03-24T07:31:54Z</time>
      </trkpt>
      <trkpt lat="44.87916" lon="1.44672">
        <ele>141.71927</ele>
        <time>2013-03-24T07:31:52Z</time>
      </trkpt>
      <trkpt lat="44.87932" lon="1.44685">
        <ele>141.84538</ele>
        <time>2013-03-24T07:31:50Z</time>
      </trkpt>
      <trkpt lat="44.8795" lon="1.44699">
        <ele>142.23622</ele>
        <time>2013-03-24T07:31:48Z</time>
      </trkpt>
      <trkpt lat="44.87968" lon="1.44714">
        <ele>142.73108</ele>
        <time>2013-03-24T07:31:46Z</time>
      </trkpt>
      <trkpt lat="44.87988" lon="1.44726">
        <ele>143.58858</ele>
        <time>2013-03-24T07:31:44Z</time>
      </trkpt>
      <trkpt lat="44.88007" lon="1.44737">
        <ele>144.51302</ele>
        <time>2013-03-24T07:31:42Z</time>
      </trkpt>
      <trkpt lat="44.88025" lon="1.44754">
        <ele>145.23425</ele>
        <time>2013-03-24T07:31:40Z</time>
      </trkpt>
      <trkpt lat="44.88047" lon="1.44762">
        <ele>145.41644</ele>
        <time>2013-03-24T07:31:38Z</time>
      </trkpt>
      <trkpt lat="44.88066" lon="1.44768">
        <ele>145.6959</ele>
        <time>2013-03-24T07:31:36Z</time>
      </trkpt>
      <trkpt lat="44.88088" lon="1.44772">
        <ele>145.70384</ele>
        <time>2013-03-24T07:31:34Z</time>
      </trkpt>
      <trkpt lat="44.8811" lon="1.44774">
        <ele>145.5846</ele>
        <time>2013-03-24T07:31:32Z</time>
      </trkpt>
      <trkpt lat="44.88127" lon="1.44779">
        <ele>145.70595</ele>
        <time>2013-03-24T07:31:30Z</time>
      </trkpt>
      <trkpt lat="44.88148" lon="1.44785">
        <ele>145.94391</ele>
        <time>2013-03-24T07:31:28Z</time>
      </trkpt>
      <trkpt lat="44.88169" lon="1.44789">
        <ele>146.2225</ele>
        <time>2013-03-24T07:31:26Z</time>
      </trkpt>
      <trkpt lat="44.88193" lon="1.44796">
        <ele>146.76224</ele>
        <time>2013-03-24T07:31:24Z</time>
      </trkpt>
      <trkpt lat="44.88213" lon="1.44802">
        <ele>146.95508</ele>
        <time>2013-03-24T07:31:22Z</time>
      </trkpt>
      <trkpt lat="44.88232" lon="1.44816">
        <ele>147.64236</ele>
        <time>2013-03-24T07:31:20Z</time>
      </trkpt>
      <trkpt lat="44.88247" lon="1.44835">
        <ele>148.14198</ele>
        <time>2013-03-24T07:31:18Z</time>
      </trkpt>
      <trkpt lat="44.88255" lon="1.44861">
        <ele>148.50797</ele>
        <time>2013-03-24T07:31:16Z</time>
      </trkpt>
      <trkpt lat="44.88258" lon="1.44889">
        <ele>149.18083</ele>
        <time>2013-03-24T07:31:14Z</time>
      </trkpt>
      <trkpt lat="44.88271" lon="1.44919">
        <ele>150.22124</ele>
        <time>2013-03-24T07:31:11Z</time>
      </trkpt>
      <trkpt lat="44.88283" lon="1.4494">
        <ele>150.62663</ele>
        <time>2013-03-24T07:31:09Z</time>
      </trkpt>
      <trkpt lat="44.88304" lon="1.44947">
        <ele>150.43625</ele>
        <time>2013-03-24T07:31:07Z</time>
      </trkpt>
      <trkpt lat="44.88326" lon="1.44959">
        <ele>149.37851</ele>
        <time>2013-03-24T07:31:04Z</time>
      </trkpt>
      <trkpt lat="44.88346" lon="1.44973">
        <ele>149.0083</ele>
        <time>2013-03-24T07:31:01Z</time>
      </trkpt>
      <trkpt lat="44.88362" lon="1.44988">
        <ele>148.90857</ele>
        <time>2013-03-24T07:30:58Z</time>
      </trkpt>
      <trkpt lat="44.8838" lon="1.45004">
        <ele>149.61662</ele>
        <time>2013-03-24T07:30:55Z</time>
      </trkpt>
      <trkpt lat="44.88396" lon="1.45024">
        <ele>150.36533</ele>
        <time>2013-03-24T07:30:52Z</time>
      </trkpt>
      <trkpt lat="44.88414" lon="1.45047">
        <ele>151.08917</ele>
        <time>2013-03-24T07:30:48Z</time>
      </trkpt>
      <trkpt lat="44.8843" lon="1.45059">
        <ele>151.39655</ele>
        <time>2013-03-24T07:30:45Z</time>
      </trkpt>
      <trkpt lat="44.88448" lon="1.45068">
        <ele>151.61772</ele>
        <time>2013-03-24T07:30:42Z</time>
      </trkpt>
      <trkpt lat="44.88468" lon="1.45089">
        <ele>152.01898</ele>
        <time>2013-03-24T07:30:38Z</time>
      </trkpt>
      <trkpt lat="44.88486" lon="1.45101">
        <ele>152.18573</ele>
        <time>2013-03-24T07:30:35Z</time>
      </trkpt>
      <trkpt lat="44.88505" lon="1.45112">
        <ele>152.5884</ele>
        <time>2013-03-24T07:30:32Z</time>
      </trkpt>
      <trkpt lat="44.88522" lon="1.45128">
        <ele>153.86879</ele>
        <time>2013-03-24T07:30:29Z</time>
      </trkpt>
      <trkpt lat="44.88548" lon="1.45139">
        <ele>154.84082</ele>
        <time>2013-03-24T07:30:26Z</time>
      </trkpt>
      <trkpt lat="44.88564" lon="1.45154">
        <ele>156.12268</ele>
        <time>2013-03-24T07:30:23Z</time>
      </trkpt>
      <trkpt lat="44.88584" lon="1.45169">
        <ele>158.1908</ele>
        <time>2013-03-24T07:30:20Z</time>
      </trkpt>
      <trkpt lat="44.886" lon="1.45187">
        <ele>160.38559</ele>
        <time>2013-03-24T07:30:17Z</time>
      </trkpt>
      <trkpt lat="44.88624" lon="1.45205">
        <ele>163.10753</ele>
        <time>2013-03-24T07:30:13Z</time>
      </trkpt>
      <trkpt lat="44.88644" lon="1.45224">
        <ele>164.33246</ele>
        <time>2013-03-24T07:30:09Z</time>
      </trkpt>
      <trkpt lat="44.88661" lon="1.45238">
        <ele>164.97324</ele>
        <time>2013-03-24T07:30:06Z</time>
      </trkpt>
      <trkpt lat="44.88679" lon="1.45253">
        <ele>166.32915</ele>
        <time>2013-03-24T07:30:03Z</time>
      </trkpt>
      <trkpt lat="44.88691" lon="1.45274">
        <ele>169.90718</ele>
        <time>2013-03-24T07:29:58Z</time>
      </trkpt>
      <trkpt lat="44.88683" lon="1.45299">
        <ele>172.29802</ele>
        <time>2013-03-24T07:29:54Z</time>
      </trkpt>
      <trkpt lat="44.88676" lon="1.45328">
        <ele>174.5842</ele>
        <time>2013-03-24T07:29:51Z</time>
      </trkpt>
      <trkpt lat="44.8867" lon="1.45363">
        <ele>177.54774</ele>
        <time>2013-03-24T07:29:48Z</time>
      </trkpt>
      <trkpt lat="44.8867" lon="1.45402">
        <ele>180.86131</ele>
        <time>2013-03-24T07:29:45Z</time>
      </trkpt>
      <trkpt lat="44.88667" lon="1.45437">
        <ele>183.42012</ele>
        <time>2013-03-24T07:29:43Z</time>
      </trkpt>
      <trkpt lat="44.88684" lon="1.45464">
        <ele>184.51807</ele>
        <time>2013-03-24T07:29:40Z</time>
      </trkpt>
      <trkpt lat="44.88697" lon="1.45486">
        <ele>184.321</ele>
        <time>2013-03-24T07:29:38Z</time>
      </trkpt>
      <trkpt lat="44.88713" lon="1.45502">
        <ele>184.004</ele>
        <time>2013-03-24T07:29:36Z</time>
      </trkpt>
      <trkpt lat="44.88729" lon="1.45519">
        <ele>183.80711</ele>
        <time>2013-03-24T07:29:34Z</time>
      </trkpt>
      <trkpt lat="44.88748" lon="1.4553">
        <ele>183.83487</ele>
        <time>2013-03-24T07:29:32Z</time>
      </trkpt>
      <trkpt lat="44.88769" lon="1.45542">
        <ele>184.01753</ele>
        <time>2013-03-24T07:29:30Z</time>
      </trkpt>
      <trkpt lat="44.88787" lon="1.45554">
        <ele>184.27562</ele>
        <time>2013-03-24T07:29:28Z</time>
      </trkpt>
      <trkpt lat="44.88804" lon="1.45564">
        <ele>184.76776</ele>
        <time>2013-03-24T07:29:26Z</time>
      </trkpt>
      <trkpt lat="44.88822" lon="1.45579">
        <ele>185.38713</ele>
        <time>2013-03-24T07:29:24Z</time>
      </trkpt>
      <trkpt lat="44.8884" lon="1.45593">
        <ele>186.16602</ele>
        <time>2013-03-24T07:29:22Z</time>
      </trkpt>
      <trkpt lat="44.88859" lon="1.45619">
        <ele>188.33427</ele>
        <time>2013-03-24T07:29:19Z</time>
      </trkpt>
      <trkpt lat="44.88873" lon="1.45642">
        <ele>190.01648</ele>
        <time>2013-03-24T07:29:17Z</time>
      </trkpt>
      <trkpt lat="44.88883" lon="1.45668">
        <ele>191.89595</ele>
        <time>2013-03-24T07:29:15Z</time>
      </trkpt>
      <trkpt lat="44.88891" lon="1.45691">
        <ele>193.07059</ele>
        <time>2013-03-24T07:29:13Z</time>
      </trkpt>
      <trkpt lat="44.88904" lon="1.45716">
        <ele>193.14772</ele>
        <time>2013-03-24T07:29:11Z</time>
      </trkpt>
      <trkpt lat="44.88917" lon="1.4574">
        <ele>193.30705</ele>
        <time>2013-03-24T07:29:09Z</time>
      </trkpt>
      <trkpt lat="44.8893" lon="1.45759">
        <ele>193.54587</ele>
        <time>2013-03-24T07:29:07Z</time>
      </trkpt>
      <trkpt lat="44.88947" lon="1.45786">
        <ele>194.76799</ele>
        <time>2013-03-24T07:29:04Z</time>
      </trkpt>
      <trkpt lat="44.88965" lon="1.45813">
        <ele>197.51303</ele>
        <time>2013-03-24T07:29:01Z</time>
      </trkpt>
      <trkpt lat="44.88975" lon="1.45838">
        <ele>199.4565</ele>
        <time>2013-03-24T07:28:59Z</time>
      </trkpt>
      <trkpt lat="44.88982" lon="1.45863">
        <ele>201.34488</ele>
        <time>2013-03-24T07:28:57Z</time>
      </trkpt>
      <trkpt lat="44.88988" lon="1.4589">
        <ele>203.13536</ele>
        <time>2013-03-24T07:28:55Z</time>
      </trkpt>
      <trkpt lat="44.88994" lon="1.45925">
        <ele>206.03935</ele>
        <time>2013-03-24T07:28:52Z</time>
      </trkpt>
      <trkpt lat="44.8899" lon="1.4596">
        <ele>208.48589</ele>
        <time>2013-03-24T07:28:49Z</time>
      </trkpt>
      <trkpt lat="44.88979" lon="1.45989">
        <ele>209.07765</ele>
        <time>2013-03-24T07:28:46Z</time>
      </trkpt>
      <trkpt lat="44.88962" lon="1.46004">
        <ele>210.40997</ele>
        <time>2013-03-24T07:28:43Z</time>
      </trkpt>
      <trkpt lat="44.88937" lon="1.4602">
        <ele>211.59819</ele>
        <time>2013-03-24T07:28:39Z</time>
      </trkpt>
      <trkpt lat="44.88921" lon="1.4603">
        <ele>212.25497</ele>
        <time>2013-03-24T07:28:36Z</time>
      </trkpt>
      <trkpt lat="44.88899" lon="1.46044">
        <ele>212.37868</ele>
        <time>2013-03-24T07:28:32Z</time>
      </trkpt>
      <trkpt lat="44.88881" lon="1.46062">
        <ele>212.83757</ele>
        <time>2013-03-24T07:28:28Z</time>
      </trkpt>
      <trkpt lat="44.88865" lon="1.46082">
        <ele>212.50388</ele>
        <time>2013-03-24T07:28:25Z</time>
      </trkpt>
      <trkpt lat="44.88849" lon="1.46098">
        <ele>211.71658</ele>
        <time>2013-03-24T07:28:22Z</time>
      </trkpt>
      <trkpt lat="44.88833" lon="1.4612">
        <ele>210.50969</ele>
        <time>2013-03-24T07:28:19Z</time>
      </trkpt>
      <trkpt lat="44.88813" lon="1.46141">
        <ele>208.97876</ele>
        <time>2013-03-24T07:28:15Z</time>
      </trkpt>
      <trkpt lat="44.88795" lon="1.46152">
        <ele>208.32745</ele>
        <time>2013-03-24T07:28:12Z</time>
      </trkpt>
      <trkpt lat="44.88779" lon="1.46164">
        <ele>207.26877</ele>
        <time>2013-03-24T07:28:09Z</time>
      </trkpt>
      <trkpt lat="44.88758" lon="1.46166">
        <ele>206.9877</ele>
        <time>2013-03-24T07:28:05Z</time>
      </trkpt>
      <trkpt lat="44.88736" lon="1.46161">
        <ele>206.14754</ele>
        <time>2013-03-24T07:28:01Z</time>
      </trkpt>
      <trkpt lat="44.88716" lon="1.46157">
        <ele>206.7386</ele>
        <time>2013-03-24T07:27:58Z</time>
      </trkpt>
      <trkpt lat="44.88694" lon="1.46164">
        <ele>208.02483</ele>
        <time>2013-03-24T07:27:55Z</time>
      </trkpt>
      <trkpt lat="44.88678" lon="1.46176">
        <ele>208.89969</ele>
        <time>2013-03-24T07:27:53Z</time>
      </trkpt>
      <trkpt lat="44.88659" lon="1.46195">
        <ele>209.46223</ele>
        <time>2013-03-24T07:27:50Z</time>
      </trkpt>
      <trkpt lat="44.88639" lon="1.46215">
        <ele>209.36235</ele>
        <time>2013-03-24T07:27:47Z</time>
      </trkpt>
      <trkpt lat="44.88621" lon="1.4624">
        <ele>208.73668</ele>
        <time>2013-03-24T07:27:44Z</time>
      </trkpt>
      <trkpt lat="44.88603" lon="1.46268">
        <ele>208.04991</ele>
        <time>2013-03-24T07:27:41Z</time>
      </trkpt>
      <trkpt lat="44.88592" lon="1.46294">
        <ele>207.34792</ele>
        <time>2013-03-24T07:27:38Z</time>
      </trkpt>
      <trkpt lat="44.88581" lon="1.46323">
        <ele>206.70248</ele>
        <time>2013-03-24T07:27:35Z</time>
      </trkpt>
      <trkpt lat="44.8857" lon="1.46348">
        <ele>206.57996</ele>
        <time>2013-03-24T07:27:32Z</time>
      </trkpt>
      <trkpt lat="44.8855" lon="1.46372">
        <ele>206.28583</ele>
        <time>2013-03-24T07:27:29Z</time>
      </trkpt>
      <trkpt lat="44.88529" lon="1.46382">
        <ele>205.42937</ele>
        <time>2013-03-24T07:27:26Z</time>
      </trkpt>
      <trkpt lat="44.88506" lon="1.46389">
        <ele>204.55205</ele>
        <time>2013-03-24T07:27:22Z</time>
      </trkpt>
      <trkpt lat="44.88482" lon="1.46386">
        <ele>204.61884</ele>
        <time>2013-03-24T07:27:18Z</time>
      </trkpt>
      <trkpt lat="44.88462" lon="1.46391">
        <ele>204.59904</ele>
        <time>2013-03-24T07:27:14Z</time>
      </trkpt>
      <trkpt lat="44.88458" lon="1.46422">
        <ele>206.33156</ele>
        <time>2013-03-24T07:27:10Z</time>
      </trkpt>
      <trkpt lat="44.88463" lon="1.46451">
        <ele>207.81456</ele>
        <time>2013-03-24T07:27:06Z</time>
      </trkpt>
      <trkpt lat="44.88462" lon="1.46477">
        <ele>208.06044</ele>
        <time>2013-03-24T07:27:03Z</time>
      </trkpt>
      <trkpt lat="44.88456" lon="1.46503">
        <ele>208.00745</ele>
        <time>2013-03-24T07:27:01Z</time>
      </trkpt>
      <trkpt lat="44.8845" lon="1.4653">
        <ele>207.58803</ele>
        <time>2013-03-24T07:26:58Z</time>
      </trkpt>
      <trkpt lat="44.88441" lon="1.46561">
        <ele>206.9457</ele>
        <time>2013-03-24T07:26:55Z</time>
      </trkpt>
      <trkpt lat="44.88435" lon="1.4659">
        <ele>206.23053</ele>
        <time>2013-03-24T07:26:52Z</time>
      </trkpt>
      <trkpt lat="44.88431" lon="1.46619">
        <ele>205.24461</ele>
        <time>2013-03-24T07:26:48Z</time>
      </trkpt>
      <trkpt lat="44.88432" lon="1.46648">
        <ele>205.9509</ele>
        <time>2013-03-24T07:26:44Z</time>
      </trkpt>
      <trkpt lat="44.88425" lon="1.46673">
        <ele>206.13176</ele>
        <time>2013-03-24T07:26:41Z</time>
      </trkpt>
      <trkpt lat="44.88406" lon="1.46683">
        <ele>206.61603</ele>
        <time>2013-03-24T07:26:38Z</time>
      </trkpt>
      <trkpt lat="44.88383" lon="1.46689">
        <ele>207.45651</ele>
        <time>2013-03-24T07:26:35Z</time>
      </trkpt>
      <trkpt lat="44.88361" lon="1.46694">
        <ele>208.63766</ele>
        <time>2013-03-24T07:26:32Z</time>
      </trkpt>
      <trkpt lat="44.88338" lon="1.46695">
        <ele>210.37448</ele>
        <time>2013-03-24T07:26:29Z</time>
      </trkpt>
      <trkpt lat="44.88316" lon="1.46709">
        <ele>211.68764</ele>
        <time>2013-03-24T07:26:26Z</time>
      </trkpt>
      <trkpt lat="44.88315" lon="1.46737">
        <ele>211.29675</ele>
        <time>2013-03-24T07:26:22Z</time>
      </trkpt>
      <trkpt lat="44.88333" lon="1.4675">
        <ele>210.86873</ele>
        <time>2013-03-24T07:26:18Z</time>
      </trkpt>
      <trkpt lat="44.88353" lon="1.46764">
        <ele>211.08759</ele>
        <time>2013-03-24T07:26:14Z</time>
      </trkpt>
      <trkpt lat="44.88373" lon="1.4677">
        <ele>211.38538</ele>
        <time>2013-03-24T07:26:11Z</time>
      </trkpt>
      <trkpt lat="44.88396" lon="1.46777">
        <ele>211.47276</ele>
        <time>2013-03-24T07:26:08Z</time>
      </trkpt>
      <trkpt lat="44.88417" lon="1.46783">
        <ele>211.7169</ele>
        <time>2013-03-24T07:26:05Z</time>
      </trkpt>
      <trkpt lat="44.88436" lon="1.46796">
        <ele>212.34747</ele>
        <time>2013-03-24T07:26:02Z</time>
      </trkpt>
      <trkpt lat="44.88451" lon="1.46811">
        <ele>213.43475</ele>
        <time>2013-03-24T07:25:59Z</time>
      </trkpt>
      <trkpt lat="44.88445" lon="1.46839">
        <ele>214.45645</ele>
        <time>2013-03-24T07:25:56Z</time>
      </trkpt>
      <trkpt lat="44.88431" lon="1.46856">
        <ele>214.8116</ele>
        <time>2013-03-24T07:25:53Z</time>
      </trkpt>
      <trkpt lat="44.88414" lon="1.4687">
        <ele>214.93173</ele>
        <time>2013-03-24T07:25:51Z</time>
      </trkpt>
      <trkpt lat="44.88393" lon="1.46886">
        <ele>215.52338</ele>
        <time>2013-03-24T07:25:48Z</time>
      </trkpt>
      <trkpt lat="44.88376" lon="1.46899">
        <ele>216.28503</ele>
        <time>2013-03-24T07:25:45Z</time>
      </trkpt>
      <trkpt lat="44.88357" lon="1.46911">
        <ele>217.32677</ele>
        <time>2013-03-24T07:25:41Z</time>
      </trkpt>
      <trkpt lat="44.88338" lon="1.46923">
        <ele>216.68152</ele>
        <time>2013-03-24T07:25:36Z</time>
      </trkpt>
      <trkpt lat="44.8832" lon="1.46935">
        <ele>217.0095</ele>
        <time>2013-03-24T07:25:32Z</time>
      </trkpt>
      <trkpt lat="44.88302" lon="1.46945">
        <ele>217.23003</ele>
        <time>2013-03-24T07:25:28Z</time>
      </trkpt>
      <trkpt lat="44.88284" lon="1.46955">
        <ele>217.39491</ele>
        <time>2013-03-24T07:25:24Z</time>
      </trkpt>
      <trkpt lat="44.88268" lon="1.46969">
        <ele>217.67528</ele>
        <time>2013-03-24T07:25:20Z</time>
      </trkpt>
      <trkpt lat="44.8825" lon="1.46981">
        <ele>217.57619</ele>
        <time>2013-03-24T07:25:16Z</time>
      </trkpt>
      <trkpt lat="44.88234" lon="1.46998">
        <ele>216.07288</ele>
        <time>2013-03-24T07:25:12Z</time>
      </trkpt>
      <trkpt lat="44.88216" lon="1.47018">
        <ele>213.1775</ele>
        <time>2013-03-24T07:25:07Z</time>
      </trkpt>
      <trkpt lat="44.88203" lon="1.47035">
        <ele>210.88939</ele>
        <time>2013-03-24T07:25:03Z</time>
      </trkpt>
      <trkpt lat="44.8819" lon="1.47055">
        <ele>207.31082</ele>
        <time>2013-03-24T07:24:58Z</time>
      </trkpt>
      <trkpt lat="44.88185" lon="1.4708">
        <ele>203.87027</ele>
        <time>2013-03-24T07:24:52Z</time>
      </trkpt>
      <trkpt lat="44.8818" lon="1.47109">
        <ele>201.42783</ele>
        <time>2013-03-24T07:24:47Z</time>
      </trkpt>
      <trkpt lat="44.88177" lon="1.47139">
        <ele>200.30038</ele>
        <time>2013-03-24T07:24:42Z</time>
      </trkpt>
      <trkpt lat="44.88178" lon="1.47167">
        <ele>199.1749</ele>
        <time>2013-03-24T07:24:37Z</time>
      </trkpt>
      <trkpt lat="44.88175" lon="1.47196">
        <ele>199.31519</ele>
        <time>2013-03-24T07:24:32Z</time>
      </trkpt>
      <trkpt lat="44.88163" lon="1.47221">
        <ele>199.32365</ele>
        <time>2013-03-24T07:24:27Z</time>
      </trkpt>
      <trkpt lat="44.88148" lon="1.47239">
        <ele>198.82106</ele>
        <time>2013-03-24T07:24:22Z</time>
      </trkpt>
      <trkpt lat="44.88131" lon="1.4725">
        <ele>198.28465</ele>
        <time>2013-03-24T07:24:17Z</time>
      </trkpt>
      <trkpt lat="44.88112" lon="1.47262">
        <ele>197.3909</ele>
        <time>2013-03-24T07:24:12Z</time>
      </trkpt>
      <trkpt lat="44.88092" lon="1.47274">
        <ele>195.5563</ele>
        <time>2013-03-24T07:24:07Z</time>
      </trkpt>
      <trkpt lat="44.88075" lon="1.47292">
        <ele>194.39038</ele>
        <time>2013-03-24T07:24:02Z</time>
      </trkpt>
      <trkpt lat="44.8806" lon="1.4731">
        <ele>192.42078</ele>
        <time>2013-03-24T07:23:57Z</time>
      </trkpt>
      <trkpt lat="44.88043" lon="1.4733">
        <ele>190.58841</ele>
        <time>2013-03-24T07:23:52Z</time>
      </trkpt>
      <trkpt lat="44.8803" lon="1.47353">
        <ele>189.4557</ele>
        <time>2013-03-24T07:23:46Z</time>
      </trkpt>
      <trkpt lat="44.88024" lon="1.47379">
        <ele>189.7899</ele>
        <time>2013-03-24T07:23:41Z</time>
      </trkpt>
      <trkpt lat="44.88028" lon="1.47406">
        <ele>190.70805</ele>
        <time>2013-03-24T07:23:36Z</time>
      </trkpt>
      <trkpt lat="44.88027" lon="1.47438">
        <ele>190.58829</ele>
        <time>2013-03-24T07:23:31Z</time>
      </trkpt>
      <trkpt lat="44.88021" lon="1.47468">
        <ele>188.86958</ele>
        <time>2013-03-24T07:23:26Z</time>
      </trkpt>
      <trkpt lat="44.88012" lon="1.47492">
        <ele>187.29443</ele>
        <time>2013-03-24T07:23:21Z</time>
      </trkpt>
      <trkpt lat="44.87995" lon="1.47509">
        <ele>186.2959</ele>
        <time>2013-03-24T07:23:16Z</time>
      </trkpt>
      <trkpt lat="44.87977" lon="1.47511">
        <ele>184.97163</ele>
        <time>2013-03-24T07:23:11Z</time>
      </trkpt>
      <trkpt lat="44.87957" lon="1.47502">
        <ele>184.85495</ele>
        <time>2013-03-24T07:23:06Z</time>
      </trkpt>
      <trkpt lat="44.87936" lon="1.4749">
        <ele>183.96242</ele>
        <time>2013-03-24T07:23:01Z</time>
      </trkpt>
      <trkpt lat="44.87918" lon="1.4748">
        <ele>183.35161</ele>
        <time>2013-03-24T07:22:57Z</time>
      </trkpt>
      <trkpt lat="44.87902" lon="1.47465">
        <ele>181.57552</ele>
        <time>2013-03-24T07:22:52Z</time>
      </trkpt>
      <trkpt lat="44.87881" lon="1.47467">
        <ele>180.69888</ele>
        <time>2013-03-24T07:22:47Z</time>
      </trkpt>
      <trkpt lat="44.87876" lon="1.47494">
        <ele>179.42982</ele>
        <time>2013-03-24T07:22:43Z</time>
      </trkpt>
      <trkpt lat="44.87881" lon="1.47519">
        <ele>177.37326</ele>
        <time>2013-03-24T07:22:39Z</time>
      </trkpt>
      <trkpt lat="44.87895" lon="1.47536">
        <ele>173.63463</ele>
        <time>2013-03-24T07:22:34Z</time>
      </trkpt>
      <trkpt lat="44.87912" lon="1.47552">
        <ele>170.60953</ele>
        <time>2013-03-24T07:22:28Z</time>
      </trkpt>
      <trkpt lat="44.87923" lon="1.47577">
        <ele>167.40198</ele>
        <time>2013-03-24T07:22:21Z</time>
      </trkpt>
      <trkpt lat="44.87939" lon="1.47595">
        <ele>165.03847</ele>
        <time>2013-03-24T07:22:13Z</time>
      </trkpt>
      <trkpt lat="44.87954" lon="1.4761">
        <ele>166.41684</ele>
        <time>2013-03-24T07:22:08Z</time>
      </trkpt>
      <trkpt lat="44.87975" lon="1.47622">
        <ele>167.10382</ele>
        <time>2013-03-24T07:22:04Z</time>
      </trkpt>
      <trkpt lat="44.87992" lon="1.47638">
        <ele>165.84048</ele>
        <time>2013-03-24T07:22:00Z</time>
      </trkpt>
      <trkpt lat="44.8801" lon="1.47645">
        <ele>162.96608</ele>
        <time>2013-03-24T07:21:55Z</time>
      </trkpt>
      <trkpt lat="44.88031" lon="1.47645">
        <ele>159.45236</ele>
        <time>2013-03-24T07:21:49Z</time>
      </trkpt>
      <trkpt lat="44.88047" lon="1.4766">
        <ele>159.05728</ele>
        <time>2013-03-24T07:21:44Z</time>
      </trkpt>
      <trkpt lat="44.88055" lon="1.47686">
        <ele>158.32442</ele>
        <time>2013-03-24T07:21:38Z</time>
      </trkpt>
      <trkpt lat="44.88053" lon="1.47712">
        <ele>157.31792</ele>
        <time>2013-03-24T07:21:34Z</time>
      </trkpt>
      <trkpt lat="44.88046" lon="1.47738">
        <ele>154.63274</ele>
        <time>2013-03-24T07:21:29Z</time>
      </trkpt>
      <trkpt lat="44.8804" lon="1.47765">
        <ele>152.2614</ele>
        <time>2013-03-24T07:21:24Z</time>
      </trkpt>
      <trkpt lat="44.88035" lon="1.4779">
        <ele>151.61589</ele>
        <time>2013-03-24T07:21:21Z</time>
      </trkpt>
      <trkpt lat="44.88025" lon="1.47816">
        <ele>149.70032</ele>
        <time>2013-03-24T07:21:16Z</time>
      </trkpt>
      <trkpt lat="44.88015" lon="1.47838">
        <ele>147.11658</ele>
        <time>2013-03-24T07:21:11Z</time>
      </trkpt>
      <trkpt lat="44.88008" lon="1.47864">
        <ele>145.63731</ele>
        <time>2013-03-24T07:21:06Z</time>
      </trkpt>
      <trkpt lat="44.87999" lon="1.47887">
        <ele>144.47365</ele>
        <time>2013-03-24T07:21:03Z</time>
      </trkpt>
      <trkpt lat="44.87993" lon="1.47913">
        <ele>143.99573</ele>
        <time>2013-03-24T07:20:59Z</time>
      </trkpt>
      <trkpt lat="44.87985" lon="1.47946">
        <ele>143.4408</ele>
        <time>2013-03-24T07:20:55Z</time>
      </trkpt>
      <trkpt lat="44.87978" lon="1.4797">
        <ele>142.37585</ele>
        <time>2013-03-24T07:20:51Z</time>
      </trkpt>
      <trkpt lat="44.87974" lon="1.47997">
        <ele>141.51256</ele>
        <time>2013-03-24T07:20:47Z</time>
      </trkpt>
      <trkpt lat="44.87983" lon="1.48029">
        <ele>141.11252</ele>
        <time>2013-03-24T07:20:43Z</time>
      </trkpt>
      <trkpt lat="44.87996" lon="1.48049">
        <ele>141.00006</ele>
        <time>2013-03-24T07:20:40Z</time>
      </trkpt>
      <trkpt lat="44.8801" lon="1.48071">
        <ele>141.01865</ele>
        <time>2013-03-24T07:20:37Z</time>
      </trkpt>
      <trkpt lat="44.88025" lon="1.48093">
        <ele>141.09236</ele>
        <time>2013-03-24T07:20:34Z</time>
      </trkpt>
      <trkpt lat="44.88037" lon="1.48113">
        <ele>140.47449</ele>
        <time>2013-03-24T07:20:31Z</time>
      </trkpt>
      <trkpt lat="44.88052" lon="1.48136">
        <ele>139.9062</ele>
        <time>2013-03-24T07:20:28Z</time>
      </trkpt>
      <trkpt lat="44.88066" lon="1.48159">
        <ele>139.93692</ele>
        <time>2013-03-24T07:20:25Z</time>
      </trkpt>
      <trkpt lat="44.88076" lon="1.48182">
        <ele>140.02454</ele>
        <time>2013-03-24T07:20:22Z</time>
      </trkpt>
      <trkpt lat="44.8809" lon="1.482">
        <ele>139.51744</ele>
        <time>2013-03-24T07:20:19Z</time>
      </trkpt>
      <trkpt lat="44.88104" lon="1.48224">
        <ele>139.6699</ele>
        <time>2013-03-24T07:20:15Z</time>
      </trkpt>
      <trkpt lat="44.88118" lon="1.48245">
        <ele>139.94441</ele>
        <time>2013-03-24T07:20:11Z</time>
      </trkpt>
      <trkpt lat="44.88131" lon="1.48266">
        <ele>140.20158</ele>
        <time>2013-03-24T07:20:08Z</time>
      </trkpt>
      <trkpt lat="44.88146" lon="1.48291">
        <ele>140.5149</ele>
        <time>2013-03-24T07:20:04Z</time>
      </trkpt>
      <trkpt lat="44.88162" lon="1.48317">
        <ele>140.80263</ele>
        <time>2013-03-24T07:20:00Z</time>
      </trkpt>
      <trkpt lat="44.88175" lon="1.48338">
        <ele>141.00623</ele>
        <time>2013-03-24T07:19:57Z</time>
      </trkpt>
      <trkpt lat="44.88189" lon="1.48361">
        <ele>140.57771</ele>
        <time>2013-03-24T07:19:54Z</time>
      </trkpt>
      <trkpt lat="44.88201" lon="1.48381">
        <ele>140.30273</ele>
        <time>2013-03-24T07:19:51Z</time>
      </trkpt>
      <trkpt lat="44.88214" lon="1.48401">
        <ele>139.79906</ele>
        <time>2013-03-24T07:19:48Z</time>
      </trkpt>
      <trkpt lat="44.88226" lon="1.48421">
        <ele>139.40889</ele>
        <time>2013-03-24T07:19:45Z</time>
      </trkpt>
      <trkpt lat="44.88239" lon="1.48446">
        <ele>139.5145</ele>
        <time>2013-03-24T07:19:41Z</time>
      </trkpt>
      <trkpt lat="44.88252" lon="1.48471">
        <ele>140.46432</ele>
        <time>2013-03-24T07:19:37Z</time>
      </trkpt>
      <trkpt lat="44.88269" lon="1.48495">
        <ele>141.7922</ele>
        <time>2013-03-24T07:19:33Z</time>
      </trkpt>
      <trkpt lat="44.88281" lon="1.48514">
        <ele>142.71857</ele>
        <time>2013-03-24T07:19:30Z</time>
      </trkpt>
      <trkpt lat="44.88297" lon="1.4854">
        <ele>144.38087</ele>
        <time>2013-03-24T07:19:26Z</time>
      </trkpt>
      <trkpt lat="44.88311" lon="1.48564">
        <ele>146.88278</ele>
        <time>2013-03-24T07:19:22Z</time>
      </trkpt>
      <trkpt lat="44.88324" lon="1.48584">
        <ele>148.78511</ele>
        <time>2013-03-24T07:19:19Z</time>
      </trkpt>
      <trkpt lat="44.88333" lon="1.48606">
        <ele>150.42024</ele>
        <time>2013-03-24T07:19:16Z</time>
      </trkpt>
      <trkpt lat="44.88346" lon="1.48629">
        <ele>150.5628</ele>
        <time>2013-03-24T07:19:13Z</time>
      </trkpt>
      <trkpt lat="44.88366" lon="1.48645">
        <ele>149.11948</ele>
        <time>2013-03-24T07:19:09Z</time>
      </trkpt>
      <trkpt lat="44.88384" lon="1.48635">
        <ele>148.30544</ele>
        <time>2013-03-24T07:19:06Z</time>
      </trkpt>
      <trkpt lat="44.88405" lon="1.48621">
        <ele>147.17397</ele>
        <time>2013-03-24T07:19:02Z</time>
      </trkpt>
      <trkpt lat="44.88428" lon="1.48607">
        <ele>146.68684</ele>
        <time>2013-03-24T07:18:58Z</time>
      </trkpt>
      <trkpt lat="44.88444" lon="1.48594">
        <ele>146.95772</ele>
        <time>2013-03-24T07:18:55Z</time>
      </trkpt>
      <trkpt lat="44.88462" lon="1.48579">
        <ele>147.2257</ele>
        <time>2013-03-24T07:18:52Z</time>
      </trkpt>
      <trkpt lat="44.88478" lon="1.48567">
        <ele>147.7646</ele>
        <time>2013-03-24T07:18:49Z</time>
      </trkpt>
      <trkpt lat="44.88494" lon="1.48547">
        <ele>148.61609</ele>
        <time>2013-03-24T07:18:46Z</time>
      </trkpt>
      <trkpt lat="44.8851" lon="1.48525">
        <ele>150.14099</ele>
        <time>2013-03-24T07:18:42Z</time>
      </trkpt>
      <trkpt lat="44.88524" lon="1.48508">
        <ele>152.24902</ele>
        <time>2013-03-24T07:18:39Z</time>
      </trkpt>
      <trkpt lat="44.88539" lon="1.4849">
        <ele>153.4199</ele>
        <time>2013-03-24T07:18:36Z</time>
      </trkpt>
      <trkpt lat="44.88558" lon="1.48471">
        <ele>154.29904</ele>
        <time>2013-03-24T07:18:33Z</time>
      </trkpt>
      <trkpt lat="44.88577" lon="1.48455">
        <ele>154.3496</ele>
        <time>2013-03-24T07:18:30Z</time>
      </trkpt>
      <trkpt lat="44.88589" lon="1.48433">
        <ele>154.37312</ele>
        <time>2013-03-24T07:18:27Z</time>
      </trkpt>
      <trkpt lat="44.88608" lon="1.48421">
        <ele>154.11406</ele>
        <time>2013-03-24T07:18:24Z</time>
      </trkpt>
      <trkpt lat="44.88628" lon="1.4841">
        <ele>153.87408</ele>
        <time>2013-03-24T07:18:21Z</time>
      </trkpt>
      <trkpt lat="44.88649" lon="1.48402">
        <ele>153.75337</ele>
        <time>2013-03-24T07:18:18Z</time>
      </trkpt>
      <trkpt lat="44.88666" lon="1.48388">
        <ele>154.03763</ele>
        <time>2013-03-24T07:18:15Z</time>
      </trkpt>
      <trkpt lat="44.88683" lon="1.48374">
        <ele>153.92252</ele>
        <time>2013-03-24T07:18:12Z</time>
      </trkpt>
      <trkpt lat="44.88702" lon="1.48365">
        <ele>153.70523</ele>
        <time>2013-03-24T07:18:09Z</time>
      </trkpt>
      <trkpt lat="44.88722" lon="1.48358">
        <ele>154.28647</ele>
        <time>2013-03-24T07:18:06Z</time>
      </trkpt>
      <trkpt lat="44.88743" lon="1.48351">
        <ele>155.21606</ele>
        <time>2013-03-24T07:18:03Z</time>
      </trkpt>
      <trkpt lat="44.88761" lon="1.48342">
        <ele>157.49364</ele>
        <time>2013-03-24T07:18:00Z</time>
      </trkpt>
      <trkpt lat="44.88779" lon="1.48331">
        <ele>157.6738</ele>
        <time>2013-03-24T07:17:57Z</time>
      </trkpt>
      <trkpt lat="44.88799" lon="1.48319">
        <ele>158.76752</ele>
        <time>2013-03-24T07:17:54Z</time>
      </trkpt>
      <trkpt lat="44.88819" lon="1.48309">
        <ele>159.3156</ele>
        <time>2013-03-24T07:17:51Z</time>
      </trkpt>
      <trkpt lat="44.88837" lon="1.48293">
        <ele>159.274</ele>
        <time>2013-03-24T07:17:48Z</time>
      </trkpt>
      <trkpt lat="44.88858" lon="1.48278">
        <ele>159.89764</ele>
        <time>2013-03-24T07:17:45Z</time>
      </trkpt>
      <trkpt lat="44.88875" lon="1.48264">
        <ele>159.94997</ele>
        <time>2013-03-24T07:17:42Z</time>
      </trkpt>
      <trkpt lat="44.88895" lon="1.48251">
        <ele>160.274</ele>
        <time>2013-03-24T07:17:39Z</time>
      </trkpt>
      <trkpt lat="44.88913" lon="1.48237">
        <ele>160.30873</ele>
        <time>2013-03-24T07:17:36Z</time>
      </trkpt>
      <trkpt lat="44.88935" lon="1.48223">
        <ele>160.20218</ele>
        <time>2013-03-24T07:17:33Z</time>
      </trkpt>
      <trkpt lat="44.88954" lon="1.48214">
        <ele>160.39777</ele>
        <time>2013-03-24T07:17:30Z</time>
      </trkpt>
      <trkpt lat="44.88972" lon="1.48202">
        <ele>159.76509</ele>
        <time>2013-03-24T07:17:27Z</time>
      </trkpt>
      <trkpt lat="44.88993" lon="1.48191">
        <ele>159.43779</ele>
        <time>2013-03-24T07:17:23Z</time>
      </trkpt>
      <trkpt lat="44.89011" lon="1.48182">
        <ele>159.37108</ele>
        <time>2013-03-24T07:17:20Z</time>
      </trkpt>
      <trkpt lat="44.89031" lon="1.48172">
        <ele>159.34625</ele>
        <time>2013-03-24T07:17:17Z</time>
      </trkpt>
      <trkpt lat="44.89049" lon="1.48161">
        <ele>159.45038</ele>
        <time>2013-03-24T07:17:14Z</time>
      </trkpt>
      <trkpt lat="44.89068" lon="1.48141">
        <ele>159.41353</ele>
        <time>2013-03-24T07:17:10Z</time>
      </trkpt>
      <trkpt lat="44.89086" lon="1.48131">
        <ele>159.60616</ele>
        <time>2013-03-24T07:17:07Z</time>
      </trkpt>
      <trkpt lat="44.89104" lon="1.48119">
        <ele>159.24422</ele>
        <time>2013-03-24T07:17:04Z</time>
      </trkpt>
      <trkpt lat="44.89123" lon="1.48111">
        <ele>158.94554</ele>
        <time>2013-03-24T07:17:01Z</time>
      </trkpt>
      <trkpt lat="44.89143" lon="1.48097">
        <ele>158.77832</ele>
        <time>2013-03-24T07:16:58Z</time>
      </trkpt>
      <trkpt lat="44.89161" lon="1.48084">
        <ele>158.74489</ele>
        <time>2013-03-24T07:16:55Z</time>
      </trkpt>
      <trkpt lat="44.89181" lon="1.48077">
        <ele>158.53604</ele>
        <time>2013-03-24T07:16:52Z</time>
      </trkpt>
      <trkpt lat="44.892" lon="1.48065">
        <ele>159.8484</ele>
        <time>2013-03-24T07:16:49Z</time>
      </trkpt>
      <trkpt lat="44.89221" lon="1.48056">
        <ele>160.66287</ele>
        <time>2013-03-24T07:16:46Z</time>
      </trkpt>
      <trkpt lat="44.89243" lon="1.48047">
        <ele>162.05646</ele>
        <time>2013-03-24T07:16:43Z</time>
      </trkpt>
      <trkpt lat="44.89263" lon="1.48032">
        <ele>162.59306</ele>
        <time>2013-03-24T07:16:40Z</time>
      </trkpt>
      <trkpt lat="44.89284" lon="1.48018">
        <ele>162.96877</ele>
        <time>2013-03-24T07:16:37Z</time>
      </trkpt>
      <trkpt lat="44.89302" lon="1.48006">
        <ele>162.76299</ele>
        <time>2013-03-24T07:16:34Z</time>
      </trkpt>
      <trkpt lat="44.89319" lon="1.47995">
        <ele>162.30484</ele>
        <time>2013-03-24T07:16:31Z</time>
      </trkpt>
      <trkpt lat="44.89337" lon="1.47984">
        <ele>162.5226</ele>
        <time>2013-03-24T07:16:28Z</time>
      </trkpt>
      <trkpt lat="44.89357" lon="1.47972">
        <ele>162.09734</ele>
        <time>2013-03-24T07:16:24Z</time>
      </trkpt>
      <trkpt lat="44.89375" lon="1.47963">
        <ele>163.05666</ele>
        <time>2013-03-24T07:16:21Z</time>
      </trkpt>
      <trkpt lat="44.89396" lon="1.47953">
        <ele>163.24913</ele>
        <time>2013-03-24T07:16:18Z</time>
      </trkpt>
      <trkpt lat="44.89415" lon="1.47945">
        <ele>164.57199</ele>
        <time>2013-03-24T07:16:15Z</time>
      </trkpt>
      <trkpt lat="44.89438" lon="1.47936">
        <ele>164.33362</ele>
        <time>2013-03-24T07:16:12Z</time>
      </trkpt>
      <trkpt lat="44.89457" lon="1.47927">
        <ele>164.84637</ele>
        <time>2013-03-24T07:16:09Z</time>
      </trkpt>
      <trkpt lat="44.89477" lon="1.47917">
        <ele>165.75066</ele>
        <time>2013-03-24T07:16:06Z</time>
      </trkpt>
      <trkpt lat="44.89499" lon="1.47909">
        <ele>165.55342</ele>
        <time>2013-03-24T07:16:03Z</time>
      </trkpt>
      <trkpt lat="44.89519" lon="1.47904">
        <ele>165.85994</ele>
        <time>2013-03-24T07:16:00Z</time>
      </trkpt>
      <trkpt lat="44.89542" lon="1.47896">
        <ele>165.35692</ele>
        <time>2013-03-24T07:15:57Z</time>
      </trkpt>
      <trkpt lat="44.89567" lon="1.47888">
        <ele>163.51268</ele>
        <time>2013-03-24T07:15:54Z</time>
      </trkpt>
      <trkpt lat="44.8959" lon="1.47877">
        <ele>161.89673</ele>
        <time>2013-03-24T07:15:51Z</time>
      </trkpt>
      <trkpt lat="44.89608" lon="1.47864">
        <ele>159.68112</ele>
        <time>2013-03-24T07:15:48Z</time>
      </trkpt>
      <trkpt lat="44.89628" lon="1.47853">
        <ele>158.11821</ele>
        <time>2013-03-24T07:15:45Z</time>
      </trkpt>
      <trkpt lat="44.89647" lon="1.47834">
        <ele>157.4131</ele>
        <time>2013-03-24T07:15:41Z</time>
      </trkpt>
      <trkpt lat="44.89659" lon="1.4781">
        <ele>154.76982</ele>
        <time>2013-03-24T07:15:37Z</time>
      </trkpt>
      <trkpt lat="44.89668" lon="1.47783">
        <ele>154.44041</ele>
        <time>2013-03-24T07:15:33Z</time>
      </trkpt>
      <trkpt lat="44.89683" lon="1.47768">
        <ele>153.02913</ele>
        <time>2013-03-24T07:15:30Z</time>
      </trkpt>
      <trkpt lat="44.89701" lon="1.47761">
        <ele>152.35794</ele>
        <time>2013-03-24T07:15:27Z</time>
      </trkpt>
      <trkpt lat="44.89725" lon="1.47757">
        <ele>152.42262</ele>
        <time>2013-03-24T07:15:23Z</time>
      </trkpt>
      <trkpt lat="44.89743" lon="1.47754">
        <ele>150.8203</ele>
        <time>2013-03-24T07:15:20Z</time>
      </trkpt>
      <trkpt lat="44.89762" lon="1.47753">
        <ele>149.6481</ele>
        <time>2013-03-24T07:15:17Z</time>
      </trkpt>
      <trkpt lat="44.89782" lon="1.47743">
        <ele>150.1051</ele>
        <time>2013-03-24T07:15:13Z</time>
      </trkpt>
      <trkpt lat="44.89803" lon="1.47743">
        <ele>147.94577</ele>
        <time>2013-03-24T07:15:09Z</time>
      </trkpt>
      <trkpt lat="44.89827" lon="1.47744">
        <ele>147.0459</ele>
        <time>2013-03-24T07:15:05Z</time>
      </trkpt>
      <trkpt lat="44.89845" lon="1.47729">
        <ele>146.99445</ele>
        <time>2013-03-24T07:15:01Z</time>
      </trkpt>
      <trkpt lat="44.89851" lon="1.47698">
        <ele>145.8096</ele>
        <time>2013-03-24T07:14:57Z</time>
      </trkpt>
      <trkpt lat="44.89851" lon="1.4767">
        <ele>145.59685</ele>
        <time>2013-03-24T07:14:54Z</time>
      </trkpt>
      <trkpt lat="44.89852" lon="1.47642">
        <ele>146.34438</ele>
        <time>2013-03-24T07:14:51Z</time>
      </trkpt>
      <trkpt lat="44.89856" lon="1.4761">
        <ele>146.57556</ele>
        <time>2013-03-24T07:14:48Z</time>
      </trkpt>
      <trkpt lat="44.8986" lon="1.47578">
        <ele>146.6717</ele>
        <time>2013-03-24T07:14:45Z</time>
      </trkpt>
      <trkpt lat="44.89862" lon="1.47546">
        <ele>148.10329</ele>
        <time>2013-03-24T07:14:42Z</time>
      </trkpt>
      <trkpt lat="44.89865" lon="1.47517">
        <ele>150.7004</ele>
        <time>2013-03-24T07:14:39Z</time>
      </trkpt>
      <trkpt lat="44.89864" lon="1.4749">
        <ele>150.38983</ele>
        <time>2013-03-24T07:14:36Z</time>
      </trkpt>
      <trkpt lat="44.89879" lon="1.47469">
        <ele>149.28143</ele>
        <time>2013-03-24T07:14:32Z</time>
      </trkpt>
      <trkpt lat="44.89899" lon="1.4746">
        <ele>150.00429</ele>
        <time>2013-03-24T07:14:28Z</time>
      </trkpt>
      <trkpt lat="44.89915" lon="1.47447">
        <ele>150.93237</ele>
        <time>2013-03-24T07:14:25Z</time>
      </trkpt>
      <trkpt lat="44.89931" lon="1.47433">
        <ele>150.63228</ele>
        <time>2013-03-24T07:14:22Z</time>
      </trkpt>
      <trkpt lat="44.89954" lon="1.47421">
        <ele>150.58763</ele>
        <time>2013-03-24T07:14:19Z</time>
      </trkpt>
      <trkpt lat="44.89976" lon="1.47411">
        <ele>151.80031</ele>
        <time>2013-03-24T07:14:16Z</time>
      </trkpt>
      <trkpt lat="44.89998" lon="1.47424">
        <ele>155.28984</ele>
        <time>2013-03-24T07:14:12Z</time>
      </trkpt>
      <trkpt lat="44.90013" lon="1.4745">
        <ele>159.25186</ele>
        <time>2013-03-24T07:14:08Z</time>
      </trkpt>
      <trkpt lat="44.90033" lon="1.47459">
        <ele>161.00812</ele>
        <time>2013-03-24T07:14:05Z</time>
      </trkpt>
      <trkpt lat="44.90054" lon="1.47462">
        <ele>161.65259</ele>
        <time>2013-03-24T07:14:02Z</time>
      </trkpt>
      <trkpt lat="44.90074" lon="1.47464">
        <ele>163.32835</ele>
        <time>2013-03-24T07:13:59Z</time>
      </trkpt>
      <trkpt lat="44.90092" lon="1.47467">
        <ele>163.69487</ele>
        <time>2013-03-24T07:13:57Z</time>
      </trkpt>
      <trkpt lat="44.90112" lon="1.47478">
        <ele>163.78412</ele>
        <time>2013-03-24T07:13:54Z</time>
      </trkpt>
      <trkpt lat="44.90128" lon="1.47492">
        <ele>162.74956</ele>
        <time>2013-03-24T07:13:52Z</time>
      </trkpt>
      <trkpt lat="44.90149" lon="1.47515">
        <ele>161.12857</ele>
        <time>2013-03-24T07:13:49Z</time>
      </trkpt>
      <trkpt lat="44.90162" lon="1.47535">
        <ele>159.91747</ele>
        <time>2013-03-24T07:13:47Z</time>
      </trkpt>
    </trkseg>
  </trk>
  <trk>
    <name><![CDATA[voie verte de sarlat à cazoules avec visites chateaux_2]]></name>
    <trkseg>
      <trkpt lat="44.84029" lon="1.24675">
        <ele>130.5</ele>
      </trkpt>
      <trkpt lat="44.84029" lon="1.24675">
        <ele>130.5</ele>
      </trkpt>
      <trkpt lat="44.84056" lon="1.2471">
        <ele>123.7</ele>
      </trkpt>
      <trkpt lat="44.84099" lon="1.24709">
        <ele>123.6</ele>
      </trkpt>
      <trkpt lat="44.84156" lon="1.24698">
        <ele>122.4</ele>
      </trkpt>
      <trkpt lat="44.84184" lon="1.24697">
        <ele>123.3</ele>
      </trkpt>
      <trkpt lat="44.84206" lon="1.24701">
        <ele>124.4</ele>
      </trkpt>
      <trkpt lat="44.84258" lon="1.24716">
        <ele>126.3</ele>
      </trkpt>
      <trkpt lat="44.84284" lon="1.24715">
        <ele>127.9</ele>
      </trkpt>
      <trkpt lat="44.84316" lon="1.24709">
        <ele>130.8</ele>
      </trkpt>
      <trkpt lat="44.84345" lon="1.24698">
        <ele>133.4</ele>
      </trkpt>
      <trkpt lat="44.84391" lon="1.24684">
        <ele>132.3</ele>
      </trkpt>
      <trkpt lat="44.84439" lon="1.24672">
        <ele>132.2</ele>
      </trkpt>
      <trkpt lat="44.8446" lon="1.24657">
        <ele>134.9</ele>
      </trkpt>
      <trkpt lat="44.84497" lon="1.24613">
        <ele>137.6</ele>
      </trkpt>
      <trkpt lat="44.84517" lon="1.24594">
        <ele>140.1</ele>
      </trkpt>
      <trkpt lat="44.84617" lon="1.24541">
        <ele>152.8</ele>
      </trkpt>
      <trkpt lat="44.84646" lon="1.24518">
        <ele>152</ele>
      </trkpt>
      <trkpt lat="44.84681" lon="1.2448">
        <ele>151.9</ele>
      </trkpt>
      <trkpt lat="44.84722" lon="1.24448">
        <ele>152.3</ele>
      </trkpt>
      <trkpt lat="44.84744" lon="1.24433">
        <ele>149.7</ele>
      </trkpt>
      <trkpt lat="44.84757" lon="1.2443">
        <ele>149.2</ele>
      </trkpt>
      <trkpt lat="44.84787" lon="1.24434">
        <ele>151.7</ele>
      </trkpt>
      <trkpt lat="44.84812" lon="1.2444">
        <ele>154.1</ele>
      </trkpt>
      <trkpt lat="44.84885" lon="1.24468">
        <ele>159.3</ele>
      </trkpt>
      <trkpt lat="44.84924" lon="1.2447">
        <ele>160.4</ele>
      </trkpt>
      <trkpt lat="44.84938" lon="1.24466">
        <ele>161.3</ele>
      </trkpt>
      <trkpt lat="44.84947" lon="1.24461">
        <ele>161.6</ele>
      </trkpt>
      <trkpt lat="44.84957" lon="1.24451">
        <ele>161.5</ele>
      </trkpt>
      <trkpt lat="44.84978" lon="1.24421">
        <ele>160.1</ele>
      </trkpt>
      <trkpt lat="44.85002" lon="1.24397">
        <ele>161.4</ele>
      </trkpt>
      <trkpt lat="44.8502" lon="1.24386">
        <ele>162.9</ele>
      </trkpt>
      <trkpt lat="44.85056" lon="1.24369">
        <ele>163.9</ele>
      </trkpt>
      <trkpt lat="44.85105" lon="1.24352">
        <ele>161.8</ele>
      </trkpt>
      <trkpt lat="44.85134" lon="1.24337">
        <ele>159.6</ele>
      </trkpt>
      <trkpt lat="44.85143" lon="1.24334">
        <ele>159.3</ele>
      </trkpt>
      <trkpt lat="44.85269" lon="1.24316">
        <ele>166.2</ele>
      </trkpt>
      <trkpt lat="44.8529" lon="1.24309">
        <ele>167.4</ele>
      </trkpt>
      <trkpt lat="44.85287" lon="1.24299">
        <ele>168.1</ele>
      </trkpt>
      <trkpt lat="44.8528" lon="1.24266">
        <ele>170.7</ele>
      </trkpt>
      <trkpt lat="44.85276" lon="1.24219">
        <ele>174.2</ele>
      </trkpt>
      <trkpt lat="44.85275" lon="1.24167">
        <ele>177.7</ele>
      </trkpt>
      <trkpt lat="44.85281" lon="1.24013">
        <ele>182.2</ele>
      </trkpt>
      <trkpt lat="44.85284" lon="1.23978">
        <ele>184</ele>
      </trkpt>
      <trkpt lat="44.85285" lon="1.23963">
        <ele>184.9</ele>
      </trkpt>
      <trkpt lat="44.85309" lon="1.23956">
        <ele>184.7</ele>
      </trkpt>
      <trkpt lat="44.85334" lon="1.23941">
        <ele>184.8</ele>
      </trkpt>
      <trkpt lat="44.85356" lon="1.23922">
        <ele>183.2</ele>
      </trkpt>
      <trkpt lat="44.85377" lon="1.23878">
        <ele>184.1</ele>
      </trkpt>
      <trkpt lat="44.85384" lon="1.23869">
        <ele>184.2</ele>
      </trkpt>
      <trkpt lat="44.85392" lon="1.23863">
        <ele>184</ele>
      </trkpt>
      <trkpt lat="44.85399" lon="1.2386">
        <ele>183.6</ele>
      </trkpt>
      <trkpt lat="44.85415" lon="1.23861">
        <ele>182.1</ele>
      </trkpt>
      <trkpt lat="44.85438" lon="1.23875">
        <ele>176.2</ele>
      </trkpt>
      <trkpt lat="44.85449" lon="1.23879">
        <ele>173.5</ele>
      </trkpt>
      <trkpt lat="44.8546" lon="1.23881">
        <ele>171</ele>
      </trkpt>
      <trkpt lat="44.85488" lon="1.23877">
        <ele>165.7</ele>
      </trkpt>
      <trkpt lat="44.85513" lon="1.23868">
        <ele>161.4</ele>
      </trkpt>
      <trkpt lat="44.85539" lon="1.23847">
        <ele>156.6</ele>
      </trkpt>
      <trkpt lat="44.85653" lon="1.23742">
        <ele>144.4</ele>
      </trkpt>
      <trkpt lat="44.85539" lon="1.23847">
        <ele>156.6</ele>
      </trkpt>
      <trkpt lat="44.85513" lon="1.23868">
        <ele>161.4</ele>
      </trkpt>
      <trkpt lat="44.85488" lon="1.23877">
        <ele>165.7</ele>
      </trkpt>
      <trkpt lat="44.8546" lon="1.23881">
        <ele>171</ele>
      </trkpt>
      <trkpt lat="44.85449" lon="1.23879">
        <ele>173.5</ele>
      </trkpt>
      <trkpt lat="44.85438" lon="1.23875">
        <ele>176.2</ele>
      </trkpt>
      <trkpt lat="44.85415" lon="1.23861">
        <ele>182.1</ele>
      </trkpt>
      <trkpt lat="44.85399" lon="1.2386">
        <ele>183.6</ele>
      </trkpt>
      <trkpt lat="44.85384" lon="1.23869">
        <ele>184.2</ele>
      </trkpt>
      <trkpt lat="44.85377" lon="1.23878">
        <ele>184.1</ele>
      </trkpt>
      <trkpt lat="44.85356" lon="1.23922">
        <ele>183.2</ele>
      </trkpt>
      <trkpt lat="44.8535" lon="1.23929">
        <ele>183.8</ele>
      </trkpt>
      <trkpt lat="44.85334" lon="1.23941">
        <ele>184.8</ele>
      </trkpt>
      <trkpt lat="44.85309" lon="1.23956">
        <ele>184.7</ele>
      </trkpt>
      <trkpt lat="44.85285" lon="1.23963">
        <ele>184.9</ele>
      </trkpt>
      <trkpt lat="44.85281" lon="1.24013">
        <ele>182.2</ele>
      </trkpt>
      <trkpt lat="44.85275" lon="1.24167">
        <ele>177.7</ele>
      </trkpt>
      <trkpt lat="44.85276" lon="1.24219">
        <ele>174.2</ele>
      </trkpt>
      <trkpt lat="44.8528" lon="1.24266">
        <ele>170.7</ele>
      </trkpt>
      <trkpt lat="44.85287" lon="1.24299">
        <ele>168.1</ele>
      </trkpt>
      <trkpt lat="44.8529" lon="1.24309">
        <ele>167.4</ele>
      </trkpt>
      <trkpt lat="44.85269" lon="1.24316">
        <ele>166.2</ele>
      </trkpt>
      <trkpt lat="44.85134" lon="1.24337">
        <ele>159.6</ele>
      </trkpt>
      <trkpt lat="44.85102" lon="1.24354">
        <ele>162.1</ele>
      </trkpt>
      <trkpt lat="44.85056" lon="1.24369">
        <ele>163.9</ele>
      </trkpt>
      <trkpt lat="44.8502" lon="1.24386">
        <ele>162.9</ele>
      </trkpt>
      <trkpt lat="44.85002" lon="1.24397">
        <ele>161.4</ele>
      </trkpt>
      <trkpt lat="44.84978" lon="1.24421">
        <ele>160.1</ele>
      </trkpt>
      <trkpt lat="44.84957" lon="1.24451">
        <ele>161.5</ele>
      </trkpt>
      <trkpt lat="44.84947" lon="1.24461">
        <ele>161.6</ele>
      </trkpt>
      <trkpt lat="44.84938" lon="1.24466">
        <ele>161.3</ele>
      </trkpt>
      <trkpt lat="44.84924" lon="1.2447">
        <ele>160.4</ele>
      </trkpt>
      <trkpt lat="44.84885" lon="1.24468">
        <ele>159.3</ele>
      </trkpt>
      <trkpt lat="44.84812" lon="1.2444">
        <ele>154.1</ele>
      </trkpt>
      <trkpt lat="44.84787" lon="1.24434">
        <ele>151.7</ele>
      </trkpt>
      <trkpt lat="44.84757" lon="1.2443">
        <ele>149.2</ele>
      </trkpt>
      <trkpt lat="44.84744" lon="1.24433">
        <ele>149.7</ele>
      </trkpt>
      <trkpt lat="44.84722" lon="1.24448">
        <ele>152.3</ele>
      </trkpt>
      <trkpt lat="44.84681" lon="1.2448">
        <ele>151.9</ele>
      </trkpt>
      <trkpt lat="44.84646" lon="1.24518">
        <ele>152</ele>
      </trkpt>
      <trkpt lat="44.84617" lon="1.24541">
        <ele>152.8</ele>
      </trkpt>
      <trkpt lat="44.84517" lon="1.24594">
        <ele>140.1</ele>
      </trkpt>
      <trkpt lat="44.84497" lon="1.24613">
        <ele>137.6</ele>
      </trkpt>
      <trkpt lat="44.8446" lon="1.24657">
        <ele>134.9</ele>
      </trkpt>
      <trkpt lat="44.84439" lon="1.24672">
        <ele>132.2</ele>
      </trkpt>
      <trkpt lat="44.84391" lon="1.24684">
        <ele>132.3</ele>
      </trkpt>
      <trkpt lat="44.84345" lon="1.24698">
        <ele>133.4</ele>
      </trkpt>
      <trkpt lat="44.84316" lon="1.24709">
        <ele>130.8</ele>
      </trkpt>
      <trkpt lat="44.84284" lon="1.24715">
        <ele>127.9</ele>
      </trkpt>
      <trkpt lat="44.84258" lon="1.24716">
        <ele>126.3</ele>
      </trkpt>
      <trkpt lat="44.84206" lon="1.24701">
        <ele>124.4</ele>
      </trkpt>
      <trkpt lat="44.84184" lon="1.24697">
        <ele>123.3</ele>
      </trkpt>
      <trkpt lat="44.84156" lon="1.24698">
        <ele>122.4</ele>
      </trkpt>
      <trkpt lat="44.84099" lon="1.24709">
        <ele>123.6</ele>
      </trkpt>
      <trkpt lat="44.84056" lon="1.2471">
        <ele>123.7</ele>
      </trkpt>
      <trkpt lat="44.84048" lon="1.24712">
        <ele>123</ele>
      </trkpt>
      <trkpt lat="44.8404" lon="1.24715">
        <ele>122.2</ele>
      </trkpt>
      <trkpt lat="44.84034" lon="1.2472">
        <ele>121.2</ele>
      </trkpt>
      <trkpt lat="44.84015" lon="1.24743">
        <ele>116.2</ele>
      </trkpt>
      <trkpt lat="44.84003" lon="1.24753">
        <ele>115</ele>
      </trkpt>
      <trkpt lat="44.83994" lon="1.24756">
        <ele>114.7</ele>
      </trkpt>
      <trkpt lat="44.83948" lon="1.24764">
        <ele>112.9</ele>
      </trkpt>
      <trkpt lat="44.8393" lon="1.2477">
        <ele>112.9</ele>
      </trkpt>
      <trkpt lat="44.83921" lon="1.24775">
        <ele>113.1</ele>
      </trkpt>
      <trkpt lat="44.8389" lon="1.24805">
        <ele>113.9</ele>
      </trkpt>
      <trkpt lat="44.83883" lon="1.24814">
        <ele>114.1</ele>
      </trkpt>
      <trkpt lat="44.83865" lon="1.24849">
        <ele>112.3</ele>
      </trkpt>
      <trkpt lat="44.8386" lon="1.24856">
        <ele>111.2</ele>
      </trkpt>
      <trkpt lat="44.83828" lon="1.24863">
        <ele>107.9</ele>
      </trkpt>
      <trkpt lat="44.83783" lon="1.24808">
        <ele>107.3</ele>
      </trkpt>
      <trkpt lat="44.83771" lon="1.24796">
        <ele>106.2</ele>
      </trkpt>
      <trkpt lat="44.83739" lon="1.24774">
        <ele>103.6</ele>
      </trkpt>
      <trkpt lat="44.8373" lon="1.24766">
        <ele>102.3</ele>
      </trkpt>
      <trkpt lat="44.83715" lon="1.24749">
        <ele>100.5</ele>
      </trkpt>
      <trkpt lat="44.83586" lon="1.24529">
        <ele>106.6</ele>
      </trkpt>
      <trkpt lat="44.83581" lon="1.24517">
        <ele>106.6</ele>
      </trkpt>
      <trkpt lat="44.83575" lon="1.24499">
        <ele>106.4</ele>
      </trkpt>
      <trkpt lat="44.83572" lon="1.24481">
        <ele>106.3</ele>
      </trkpt>
      <trkpt lat="44.83571" lon="1.24458">
        <ele>106.3</ele>
      </trkpt>
      <trkpt lat="44.83581" lon="1.24329">
        <ele>110.3</ele>
      </trkpt>
      <trkpt lat="44.83586" lon="1.243">
        <ele>112.4</ele>
      </trkpt>
      <trkpt lat="44.83595" lon="1.24268">
        <ele>114.5</ele>
      </trkpt>
      <trkpt lat="44.83624" lon="1.24183">
        <ele>117.5</ele>
      </trkpt>
      <trkpt lat="44.83634" lon="1.24129">
        <ele>115.7</ele>
      </trkpt>
      <trkpt lat="44.83635" lon="1.24102">
        <ele>114.2</ele>
      </trkpt>
      <trkpt lat="44.83629" lon="1.24044">
        <ele>112.8</ele>
      </trkpt>
      <trkpt lat="44.83609" lon="1.23929">
        <ele>108</ele>
      </trkpt>
      <trkpt lat="44.836" lon="1.2389">
        <ele>104.5</ele>
      </trkpt>
      <trkpt lat="44.83591" lon="1.2386">
        <ele>100.8</ele>
      </trkpt>
      <trkpt lat="44.83573" lon="1.23813">
        <ele>97.2</ele>
      </trkpt>
      <trkpt lat="44.83565" lon="1.23792">
        <ele>96.8</ele>
      </trkpt>
      <trkpt lat="44.83543" lon="1.23746">
        <ele>95.1</ele>
      </trkpt>
      <trkpt lat="44.83462" lon="1.23597">
        <ele>99.3</ele>
      </trkpt>
      <trkpt lat="44.83455" lon="1.2359">
        <ele>99.5</ele>
      </trkpt>
      <trkpt lat="44.83441" lon="1.2358">
        <ele>99.3</ele>
      </trkpt>
      <trkpt lat="44.83432" lon="1.23576">
        <ele>98.9</ele>
      </trkpt>
      <trkpt lat="44.83422" lon="1.23573">
        <ele>98.5</ele>
      </trkpt>
      <trkpt lat="44.83391" lon="1.23569">
        <ele>98.2</ele>
      </trkpt>
      <trkpt lat="44.83344" lon="1.23572">
        <ele>97.9</ele>
      </trkpt>
      <trkpt lat="44.83281" lon="1.23588">
        <ele>97.1</ele>
      </trkpt>
      <trkpt lat="44.83207" lon="1.2361">
        <ele>93.7</ele>
      </trkpt>
      <trkpt lat="44.83199" lon="1.23611">
        <ele>93.3</ele>
      </trkpt>
      <trkpt lat="44.8319" lon="1.23611">
        <ele>93.1</ele>
      </trkpt>
      <trkpt lat="44.83182" lon="1.23609">
        <ele>92.9</ele>
      </trkpt>
      <trkpt lat="44.83174" lon="1.23605">
        <ele>93</ele>
      </trkpt>
      <trkpt lat="44.83167" lon="1.23599">
        <ele>93</ele>
      </trkpt>
      <trkpt lat="44.83157" lon="1.23586">
        <ele>92.6</ele>
      </trkpt>
      <trkpt lat="44.83148" lon="1.23564">
        <ele>90.6</ele>
      </trkpt>
      <trkpt lat="44.83145" lon="1.23552">
        <ele>89.5</ele>
      </trkpt>
      <trkpt lat="44.83144" lon="1.2354">
        <ele>88.8</ele>
      </trkpt>
      <trkpt lat="44.83146" lon="1.23454">
        <ele>87.3</ele>
      </trkpt>
      <trkpt lat="44.83143" lon="1.2343">
        <ele>87.1</ele>
      </trkpt>
      <trkpt lat="44.83134" lon="1.23407">
        <ele>88.5</ele>
      </trkpt>
      <trkpt lat="44.83129" lon="1.23398">
        <ele>90.3</ele>
      </trkpt>
      <trkpt lat="44.83115" lon="1.2338">
        <ele>93</ele>
      </trkpt>
      <trkpt lat="44.83067" lon="1.23333">
        <ele>94.4</ele>
      </trkpt>
      <trkpt lat="44.83051" lon="1.23309">
        <ele>94.1</ele>
      </trkpt>
      <trkpt lat="44.83039" lon="1.23284">
        <ele>93.8</ele>
      </trkpt>
      <trkpt lat="44.83031" lon="1.23257">
        <ele>94.6</ele>
      </trkpt>
      <trkpt lat="44.83026" lon="1.2323">
        <ele>94.4</ele>
      </trkpt>
      <trkpt lat="44.83013" lon="1.23126">
        <ele>92.8</ele>
      </trkpt>
      <trkpt lat="44.83003" lon="1.23065">
        <ele>91.8</ele>
      </trkpt>
      <trkpt lat="44.82983" lon="1.22974">
        <ele>97.6</ele>
      </trkpt>
      <trkpt lat="44.82958" lon="1.22894">
        <ele>96.2</ele>
      </trkpt>
      <trkpt lat="44.82929" lon="1.22818">
        <ele>94.1</ele>
      </trkpt>
      <trkpt lat="44.82903" lon="1.22763">
        <ele>94.1</ele>
      </trkpt>
      <trkpt lat="44.82882" lon="1.22732">
        <ele>91.8</ele>
      </trkpt>
      <trkpt lat="44.82855" lon="1.22696">
        <ele>88.7</ele>
      </trkpt>
      <trkpt lat="44.82818" lon="1.22657">
        <ele>87.1</ele>
      </trkpt>
      <trkpt lat="44.82799" lon="1.22634">
        <ele>88.7</ele>
      </trkpt>
      <trkpt lat="44.82781" lon="1.22609">
        <ele>89.5</ele>
      </trkpt>
      <trkpt lat="44.82758" lon="1.22582">
        <ele>87.8</ele>
      </trkpt>
      <trkpt lat="44.8272" lon="1.22512">
        <ele>87.4</ele>
      </trkpt>
      <trkpt lat="44.82705" lon="1.2244">
        <ele>81.4</ele>
      </trkpt>
      <trkpt lat="44.82704" lon="1.22428">
        <ele>80.6</ele>
      </trkpt>
      <trkpt lat="44.82705" lon="1.22418">
        <ele>80.2</ele>
      </trkpt>
      <trkpt lat="44.82711" lon="1.22396">
        <ele>79.7</ele>
      </trkpt>
      <trkpt lat="44.82744" lon="1.22311">
        <ele>82.8</ele>
      </trkpt>
      <trkpt lat="44.82706" lon="1.22302">
        <ele>79.5</ele>
      </trkpt>
      <trkpt lat="44.82744" lon="1.22311">
        <ele>82.8</ele>
      </trkpt>
      <trkpt lat="44.82747" lon="1.22304">
        <ele>84.1</ele>
      </trkpt>
      <trkpt lat="44.8273" lon="1.22283">
        <ele>84.8</ele>
      </trkpt>
      <trkpt lat="44.82719" lon="1.22265">
        <ele>85.4</ele>
      </trkpt>
      <trkpt lat="44.82706" lon="1.22239">
        <ele>85.2</ele>
      </trkpt>
      <trkpt lat="44.82707" lon="1.22235">
        <ele>85.6</ele>
      </trkpt>
      <trkpt lat="44.82706" lon="1.22228">
        <ele>85.7</ele>
      </trkpt>
      <trkpt lat="44.82702" lon="1.22225">
        <ele>85</ele>
      </trkpt>
      <trkpt lat="44.82697" lon="1.22228">
        <ele>83.8</ele>
      </trkpt>
      <trkpt lat="44.82696" lon="1.22236">
        <ele>83.2</ele>
      </trkpt>
      <trkpt lat="44.82538" lon="1.22337">
        <ele>72.6</ele>
      </trkpt>
      <trkpt lat="44.82518" lon="1.22353">
        <ele>72.9</ele>
      </trkpt>
      <trkpt lat="44.82493" lon="1.22394">
        <ele>74.1</ele>
      </trkpt>
      <trkpt lat="44.82461" lon="1.22459">
        <ele>76.9</ele>
      </trkpt>
      <trkpt lat="44.82467" lon="1.22474">
        <ele>76.7</ele>
      </trkpt>
      <trkpt lat="44.82476" lon="1.22532">
        <ele>75.9</ele>
      </trkpt>
      <trkpt lat="44.82481" lon="1.22587">
        <ele>74.6</ele>
      </trkpt>
      <trkpt lat="44.82484" lon="1.2264">
        <ele>73.7</ele>
      </trkpt>
      <trkpt lat="44.82484" lon="1.22679">
        <ele>73.4</ele>
      </trkpt>
      <trkpt lat="44.82475" lon="1.22829">
        <ele>74.2</ele>
      </trkpt>
      <trkpt lat="44.82463" lon="1.22948">
        <ele>74.9</ele>
      </trkpt>
      <trkpt lat="44.82455" lon="1.23043">
        <ele>75.2</ele>
      </trkpt>
      <trkpt lat="44.82452" lon="1.23089">
        <ele>75.4</ele>
      </trkpt>
      <trkpt lat="44.82447" lon="1.2311">
        <ele>75.5</ele>
      </trkpt>
      <trkpt lat="44.82441" lon="1.23127">
        <ele>75.7</ele>
      </trkpt>
      <trkpt lat="44.82413" lon="1.23177">
        <ele>77</ele>
      </trkpt>
      <trkpt lat="44.82402" lon="1.23216">
        <ele>77.2</ele>
      </trkpt>
      <trkpt lat="44.82392" lon="1.23259">
        <ele>77.6</ele>
      </trkpt>
      <trkpt lat="44.82376" lon="1.23369">
        <ele>80.5</ele>
      </trkpt>
      <trkpt lat="44.8237" lon="1.23428">
        <ele>82.8</ele>
      </trkpt>
      <trkpt lat="44.82364" lon="1.23454">
        <ele>83.9</ele>
      </trkpt>
      <trkpt lat="44.82362" lon="1.23474">
        <ele>84.1</ele>
      </trkpt>
      <trkpt lat="44.82365" lon="1.23485">
        <ele>83.4</ele>
      </trkpt>
      <trkpt lat="44.82363" lon="1.23495">
        <ele>83.7</ele>
      </trkpt>
      <trkpt lat="44.82367" lon="1.23516">
        <ele>83.4</ele>
      </trkpt>
      <trkpt lat="44.82373" lon="1.23557">
        <ele>83.4</ele>
      </trkpt>
      <trkpt lat="44.82373" lon="1.23613">
        <ele>84.5</ele>
      </trkpt>
      <trkpt lat="44.82367" lon="1.23651">
        <ele>86.2</ele>
      </trkpt>
      <trkpt lat="44.82355" lon="1.23712">
        <ele>86.7</ele>
      </trkpt>
      <trkpt lat="44.82344" lon="1.23744">
        <ele>87.3</ele>
      </trkpt>
      <trkpt lat="44.82319" lon="1.23796">
        <ele>86.9</ele>
      </trkpt>
      <trkpt lat="44.82299" lon="1.23844">
        <ele>87.7</ele>
      </trkpt>
      <trkpt lat="44.82272" lon="1.2393">
        <ele>92.2</ele>
      </trkpt>
      <trkpt lat="44.82253" lon="1.23999">
        <ele>95</ele>
      </trkpt>
      <trkpt lat="44.82223" lon="1.24083">
        <ele>96.1</ele>
      </trkpt>
      <trkpt lat="44.82207" lon="1.2412">
        <ele>97.3</ele>
      </trkpt>
      <trkpt lat="44.82108" lon="1.24325">
        <ele>113.2</ele>
      </trkpt>
      <trkpt lat="44.8208" lon="1.244">
        <ele>109.7</ele>
      </trkpt>
      <trkpt lat="44.82065" lon="1.2445">
        <ele>109.6</ele>
      </trkpt>
      <trkpt lat="44.82052" lon="1.24531">
        <ele>109.1</ele>
      </trkpt>
      <trkpt lat="44.82042" lon="1.24681">
        <ele>107.9</ele>
      </trkpt>
      <trkpt lat="44.82041" lon="1.24711">
        <ele>106.8</ele>
      </trkpt>
      <trkpt lat="44.82045" lon="1.24813">
        <ele>103.4</ele>
      </trkpt>
      <trkpt lat="44.82044" lon="1.24899">
        <ele>108.2</ele>
      </trkpt>
      <trkpt lat="44.82049" lon="1.24959">
        <ele>109.3</ele>
      </trkpt>
      <trkpt lat="44.82055" lon="1.24992">
        <ele>106.9</ele>
      </trkpt>
      <trkpt lat="44.8209" lon="1.251">
        <ele>98.7</ele>
      </trkpt>
      <trkpt lat="44.82112" lon="1.252">
        <ele>99.1</ele>
      </trkpt>
      <trkpt lat="44.82115" lon="1.25238">
        <ele>97.4</ele>
      </trkpt>
      <trkpt lat="44.82115" lon="1.25302">
        <ele>96.6</ele>
      </trkpt>
      <trkpt lat="44.82112" lon="1.25329">
        <ele>96.9</ele>
      </trkpt>
      <trkpt lat="44.82103" lon="1.25354">
        <ele>100.9</ele>
      </trkpt>
      <trkpt lat="44.82097" lon="1.25365">
        <ele>102.9</ele>
      </trkpt>
      <trkpt lat="44.8209" lon="1.25375">
        <ele>104.4</ele>
      </trkpt>
      <trkpt lat="44.82052" lon="1.25419">
        <ele>106.6</ele>
      </trkpt>
      <trkpt lat="44.82031" lon="1.25447">
        <ele>108.7</ele>
      </trkpt>
      <trkpt lat="44.82014" lon="1.25464">
        <ele>108.4</ele>
      </trkpt>
      <trkpt lat="44.81994" lon="1.25479">
        <ele>108</ele>
      </trkpt>
      <trkpt lat="44.8196" lon="1.25501">
        <ele>111.5</ele>
      </trkpt>
      <trkpt lat="44.81909" lon="1.25539">
        <ele>121.1</ele>
      </trkpt>
      <trkpt lat="44.819" lon="1.25544">
        <ele>122.2</ele>
      </trkpt>
      <trkpt lat="44.81857" lon="1.25548">
        <ele>125.1</ele>
      </trkpt>
      <trkpt lat="44.81848" lon="1.2555">
        <ele>125.7</ele>
      </trkpt>
      <trkpt lat="44.81829" lon="1.25559">
        <ele>127</ele>
      </trkpt>
      <trkpt lat="44.81774" lon="1.256">
        <ele>132.5</ele>
      </trkpt>
      <trkpt lat="44.81749" lon="1.25606">
        <ele>133.9</ele>
      </trkpt>
      <trkpt lat="44.81739" lon="1.25606">
        <ele>134.3</ele>
      </trkpt>
      <trkpt lat="44.817" lon="1.256">
        <ele>134.4</ele>
      </trkpt>
      <trkpt lat="44.81685" lon="1.25603">
        <ele>135.4</ele>
      </trkpt>
      <trkpt lat="44.81666" lon="1.25618">
        <ele>138.4</ele>
      </trkpt>
      <trkpt lat="44.81595" lon="1.25686">
        <ele>144.5</ele>
      </trkpt>
      <trkpt lat="44.81569" lon="1.25719">
        <ele>149.7</ele>
      </trkpt>
      <trkpt lat="44.81559" lon="1.25725">
        <ele>151.1</ele>
      </trkpt>
      <trkpt lat="44.81548" lon="1.25723">
        <ele>151.4</ele>
      </trkpt>
      <trkpt lat="44.81517" lon="1.2571">
        <ele>151.5</ele>
      </trkpt>
      <trkpt lat="44.81509" lon="1.2571">
        <ele>152.1</ele>
      </trkpt>
      <trkpt lat="44.81489" lon="1.25715">
        <ele>154.2</ele>
      </trkpt>
      <trkpt lat="44.81465" lon="1.25726">
        <ele>156.3</ele>
      </trkpt>
      <trkpt lat="44.81439" lon="1.25741">
        <ele>157.3</ele>
      </trkpt>
      <trkpt lat="44.81386" lon="1.25781">
        <ele>164.6</ele>
      </trkpt>
      <trkpt lat="44.81359" lon="1.25804">
        <ele>166.6</ele>
      </trkpt>
      <trkpt lat="44.81284" lon="1.25894">
        <ele>172.6</ele>
      </trkpt>
      <trkpt lat="44.81259" lon="1.25935">
        <ele>175.1</ele>
      </trkpt>
      <trkpt lat="44.81245" lon="1.25968">
        <ele>177.4</ele>
      </trkpt>
      <trkpt lat="44.81239" lon="1.25986">
        <ele>179.3</ele>
      </trkpt>
      <trkpt lat="44.81227" lon="1.26039">
        <ele>185.8</ele>
      </trkpt>
      <trkpt lat="44.8122" lon="1.26054">
        <ele>187.3</ele>
      </trkpt>
      <trkpt lat="44.81198" lon="1.26075">
        <ele>188</ele>
      </trkpt>
      <trkpt lat="44.81186" lon="1.26089">
        <ele>188.3</ele>
      </trkpt>
      <trkpt lat="44.81172" lon="1.26109">
        <ele>189.8</ele>
      </trkpt>
      <trkpt lat="44.81126" lon="1.26188">
        <ele>199.8</ele>
      </trkpt>
      <trkpt lat="44.81121" lon="1.26201">
        <ele>200.2</ele>
      </trkpt>
      <trkpt lat="44.81115" lon="1.2623">
        <ele>200.9</ele>
      </trkpt>
      <trkpt lat="44.81115" lon="1.26242">
        <ele>201.1</ele>
      </trkpt>
      <trkpt lat="44.81121" lon="1.2628">
        <ele>203.1</ele>
      </trkpt>
      <trkpt lat="44.81119" lon="1.26293">
        <ele>203.6</ele>
      </trkpt>
      <trkpt lat="44.81114" lon="1.26302">
        <ele>203.5</ele>
      </trkpt>
      <trkpt lat="44.81093" lon="1.26319">
        <ele>202.3</ele>
      </trkpt>
      <trkpt lat="44.8108" lon="1.26342">
        <ele>203</ele>
      </trkpt>
      <trkpt lat="44.81072" lon="1.26365">
        <ele>205.2</ele>
      </trkpt>
      <trkpt lat="44.8107" lon="1.26376">
        <ele>206</ele>
      </trkpt>
      <trkpt lat="44.81069" lon="1.26399">
        <ele>207.1</ele>
      </trkpt>
      <trkpt lat="44.81072" lon="1.26423">
        <ele>207.9</ele>
      </trkpt>
      <trkpt lat="44.81085" lon="1.2647">
        <ele>209.2</ele>
      </trkpt>
      <trkpt lat="44.81088" lon="1.26489">
        <ele>210.5</ele>
      </trkpt>
      <trkpt lat="44.81093" lon="1.2656">
        <ele>216.3</ele>
      </trkpt>
      <trkpt lat="44.8109" lon="1.26579">
        <ele>217.3</ele>
      </trkpt>
      <trkpt lat="44.81087" lon="1.26584">
        <ele>217</ele>
      </trkpt>
      <trkpt lat="44.81078" lon="1.26593">
        <ele>217.1</ele>
      </trkpt>
      <trkpt lat="44.81049" lon="1.26609">
        <ele>217</ele>
      </trkpt>
      <trkpt lat="44.81035" lon="1.26623">
        <ele>216.9</ele>
      </trkpt>
      <trkpt lat="44.81023" lon="1.26644">
        <ele>216.7</ele>
      </trkpt>
      <trkpt lat="44.81019" lon="1.26656">
        <ele>216.7</ele>
      </trkpt>
      <trkpt lat="44.81001" lon="1.26763">
        <ele>223.7</ele>
      </trkpt>
      <trkpt lat="44.80998" lon="1.26773">
        <ele>224.5</ele>
      </trkpt>
      <trkpt lat="44.80987" lon="1.2679">
        <ele>226.4</ele>
      </trkpt>
      <trkpt lat="44.8098" lon="1.26795">
        <ele>226.9</ele>
      </trkpt>
      <trkpt lat="44.80966" lon="1.26795">
        <ele>227</ele>
      </trkpt>
      <trkpt lat="44.8096" lon="1.26791">
        <ele>226.7</ele>
      </trkpt>
      <trkpt lat="44.80938" lon="1.26767">
        <ele>223.9</ele>
      </trkpt>
      <trkpt lat="44.80928" lon="1.26761">
        <ele>223.3</ele>
      </trkpt>
      <trkpt lat="44.80923" lon="1.2676">
        <ele>223.2</ele>
      </trkpt>
      <trkpt lat="44.80918" lon="1.26761">
        <ele>223.3</ele>
      </trkpt>
      <trkpt lat="44.8091" lon="1.26767">
        <ele>224.2</ele>
      </trkpt>
      <trkpt lat="44.80907" lon="1.26772">
        <ele>225</ele>
      </trkpt>
      <trkpt lat="44.80904" lon="1.26784">
        <ele>226.4</ele>
      </trkpt>
      <trkpt lat="44.80905" lon="1.26792">
        <ele>227.4</ele>
      </trkpt>
      <trkpt lat="44.80926" lon="1.26828">
        <ele>231.2</ele>
      </trkpt>
      <trkpt lat="44.80935" lon="1.26862">
        <ele>233.2</ele>
      </trkpt>
      <trkpt lat="44.8096" lon="1.26875">
        <ele>234.3</ele>
      </trkpt>
      <trkpt lat="44.80979" lon="1.2688">
        <ele>235</ele>
      </trkpt>
      <trkpt lat="44.80989" lon="1.26878">
        <ele>235.1</ele>
      </trkpt>
      <trkpt lat="44.80997" lon="1.26874">
        <ele>234.8</ele>
      </trkpt>
      <trkpt lat="44.81007" lon="1.26867">
        <ele>235.7</ele>
      </trkpt>
      <trkpt lat="44.81029" lon="1.26847">
        <ele>238.3</ele>
      </trkpt>
      <trkpt lat="44.81051" lon="1.26816">
        <ele>239.3</ele>
      </trkpt>
      <trkpt lat="44.81087" lon="1.26753">
        <ele>239</ele>
      </trkpt>
      <trkpt lat="44.81107" lon="1.26729">
        <ele>239.6</ele>
      </trkpt>
      <trkpt lat="44.81136" lon="1.26701">
        <ele>241.2</ele>
      </trkpt>
      <trkpt lat="44.81144" lon="1.26686">
        <ele>240.7</ele>
      </trkpt>
      <trkpt lat="44.81149" lon="1.26674">
        <ele>240.1</ele>
      </trkpt>
      <trkpt lat="44.81169" lon="1.26589">
        <ele>235.9</ele>
      </trkpt>
      <trkpt lat="44.81177" lon="1.2657">
        <ele>235.7</ele>
      </trkpt>
      <trkpt lat="44.81195" lon="1.26541">
        <ele>235.3</ele>
      </trkpt>
      <trkpt lat="44.81201" lon="1.26532">
        <ele>235.1</ele>
      </trkpt>
      <trkpt lat="44.81211" lon="1.26523">
        <ele>235.5</ele>
      </trkpt>
      <trkpt lat="44.81221" lon="1.26518">
        <ele>236.5</ele>
      </trkpt>
      <trkpt lat="44.81235" lon="1.26513">
        <ele>238</ele>
      </trkpt>
      <trkpt lat="44.81338" lon="1.26489">
        <ele>241.5</ele>
      </trkpt>
      <trkpt lat="44.81347" lon="1.26489">
        <ele>240.8</ele>
      </trkpt>
      <trkpt lat="44.81357" lon="1.26491">
        <ele>240.2</ele>
      </trkpt>
      <trkpt lat="44.81397" lon="1.2651">
        <ele>239.6</ele>
      </trkpt>
      <trkpt lat="44.81414" lon="1.26513">
        <ele>238.9</ele>
      </trkpt>
      <trkpt lat="44.8143" lon="1.26511">
        <ele>238.1</ele>
      </trkpt>
      <trkpt lat="44.81443" lon="1.26506">
        <ele>236.9</ele>
      </trkpt>
      <trkpt lat="44.81521" lon="1.26464">
        <ele>228.9</ele>
      </trkpt>
      <trkpt lat="44.81539" lon="1.2646">
        <ele>227.8</ele>
      </trkpt>
      <trkpt lat="44.81563" lon="1.2646">
        <ele>227.2</ele>
      </trkpt>
      <trkpt lat="44.81579" lon="1.26463">
        <ele>227.3</ele>
      </trkpt>
      <trkpt lat="44.81622" lon="1.2648">
        <ele>227.7</ele>
      </trkpt>
      <trkpt lat="44.81633" lon="1.26482">
        <ele>227.3</ele>
      </trkpt>
      <trkpt lat="44.81645" lon="1.2648">
        <ele>226.3</ele>
      </trkpt>
      <trkpt lat="44.81668" lon="1.26465">
        <ele>223.7</ele>
      </trkpt>
      <trkpt lat="44.81711" lon="1.26416">
        <ele>220.5</ele>
      </trkpt>
      <trkpt lat="44.81734" lon="1.26408">
        <ele>221</ele>
      </trkpt>
      <trkpt lat="44.81744" lon="1.26408">
        <ele>221.4</ele>
      </trkpt>
      <trkpt lat="44.81771" lon="1.26416">
        <ele>220</ele>
      </trkpt>
      <trkpt lat="44.81813" lon="1.26457">
        <ele>217.9</ele>
      </trkpt>
      <trkpt lat="44.81831" lon="1.26469">
        <ele>216.8</ele>
      </trkpt>
      <trkpt lat="44.81853" lon="1.26493">
        <ele>214.5</ele>
      </trkpt>
      <trkpt lat="44.81859" lon="1.26508">
        <ele>213.4</ele>
      </trkpt>
      <trkpt lat="44.8186" lon="1.26522">
        <ele>212.1</ele>
      </trkpt>
      <trkpt lat="44.81859" lon="1.26536">
        <ele>211.2</ele>
      </trkpt>
      <trkpt lat="44.81854" lon="1.2655">
        <ele>210.8</ele>
      </trkpt>
      <trkpt lat="44.81839" lon="1.26575">
        <ele>211.6</ele>
      </trkpt>
      <trkpt lat="44.81808" lon="1.26648">
        <ele>209.5</ele>
      </trkpt>
      <trkpt lat="44.81805" lon="1.26665">
        <ele>208.6</ele>
      </trkpt>
      <trkpt lat="44.81805" lon="1.26678">
        <ele>208.5</ele>
      </trkpt>
      <trkpt lat="44.81807" lon="1.26695">
        <ele>208.1</ele>
      </trkpt>
      <trkpt lat="44.81813" lon="1.26712">
        <ele>206.9</ele>
      </trkpt>
      <trkpt lat="44.81819" lon="1.2672">
        <ele>205.4</ele>
      </trkpt>
      <trkpt lat="44.8183" lon="1.26727">
        <ele>202.9</ele>
      </trkpt>
      <trkpt lat="44.81875" lon="1.26728">
        <ele>196.2</ele>
      </trkpt>
      <trkpt lat="44.8189" lon="1.2673">
        <ele>194</ele>
      </trkpt>
      <trkpt lat="44.81895" lon="1.26734">
        <ele>193.2</ele>
      </trkpt>
      <trkpt lat="44.81898" lon="1.26739">
        <ele>192.8</ele>
      </trkpt>
      <trkpt lat="44.81904" lon="1.26754">
        <ele>192.1</ele>
      </trkpt>
      <trkpt lat="44.81907" lon="1.26768">
        <ele>192.5</ele>
      </trkpt>
      <trkpt lat="44.81912" lon="1.2681">
        <ele>194.2</ele>
      </trkpt>
      <trkpt lat="44.8192" lon="1.26826">
        <ele>194.4</ele>
      </trkpt>
      <trkpt lat="44.81924" lon="1.26832">
        <ele>194.6</ele>
      </trkpt>
      <trkpt lat="44.81934" lon="1.26839">
        <ele>194.1</ele>
      </trkpt>
      <trkpt lat="44.8196" lon="1.26841">
        <ele>192.9</ele>
      </trkpt>
      <trkpt lat="44.81977" lon="1.26829">
        <ele>191.8</ele>
      </trkpt>
      <trkpt lat="44.82022" lon="1.26792">
        <ele>186.7</ele>
      </trkpt>
      <trkpt lat="44.82053" lon="1.26772">
        <ele>183.1</ele>
      </trkpt>
      <trkpt lat="44.82064" lon="1.26771">
        <ele>182.3</ele>
      </trkpt>
      <trkpt lat="44.82078" lon="1.26772">
        <ele>181.5</ele>
      </trkpt>
      <trkpt lat="44.82113" lon="1.26783">
        <ele>182.9</ele>
      </trkpt>
      <trkpt lat="44.82123" lon="1.26781">
        <ele>183.1</ele>
      </trkpt>
      <trkpt lat="44.82128" lon="1.26769">
        <ele>182.6</ele>
      </trkpt>
      <trkpt lat="44.82134" lon="1.26742">
        <ele>181.7</ele>
      </trkpt>
      <trkpt lat="44.82139" lon="1.26639">
        <ele>174.9</ele>
      </trkpt>
      <trkpt lat="44.8214" lon="1.26626">
        <ele>173.2</ele>
      </trkpt>
      <trkpt lat="44.82143" lon="1.26613">
        <ele>171.7</ele>
      </trkpt>
      <trkpt lat="44.82149" lon="1.26597">
        <ele>170.2</ele>
      </trkpt>
      <trkpt lat="44.82169" lon="1.26564">
        <ele>166.3</ele>
      </trkpt>
      <trkpt lat="44.82177" lon="1.26554">
        <ele>164.8</ele>
      </trkpt>
      <trkpt lat="44.822" lon="1.26535">
        <ele>161.8</ele>
      </trkpt>
      <trkpt lat="44.82217" lon="1.26527">
        <ele>160.8</ele>
      </trkpt>
      <trkpt lat="44.82237" lon="1.26522">
        <ele>160.3</ele>
      </trkpt>
      <trkpt lat="44.82255" lon="1.26521">
        <ele>159.8</ele>
      </trkpt>
      <trkpt lat="44.82275" lon="1.26522">
        <ele>156.8</ele>
      </trkpt>
      <trkpt lat="44.82288" lon="1.2653">
        <ele>156.5</ele>
      </trkpt>
      <trkpt lat="44.82329" lon="1.26569">
        <ele>158.7</ele>
      </trkpt>
      <trkpt lat="44.82356" lon="1.2659">
        <ele>157.3</ele>
      </trkpt>
      <trkpt lat="44.82369" lon="1.26595">
        <ele>154.9</ele>
      </trkpt>
      <trkpt lat="44.82388" lon="1.26597">
        <ele>151.2</ele>
      </trkpt>
      <trkpt lat="44.82407" lon="1.26589">
        <ele>148.1</ele>
      </trkpt>
      <trkpt lat="44.82422" lon="1.26579">
        <ele>146</ele>
      </trkpt>
      <trkpt lat="44.82449" lon="1.26556">
        <ele>142.1</ele>
      </trkpt>
      <trkpt lat="44.82456" lon="1.26548">
        <ele>141.5</ele>
      </trkpt>
      <trkpt lat="44.82475" lon="1.2652">
        <ele>141.6</ele>
      </trkpt>
      <trkpt lat="44.8249" lon="1.26505">
        <ele>142.5</ele>
      </trkpt>
      <trkpt lat="44.82505" lon="1.26498">
        <ele>142.4</ele>
      </trkpt>
      <trkpt lat="44.82545" lon="1.26495">
        <ele>137.5</ele>
      </trkpt>
      <trkpt lat="44.82555" lon="1.26492">
        <ele>136.3</ele>
      </trkpt>
      <trkpt lat="44.8257" lon="1.26482">
        <ele>134.6</ele>
      </trkpt>
      <trkpt lat="44.82587" lon="1.26464">
        <ele>133.6</ele>
      </trkpt>
      <trkpt lat="44.82605" lon="1.26442">
        <ele>135.3</ele>
      </trkpt>
      <trkpt lat="44.82623" lon="1.26405">
        <ele>137.1</ele>
      </trkpt>
      <trkpt lat="44.8264" lon="1.26343">
        <ele>132.7</ele>
      </trkpt>
      <trkpt lat="44.82671" lon="1.26275">
        <ele>125.6</ele>
      </trkpt>
      <trkpt lat="44.8268" lon="1.26262">
        <ele>123.7</ele>
      </trkpt>
      <trkpt lat="44.82696" lon="1.26252">
        <ele>122.2</ele>
      </trkpt>
      <trkpt lat="44.82706" lon="1.26246">
        <ele>121.3</ele>
      </trkpt>
      <trkpt lat="44.82751" lon="1.2624">
        <ele>119.8</ele>
      </trkpt>
      <trkpt lat="44.82767" lon="1.2624">
        <ele>117.7</ele>
      </trkpt>
      <trkpt lat="44.82805" lon="1.26252">
        <ele>114.2</ele>
      </trkpt>
      <trkpt lat="44.82821" lon="1.26261">
        <ele>112.7</ele>
      </trkpt>
      <trkpt lat="44.82833" lon="1.26275">
        <ele>111.9</ele>
      </trkpt>
      <trkpt lat="44.82855" lon="1.26322">
        <ele>113.5</ele>
      </trkpt>
      <trkpt lat="44.82868" lon="1.26344">
        <ele>111.5</ele>
      </trkpt>
      <trkpt lat="44.82875" lon="1.2635">
        <ele>109.8</ele>
      </trkpt>
      <trkpt lat="44.82886" lon="1.26355">
        <ele>107.8</ele>
      </trkpt>
      <trkpt lat="44.82899" lon="1.26352">
        <ele>106.8</ele>
      </trkpt>
      <trkpt lat="44.82925" lon="1.26339">
        <ele>107.8</ele>
      </trkpt>
      <trkpt lat="44.82917" lon="1.26304">
        <ele>108</ele>
      </trkpt>
      <trkpt lat="44.82917" lon="1.2629">
        <ele>107.5</ele>
      </trkpt>
      <trkpt lat="44.82927" lon="1.26277">
        <ele>107.2</ele>
      </trkpt>
      <trkpt lat="44.82963" lon="1.26251">
        <ele>107.7</ele>
      </trkpt>
      <trkpt lat="44.83025" lon="1.26219">
        <ele>107.4</ele>
      </trkpt>
      <trkpt lat="44.83038" lon="1.2621">
        <ele>107.2</ele>
      </trkpt>
      <trkpt lat="44.83095" lon="1.26159">
        <ele>106.1</ele>
      </trkpt>
      <trkpt lat="44.83143" lon="1.26104">
        <ele>105.9</ele>
      </trkpt>
      <trkpt lat="44.83157" lon="1.26093">
        <ele>106</ele>
      </trkpt>
      <trkpt lat="44.83222" lon="1.26051">
        <ele>105.9</ele>
      </trkpt>
      <trkpt lat="44.83235" lon="1.26049">
        <ele>106</ele>
      </trkpt>
      <trkpt lat="44.83244" lon="1.26057">
        <ele>106.3</ele>
      </trkpt>
      <trkpt lat="44.83248" lon="1.2607">
        <ele>106.7</ele>
      </trkpt>
      <trkpt lat="44.83253" lon="1.26104">
        <ele>107.3</ele>
      </trkpt>
      <trkpt lat="44.83259" lon="1.26123">
        <ele>107.5</ele>
      </trkpt>
      <trkpt lat="44.83273" lon="1.26115">
        <ele>106.7</ele>
      </trkpt>
      <trkpt lat="44.83301" lon="1.26095">
        <ele>104.8</ele>
      </trkpt>
      <trkpt lat="44.83364" lon="1.26053">
        <ele>102</ele>
      </trkpt>
      <trkpt lat="44.83464" lon="1.25995">
        <ele>99.5</ele>
      </trkpt>
      <trkpt lat="44.83506" lon="1.25967">
        <ele>99.4</ele>
      </trkpt>
      <trkpt lat="44.83571" lon="1.25914">
        <ele>100.4</ele>
      </trkpt>
      <trkpt lat="44.83639" lon="1.25874">
        <ele>99.8</ele>
      </trkpt>
      <trkpt lat="44.83671" lon="1.2585">
        <ele>99.5</ele>
      </trkpt>
      <trkpt lat="44.83697" lon="1.25824">
        <ele>99.6</ele>
      </trkpt>
      <trkpt lat="44.83718" lon="1.25805">
        <ele>100.1</ele>
      </trkpt>
      <trkpt lat="44.8372" lon="1.25801">
        <ele>100.1</ele>
      </trkpt>
      <trkpt lat="44.83718" lon="1.25805">
        <ele>100.1</ele>
      </trkpt>
      <trkpt lat="44.83697" lon="1.25824">
        <ele>99.6</ele>
      </trkpt>
      <trkpt lat="44.83671" lon="1.2585">
        <ele>99.5</ele>
      </trkpt>
      <trkpt lat="44.83639" lon="1.25874">
        <ele>99.8</ele>
      </trkpt>
      <trkpt lat="44.83571" lon="1.25914">
        <ele>100.4</ele>
      </trkpt>
      <trkpt lat="44.83506" lon="1.25967">
        <ele>99.4</ele>
      </trkpt>
      <trkpt lat="44.83464" lon="1.25995">
        <ele>99.5</ele>
      </trkpt>
      <trkpt lat="44.83364" lon="1.26053">
        <ele>102</ele>
      </trkpt>
      <trkpt lat="44.83301" lon="1.26095">
        <ele>104.8</ele>
      </trkpt>
      <trkpt lat="44.83273" lon="1.26115">
        <ele>106.7</ele>
      </trkpt>
      <trkpt lat="44.83259" lon="1.26123">
        <ele>107.5</ele>
      </trkpt>
      <trkpt lat="44.83253" lon="1.26104">
        <ele>107.3</ele>
      </trkpt>
      <trkpt lat="44.83248" lon="1.2607">
        <ele>106.7</ele>
      </trkpt>
      <trkpt lat="44.83244" lon="1.26057">
        <ele>106.3</ele>
      </trkpt>
      <trkpt lat="44.83235" lon="1.26049">
        <ele>106</ele>
      </trkpt>
      <trkpt lat="44.83222" lon="1.26051">
        <ele>105.9</ele>
      </trkpt>
      <trkpt lat="44.83157" lon="1.26093">
        <ele>106</ele>
      </trkpt>
      <trkpt lat="44.83143" lon="1.26104">
        <ele>105.9</ele>
      </trkpt>
      <trkpt lat="44.83095" lon="1.26159">
        <ele>106.1</ele>
      </trkpt>
      <trkpt lat="44.83038" lon="1.2621">
        <ele>107.2</ele>
      </trkpt>
      <trkpt lat="44.83025" lon="1.26219">
        <ele>107.4</ele>
      </trkpt>
      <trkpt lat="44.82963" lon="1.26251">
        <ele>107.7</ele>
      </trkpt>
      <trkpt lat="44.82927" lon="1.26277">
        <ele>107.2</ele>
      </trkpt>
      <trkpt lat="44.82917" lon="1.2629">
        <ele>107.5</ele>
      </trkpt>
      <trkpt lat="44.82917" lon="1.26304">
        <ele>108</ele>
      </trkpt>
      <trkpt lat="44.82925" lon="1.26339">
        <ele>107.8</ele>
      </trkpt>
      <trkpt lat="44.82899" lon="1.26352">
        <ele>106.8</ele>
      </trkpt>
      <trkpt lat="44.82886" lon="1.26355">
        <ele>107.8</ele>
      </trkpt>
      <trkpt lat="44.82875" lon="1.2635">
        <ele>109.8</ele>
      </trkpt>
      <trkpt lat="44.82868" lon="1.26344">
        <ele>111.5</ele>
      </trkpt>
      <trkpt lat="44.82855" lon="1.26322">
        <ele>113.5</ele>
      </trkpt>
      <trkpt lat="44.82833" lon="1.26275">
        <ele>111.9</ele>
      </trkpt>
      <trkpt lat="44.82821" lon="1.26261">
        <ele>112.7</ele>
      </trkpt>
      <trkpt lat="44.82805" lon="1.26252">
        <ele>114.2</ele>
      </trkpt>
      <trkpt lat="44.82767" lon="1.2624">
        <ele>117.7</ele>
      </trkpt>
      <trkpt lat="44.82751" lon="1.2624">
        <ele>119.8</ele>
      </trkpt>
      <trkpt lat="44.82706" lon="1.26246">
        <ele>121.3</ele>
      </trkpt>
      <trkpt lat="44.82696" lon="1.26252">
        <ele>122.2</ele>
      </trkpt>
      <trkpt lat="44.8268" lon="1.26262">
        <ele>123.7</ele>
      </trkpt>
      <trkpt lat="44.82671" lon="1.26275">
        <ele>125.6</ele>
      </trkpt>
      <trkpt lat="44.8264" lon="1.26343">
        <ele>132.7</ele>
      </trkpt>
      <trkpt lat="44.82623" lon="1.26405">
        <ele>137.1</ele>
      </trkpt>
      <trkpt lat="44.82615" lon="1.26423">
        <ele>137</ele>
      </trkpt>
      <trkpt lat="44.82605" lon="1.26442">
        <ele>135.3</ele>
      </trkpt>
      <trkpt lat="44.82587" lon="1.26464">
        <ele>133.6</ele>
      </trkpt>
      <trkpt lat="44.8257" lon="1.26482">
        <ele>134.6</ele>
      </trkpt>
      <trkpt lat="44.82555" lon="1.26492">
        <ele>136.3</ele>
      </trkpt>
      <trkpt lat="44.82545" lon="1.26495">
        <ele>137.5</ele>
      </trkpt>
      <trkpt lat="44.82505" lon="1.26498">
        <ele>142.4</ele>
      </trkpt>
      <trkpt lat="44.8249" lon="1.26505">
        <ele>142.5</ele>
      </trkpt>
      <trkpt lat="44.82475" lon="1.2652">
        <ele>141.6</ele>
      </trkpt>
      <trkpt lat="44.82456" lon="1.26548">
        <ele>141.5</ele>
      </trkpt>
      <trkpt lat="44.82449" lon="1.26556">
        <ele>142.1</ele>
      </trkpt>
      <trkpt lat="44.82422" lon="1.26579">
        <ele>146</ele>
      </trkpt>
      <trkpt lat="44.82407" lon="1.26589">
        <ele>148.1</ele>
      </trkpt>
      <trkpt lat="44.82388" lon="1.26597">
        <ele>151.2</ele>
      </trkpt>
      <trkpt lat="44.82369" lon="1.26595">
        <ele>154.9</ele>
      </trkpt>
      <trkpt lat="44.82356" lon="1.2659">
        <ele>157.3</ele>
      </trkpt>
      <trkpt lat="44.82329" lon="1.26569">
        <ele>158.7</ele>
      </trkpt>
      <trkpt lat="44.82288" lon="1.2653">
        <ele>156.5</ele>
      </trkpt>
      <trkpt lat="44.82275" lon="1.26522">
        <ele>156.8</ele>
      </trkpt>
      <trkpt lat="44.82271" lon="1.26521">
        <ele>157.3</ele>
      </trkpt>
      <trkpt lat="44.82237" lon="1.26522">
        <ele>160.3</ele>
      </trkpt>
      <trkpt lat="44.82217" lon="1.26527">
        <ele>160.8</ele>
      </trkpt>
      <trkpt lat="44.822" lon="1.26535">
        <ele>161.8</ele>
      </trkpt>
      <trkpt lat="44.82177" lon="1.26554">
        <ele>164.8</ele>
      </trkpt>
      <trkpt lat="44.82169" lon="1.26564">
        <ele>166.3</ele>
      </trkpt>
      <trkpt lat="44.82149" lon="1.26597">
        <ele>170.2</ele>
      </trkpt>
      <trkpt lat="44.82143" lon="1.26613">
        <ele>171.7</ele>
      </trkpt>
      <trkpt lat="44.8214" lon="1.26626">
        <ele>173.2</ele>
      </trkpt>
      <trkpt lat="44.82139" lon="1.26639">
        <ele>174.9</ele>
      </trkpt>
      <trkpt lat="44.82134" lon="1.26742">
        <ele>181.7</ele>
      </trkpt>
      <trkpt lat="44.82128" lon="1.26769">
        <ele>182.6</ele>
      </trkpt>
      <trkpt lat="44.82123" lon="1.26781">
        <ele>183.1</ele>
      </trkpt>
      <trkpt lat="44.82113" lon="1.26783">
        <ele>182.9</ele>
      </trkpt>
      <trkpt lat="44.82078" lon="1.26772">
        <ele>181.5</ele>
      </trkpt>
      <trkpt lat="44.82064" lon="1.26771">
        <ele>182.3</ele>
      </trkpt>
      <trkpt lat="44.82053" lon="1.26772">
        <ele>183.1</ele>
      </trkpt>
      <trkpt lat="44.82022" lon="1.26792">
        <ele>186.7</ele>
      </trkpt>
      <trkpt lat="44.81977" lon="1.26829">
        <ele>191.8</ele>
      </trkpt>
      <trkpt lat="44.8196" lon="1.26841">
        <ele>192.9</ele>
      </trkpt>
      <trkpt lat="44.81948" lon="1.26841">
        <ele>193.5</ele>
      </trkpt>
      <trkpt lat="44.81934" lon="1.26839">
        <ele>194.1</ele>
      </trkpt>
      <trkpt lat="44.81924" lon="1.26832">
        <ele>194.6</ele>
      </trkpt>
      <trkpt lat="44.8192" lon="1.26826">
        <ele>194.4</ele>
      </trkpt>
      <trkpt lat="44.81912" lon="1.2681">
        <ele>194.2</ele>
      </trkpt>
      <trkpt lat="44.81907" lon="1.26768">
        <ele>192.5</ele>
      </trkpt>
      <trkpt lat="44.81904" lon="1.26754">
        <ele>192.1</ele>
      </trkpt>
      <trkpt lat="44.81898" lon="1.26739">
        <ele>192.8</ele>
      </trkpt>
      <trkpt lat="44.81895" lon="1.26734">
        <ele>193.2</ele>
      </trkpt>
      <trkpt lat="44.8189" lon="1.2673">
        <ele>194</ele>
      </trkpt>
      <trkpt lat="44.81875" lon="1.26728">
        <ele>196.2</ele>
      </trkpt>
      <trkpt lat="44.8183" lon="1.26727">
        <ele>202.9</ele>
      </trkpt>
      <trkpt lat="44.81819" lon="1.2672">
        <ele>205.4</ele>
      </trkpt>
      <trkpt lat="44.81813" lon="1.26712">
        <ele>206.9</ele>
      </trkpt>
      <trkpt lat="44.81809" lon="1.26704">
        <ele>207.6</ele>
      </trkpt>
      <trkpt lat="44.81805" lon="1.26678">
        <ele>208.5</ele>
      </trkpt>
      <trkpt lat="44.81805" lon="1.26665">
        <ele>208.6</ele>
      </trkpt>
      <trkpt lat="44.81808" lon="1.26648">
        <ele>209.5</ele>
      </trkpt>
      <trkpt lat="44.81839" lon="1.26575">
        <ele>211.6</ele>
      </trkpt>
      <trkpt lat="44.81854" lon="1.2655">
        <ele>210.8</ele>
      </trkpt>
      <trkpt lat="44.81859" lon="1.26536">
        <ele>211.2</ele>
      </trkpt>
      <trkpt lat="44.8186" lon="1.26522">
        <ele>212.1</ele>
      </trkpt>
      <trkpt lat="44.81859" lon="1.26508">
        <ele>213.4</ele>
      </trkpt>
      <trkpt lat="44.81853" lon="1.26493">
        <ele>214.5</ele>
      </trkpt>
      <trkpt lat="44.81831" lon="1.26469">
        <ele>216.8</ele>
      </trkpt>
      <trkpt lat="44.81813" lon="1.26457">
        <ele>217.9</ele>
      </trkpt>
      <trkpt lat="44.81771" lon="1.26416">
        <ele>220</ele>
      </trkpt>
      <trkpt lat="44.81744" lon="1.26408">
        <ele>221.4</ele>
      </trkpt>
      <trkpt lat="44.81734" lon="1.26408">
        <ele>221</ele>
      </trkpt>
      <trkpt lat="44.81711" lon="1.26416">
        <ele>220.5</ele>
      </trkpt>
      <trkpt lat="44.81668" lon="1.26465">
        <ele>223.7</ele>
      </trkpt>
      <trkpt lat="44.81645" lon="1.2648">
        <ele>226.3</ele>
      </trkpt>
      <trkpt lat="44.81633" lon="1.26482">
        <ele>227.3</ele>
      </trkpt>
      <trkpt lat="44.81622" lon="1.2648">
        <ele>227.7</ele>
      </trkpt>
      <trkpt lat="44.81579" lon="1.26463">
        <ele>227.3</ele>
      </trkpt>
      <trkpt lat="44.81563" lon="1.2646">
        <ele>227.2</ele>
      </trkpt>
      <trkpt lat="44.81539" lon="1.2646">
        <ele>227.8</ele>
      </trkpt>
      <trkpt lat="44.81521" lon="1.26464">
        <ele>228.9</ele>
      </trkpt>
      <trkpt lat="44.81443" lon="1.26506">
        <ele>236.9</ele>
      </trkpt>
      <trkpt lat="44.8143" lon="1.26511">
        <ele>238.1</ele>
      </trkpt>
      <trkpt lat="44.81414" lon="1.26513">
        <ele>238.9</ele>
      </trkpt>
      <trkpt lat="44.81397" lon="1.2651">
        <ele>239.6</ele>
      </trkpt>
      <trkpt lat="44.81357" lon="1.26491">
        <ele>240.2</ele>
      </trkpt>
      <trkpt lat="44.81347" lon="1.26489">
        <ele>240.8</ele>
      </trkpt>
      <trkpt lat="44.81338" lon="1.26489">
        <ele>241.5</ele>
      </trkpt>
      <trkpt lat="44.81221" lon="1.26518">
        <ele>236.5</ele>
      </trkpt>
      <trkpt lat="44.81211" lon="1.26523">
        <ele>235.5</ele>
      </trkpt>
      <trkpt lat="44.81201" lon="1.26532">
        <ele>235.1</ele>
      </trkpt>
      <trkpt lat="44.81177" lon="1.2657">
        <ele>235.7</ele>
      </trkpt>
      <trkpt lat="44.81169" lon="1.26589">
        <ele>235.9</ele>
      </trkpt>
      <trkpt lat="44.81149" lon="1.26674">
        <ele>240.1</ele>
      </trkpt>
      <trkpt lat="44.81136" lon="1.26701">
        <ele>241.2</ele>
      </trkpt>
      <trkpt lat="44.81107" lon="1.26729">
        <ele>239.6</ele>
      </trkpt>
      <trkpt lat="44.81087" lon="1.26753">
        <ele>239</ele>
      </trkpt>
      <trkpt lat="44.81051" lon="1.26816">
        <ele>239.3</ele>
      </trkpt>
      <trkpt lat="44.81029" lon="1.26847">
        <ele>238.3</ele>
      </trkpt>
      <trkpt lat="44.81007" lon="1.26867">
        <ele>235.7</ele>
      </trkpt>
      <trkpt lat="44.80997" lon="1.26874">
        <ele>234.8</ele>
      </trkpt>
      <trkpt lat="44.80989" lon="1.26878">
        <ele>235.1</ele>
      </trkpt>
      <trkpt lat="44.80979" lon="1.2688">
        <ele>235</ele>
      </trkpt>
      <trkpt lat="44.8096" lon="1.26875">
        <ele>234.3</ele>
      </trkpt>
      <trkpt lat="44.80935" lon="1.26862">
        <ele>233.2</ele>
      </trkpt>
      <trkpt lat="44.80937" lon="1.26895">
        <ele>234.9</ele>
      </trkpt>
      <trkpt lat="44.80934" lon="1.26928">
        <ele>236.4</ele>
      </trkpt>
      <trkpt lat="44.80925" lon="1.26959">
        <ele>237.6</ele>
      </trkpt>
      <trkpt lat="44.80903" lon="1.27002">
        <ele>237.6</ele>
      </trkpt>
      <trkpt lat="44.80893" lon="1.27033">
        <ele>236.2</ele>
      </trkpt>
      <trkpt lat="44.80858" lon="1.27211">
        <ele>225.6</ele>
      </trkpt>
      <trkpt lat="44.80851" lon="1.27252">
        <ele>224</ele>
      </trkpt>
      <trkpt lat="44.80852" lon="1.27278">
        <ele>222.3</ele>
      </trkpt>
      <trkpt lat="44.80857" lon="1.27294">
        <ele>221.4</ele>
      </trkpt>
      <trkpt lat="44.80862" lon="1.27304">
        <ele>220.8</ele>
      </trkpt>
      <trkpt lat="44.80878" lon="1.27321">
        <ele>219.3</ele>
      </trkpt>
      <trkpt lat="44.80889" lon="1.27327">
        <ele>218.6</ele>
      </trkpt>
      <trkpt lat="44.80898" lon="1.27329">
        <ele>218.1</ele>
      </trkpt>
      <trkpt lat="44.80916" lon="1.27328">
        <ele>218</ele>
      </trkpt>
      <trkpt lat="44.80936" lon="1.27323">
        <ele>219.1</ele>
      </trkpt>
      <trkpt lat="44.80953" lon="1.27315">
        <ele>220.8</ele>
      </trkpt>
      <trkpt lat="44.80977" lon="1.27296">
        <ele>223.9</ele>
      </trkpt>
      <trkpt lat="44.8099" lon="1.27289">
        <ele>224.9</ele>
      </trkpt>
      <trkpt lat="44.80996" lon="1.27289">
        <ele>224.8</ele>
      </trkpt>
      <trkpt lat="44.81002" lon="1.27292">
        <ele>225</ele>
      </trkpt>
      <trkpt lat="44.81007" lon="1.27298">
        <ele>225.2</ele>
      </trkpt>
      <trkpt lat="44.81011" lon="1.27307">
        <ele>225.1</ele>
      </trkpt>
      <trkpt lat="44.81014" lon="1.27331">
        <ele>223</ele>
      </trkpt>
      <trkpt lat="44.81012" lon="1.27377">
        <ele>220.4</ele>
      </trkpt>
      <trkpt lat="44.81016" lon="1.27384">
        <ele>221.4</ele>
      </trkpt>
      <trkpt lat="44.81018" lon="1.27468">
        <ele>219.8</ele>
      </trkpt>
      <trkpt lat="44.81024" lon="1.27495">
        <ele>221.5</ele>
      </trkpt>
      <trkpt lat="44.81048" lon="1.27553">
        <ele>227</ele>
      </trkpt>
      <trkpt lat="44.81051" lon="1.27569">
        <ele>227.3</ele>
      </trkpt>
      <trkpt lat="44.81054" lon="1.27603">
        <ele>226.2</ele>
      </trkpt>
      <trkpt lat="44.81062" lon="1.27639">
        <ele>224.9</ele>
      </trkpt>
      <trkpt lat="44.81065" lon="1.27647">
        <ele>224.7</ele>
      </trkpt>
      <trkpt lat="44.81073" lon="1.27655">
        <ele>225.1</ele>
      </trkpt>
      <trkpt lat="44.81083" lon="1.27662">
        <ele>225.5</ele>
      </trkpt>
      <trkpt lat="44.81092" lon="1.27666">
        <ele>225.3</ele>
      </trkpt>
      <trkpt lat="44.81114" lon="1.27679">
        <ele>224.5</ele>
      </trkpt>
      <trkpt lat="44.8113" lon="1.27691">
        <ele>223.6</ele>
      </trkpt>
      <trkpt lat="44.8114" lon="1.27703">
        <ele>222.7</ele>
      </trkpt>
      <trkpt lat="44.81149" lon="1.27727">
        <ele>220.7</ele>
      </trkpt>
      <trkpt lat="44.81152" lon="1.27739">
        <ele>219.6</ele>
      </trkpt>
      <trkpt lat="44.81162" lon="1.27763">
        <ele>218.1</ele>
      </trkpt>
      <trkpt lat="44.8117" lon="1.27774">
        <ele>217.3</ele>
      </trkpt>
      <trkpt lat="44.8118" lon="1.27738">
        <ele>219.2</ele>
      </trkpt>
      <trkpt lat="44.812" lon="1.27704">
        <ele>221.7</ele>
      </trkpt>
      <trkpt lat="44.81219" lon="1.27686">
        <ele>223.2</ele>
      </trkpt>
      <trkpt lat="44.81235" lon="1.27675">
        <ele>224.1</ele>
      </trkpt>
      <trkpt lat="44.81258" lon="1.27669">
        <ele>224.4</ele>
      </trkpt>
      <trkpt lat="44.81311" lon="1.27675">
        <ele>221.4</ele>
      </trkpt>
      <trkpt lat="44.81318" lon="1.27673">
        <ele>221.5</ele>
      </trkpt>
      <trkpt lat="44.81338" lon="1.27659">
        <ele>224.3</ele>
      </trkpt>
      <trkpt lat="44.8135" lon="1.27654">
        <ele>226.5</ele>
      </trkpt>
      <trkpt lat="44.81357" lon="1.27653">
        <ele>227.3</ele>
      </trkpt>
      <trkpt lat="44.81369" lon="1.27657">
        <ele>227.2</ele>
      </trkpt>
      <trkpt lat="44.81384" lon="1.27672">
        <ele>225.2</ele>
      </trkpt>
      <trkpt lat="44.81409" lon="1.27693">
        <ele>222.6</ele>
      </trkpt>
      <trkpt lat="44.81446" lon="1.27731">
        <ele>219.5</ele>
      </trkpt>
      <trkpt lat="44.81467" lon="1.27765">
        <ele>217.6</ele>
      </trkpt>
      <trkpt lat="44.81484" lon="1.27783">
        <ele>217.8</ele>
      </trkpt>
      <trkpt lat="44.81509" lon="1.27793">
        <ele>218.1</ele>
      </trkpt>
      <trkpt lat="44.81563" lon="1.278">
        <ele>216.7</ele>
      </trkpt>
      <trkpt lat="44.81585" lon="1.27806">
        <ele>215.6</ele>
      </trkpt>
      <trkpt lat="44.81604" lon="1.27808">
        <ele>211.6</ele>
      </trkpt>
      <trkpt lat="44.81613" lon="1.27806">
        <ele>210</ele>
      </trkpt>
      <trkpt lat="44.81637" lon="1.27789">
        <ele>206.1</ele>
      </trkpt>
      <trkpt lat="44.81649" lon="1.27774">
        <ele>203.8</ele>
      </trkpt>
      <trkpt lat="44.81662" lon="1.27753">
        <ele>201.1</ele>
      </trkpt>
      <trkpt lat="44.81669" lon="1.27741">
        <ele>201.1</ele>
      </trkpt>
      <trkpt lat="44.81675" lon="1.27717">
        <ele>203.6</ele>
      </trkpt>
      <trkpt lat="44.81681" lon="1.27709">
        <ele>204</ele>
      </trkpt>
      <trkpt lat="44.81681" lon="1.27698">
        <ele>205.4</ele>
      </trkpt>
      <trkpt lat="44.81683" lon="1.27687">
        <ele>206.6</ele>
      </trkpt>
      <trkpt lat="44.81698" lon="1.27659">
        <ele>208</ele>
      </trkpt>
      <trkpt lat="44.81711" lon="1.2764">
        <ele>208.7</ele>
      </trkpt>
      <trkpt lat="44.81721" lon="1.27627">
        <ele>208.4</ele>
      </trkpt>
      <trkpt lat="44.8173" lon="1.27626">
        <ele>206.7</ele>
      </trkpt>
      <trkpt lat="44.81752" lon="1.27627">
        <ele>202</ele>
      </trkpt>
      <trkpt lat="44.81769" lon="1.2762">
        <ele>200.7</ele>
      </trkpt>
      <trkpt lat="44.81776" lon="1.27606">
        <ele>201.2</ele>
      </trkpt>
      <trkpt lat="44.81834" lon="1.27524">
        <ele>200.2</ele>
      </trkpt>
      <trkpt lat="44.81857" lon="1.27496">
        <ele>197</ele>
      </trkpt>
      <trkpt lat="44.8187" lon="1.27482">
        <ele>194</ele>
      </trkpt>
      <trkpt lat="44.81874" lon="1.27473">
        <ele>193.3</ele>
      </trkpt>
      <trkpt lat="44.81879" lon="1.27539">
        <ele>190.1</ele>
      </trkpt>
      <trkpt lat="44.81887" lon="1.27562">
        <ele>187.5</ele>
      </trkpt>
      <trkpt lat="44.81892" lon="1.27572">
        <ele>186</ele>
      </trkpt>
      <trkpt lat="44.81898" lon="1.27579">
        <ele>184.5</ele>
      </trkpt>
      <trkpt lat="44.8191" lon="1.27584">
        <ele>182.1</ele>
      </trkpt>
      <trkpt lat="44.81934" lon="1.27573">
        <ele>177.3</ele>
      </trkpt>
      <trkpt lat="44.8195" lon="1.27576">
        <ele>173.3</ele>
      </trkpt>
      <trkpt lat="44.81953" lon="1.27582">
        <ele>172</ele>
      </trkpt>
      <trkpt lat="44.81955" lon="1.27594">
        <ele>169.8</ele>
      </trkpt>
      <trkpt lat="44.81954" lon="1.27614">
        <ele>167.3</ele>
      </trkpt>
      <trkpt lat="44.81941" lon="1.27656">
        <ele>165.8</ele>
      </trkpt>
      <trkpt lat="44.81927" lon="1.27683">
        <ele>167.4</ele>
      </trkpt>
      <trkpt lat="44.81902" lon="1.27716">
        <ele>169.6</ele>
      </trkpt>
      <trkpt lat="44.81894" lon="1.27731">
        <ele>169.4</ele>
      </trkpt>
      <trkpt lat="44.81892" lon="1.27752">
        <ele>167.8</ele>
      </trkpt>
      <trkpt lat="44.81905" lon="1.278">
        <ele>169.2</ele>
      </trkpt>
      <trkpt lat="44.81925" lon="1.27822">
        <ele>167.7</ele>
      </trkpt>
      <trkpt lat="44.81952" lon="1.27842">
        <ele>166.6</ele>
      </trkpt>
      <trkpt lat="44.8197" lon="1.27842">
        <ele>164.3</ele>
      </trkpt>
      <trkpt lat="44.81986" lon="1.27831">
        <ele>160.4</ele>
      </trkpt>
      <trkpt lat="44.82005" lon="1.27826">
        <ele>156.2</ele>
      </trkpt>
      <trkpt lat="44.82023" lon="1.27826">
        <ele>151.1</ele>
      </trkpt>
      <trkpt lat="44.82049" lon="1.27834">
        <ele>145.7</ele>
      </trkpt>
      <trkpt lat="44.8207" lon="1.2785">
        <ele>142.2</ele>
      </trkpt>
      <trkpt lat="44.82095" lon="1.27876">
        <ele>135.2</ele>
      </trkpt>
      <trkpt lat="44.82105" lon="1.279">
        <ele>131.4</ele>
      </trkpt>
      <trkpt lat="44.82109" lon="1.27929">
        <ele>131.9</ele>
      </trkpt>
      <trkpt lat="44.82123" lon="1.28015">
        <ele>126.9</ele>
      </trkpt>
      <trkpt lat="44.8212" lon="1.28059">
        <ele>126.5</ele>
      </trkpt>
      <trkpt lat="44.82119" lon="1.28072">
        <ele>126.6</ele>
      </trkpt>
      <trkpt lat="44.82109" lon="1.28115">
        <ele>127.5</ele>
      </trkpt>
      <trkpt lat="44.82098" lon="1.28249">
        <ele>116.6</ele>
      </trkpt>
      <trkpt lat="44.82085" lon="1.28304">
        <ele>113.9</ele>
      </trkpt>
      <trkpt lat="44.82084" lon="1.28326">
        <ele>111.8</ele>
      </trkpt>
      <trkpt lat="44.82086" lon="1.28372">
        <ele>107</ele>
      </trkpt>
      <trkpt lat="44.82085" lon="1.28391">
        <ele>105.3</ele>
      </trkpt>
      <trkpt lat="44.82088" lon="1.28407">
        <ele>103.4</ele>
      </trkpt>
      <trkpt lat="44.82096" lon="1.28425">
        <ele>101.6</ele>
      </trkpt>
      <trkpt lat="44.82134" lon="1.28491">
        <ele>97.4</ele>
      </trkpt>
      <trkpt lat="44.82138" lon="1.28506">
        <ele>96.7</ele>
      </trkpt>
      <trkpt lat="44.82143" lon="1.28509">
        <ele>96.1</ele>
      </trkpt>
      <trkpt lat="44.82147" lon="1.28515">
        <ele>95.4</ele>
      </trkpt>
      <trkpt lat="44.82184" lon="1.28588">
        <ele>89.3</ele>
      </trkpt>
      <trkpt lat="44.82197" lon="1.28596">
        <ele>88.6</ele>
      </trkpt>
      <trkpt lat="44.82213" lon="1.28597">
        <ele>88.2</ele>
      </trkpt>
      <trkpt lat="44.82227" lon="1.28592">
        <ele>88.1</ele>
      </trkpt>
      <trkpt lat="44.82238" lon="1.28583">
        <ele>88.3</ele>
      </trkpt>
      <trkpt lat="44.82258" lon="1.28555">
        <ele>88.3</ele>
      </trkpt>
      <trkpt lat="44.82267" lon="1.28545">
        <ele>87.8</ele>
      </trkpt>
      <trkpt lat="44.82277" lon="1.2854">
        <ele>87.1</ele>
      </trkpt>
      <trkpt lat="44.82286" lon="1.28542">
        <ele>86.3</ele>
      </trkpt>
      <trkpt lat="44.82293" lon="1.28549">
        <ele>85.3</ele>
      </trkpt>
      <trkpt lat="44.82312" lon="1.28577">
        <ele>82.3</ele>
      </trkpt>
      <trkpt lat="44.82322" lon="1.28614">
        <ele>81.5</ele>
      </trkpt>
      <trkpt lat="44.82324" lon="1.2864">
        <ele>81.8</ele>
      </trkpt>
      <trkpt lat="44.82322" lon="1.28677">
        <ele>82.1</ele>
      </trkpt>
      <trkpt lat="44.82344" lon="1.28689">
        <ele>81.4</ele>
      </trkpt>
      <trkpt lat="44.82366" lon="1.28698">
        <ele>80.7</ele>
      </trkpt>
      <trkpt lat="44.82373" lon="1.28706">
        <ele>80.6</ele>
      </trkpt>
      <trkpt lat="44.82378" lon="1.2874">
        <ele>80.5</ele>
      </trkpt>
    </trkseg>
  </trk>
  <trk>
    <name><![CDATA[voie verte de sarlat à cazoules avec visites chateaux_3]]></name>
    <trkseg>
      <trkpt lat="44.82239" lon="1.24066">
        <ele>91.3</ele>
      </trkpt>
      <trkpt lat="44.82239" lon="1.24066">
        <ele>91.3</ele>
      </trkpt>
    </trkseg>
  </trk>
</gpx>